[[{"header":{"parameterUnit":"m.s-1","parameterCategory":1,"la1":30.6,"la2":29.2853,"lo1":-89.7004,"lo2":-87.6739,"dy":0.0162,"dx":0.0183,"nx":112,"ny":82,"refTime":"2023-11-20T18:00:00:Z","depth":0,"parameterNumber":2,"parameterNumberName":"U-component_of_WINDS"},"data":[0.0,0.0,0.0,0.0,0.0,0.0,0.0,0.0,0.0,0.0,0.0,0.0,0.0,0.0,0.0,0.0,0.0,0.0,0.0,0.0,0.0,0.0,0.0,0.0,0.0,0.0,0.0,0.0,0.0,0.0,0.0,0.0,0.0,0.0,0.0,0.0,0.0,0.0,0.0,0.0,0.0,0.0,0.0,0.0,0.0,0.0,0.0,0.0,0.0,0.0,0.0,0.0,0.0,0.0,0.0,0.0,0.0,0.0,0.0,0.0,0.0,0.0,0.0,0.0,0.0,0.0,0.0,0.0,0.0,0.0,0.0,0.0,0.0,0.0,0.0,0.0,0.0,0.0,0.0,0.0,0.0,0.0,0.0,0.0,0.0,0.0,0.0,0.0,0.0,0.0,3.3517,3.3578,3.362,3.3453,3.2935,3.2941,3.2938,3.2813,0.0,0.0,0.0,0.0,0.0,0.0,0.0,0.0,0.0,0.0,0.0,0.0,0.0,0.0,0.0,0.0,0.0,0.0,0.0,0.0,0.0,0.0,0.0,0.0,0.0,0.0,0.0,0.0,0.0,0.0,0.0,0.0,0.0,0.0,0.0,0.0,0.0,0.0,0.0,0.0,0.0,0.0,0.0,0.0,0.0,0.0,0.0,0.0,0.0,0.0,0.0,0.0,0.0,0.0,0.0,0.0,0.0,0.0,0.0,0.0,0.0,0.0,0.0,0.0,0.0,0.0,0.0,0.0,0.0,0.0,0.0,0.0,0.0,0.0,0.0,0.0,0.0,0.0,0.0,0.0,0.0,0.0,0.0,0.0,0.0,0.0,0.0,0.0,0.0,0.0,0.0,0.0,0.0,0.0,0.0,0.0,0.0,0.0,0.0,0.0,0.0,0.0,0.0,0.0,3.3617,3.3884,3.4468,3.4433,3.3398,3.3611,3.3534,3.2848,0.0,0.0,0.0,0.0,0.0,0.0,0.0,0.0,0.0,0.0,0.0,0.0,0.0,0.0,0.0,0.0,0.0,0.0,0.0,0.0,0.0,0.0,0.0,0.0,0.0,0.0,0.0,0.0,0.0,0.0,0.0,0.0,0.0,0.0,0.0,0.0,0.0,0.0,0.0,0.0,0.0,0.0,0.0,0.0,0.0,0.0,0.0,0.0,0.0,0.0,0.0,0.0,0.0,0.0,0.0,0.0,0.0,0.0,0.0,0.0,0.0,0.0,0.0,0.0,0.0,0.0,0.0,0.0,0.0,0.0,0.0,0.0,0.0,0.0,0.0,0.0,0.0,0.0,0.0,0.0,0.0,0.0,0.0,0.0,0.0,0.0,0.0,0.0,0.0,0.0,0.0,0.0,0.0,0.0,0.0,0.0,0.0,0.0,0.0,0.0,0.0,0.0,0.0,3.4365,3.4338,3.4279,3.4579,3.4488,3.3793,3.3881,3.3933,3.3793,3.3377,0.0,0.0,0.0,0.0,0.0,0.0,0.0,0.0,0.0,0.0,0.0,0.0,0.0,0.0,0.0,0.0,0.0,0.0,0.0,0.0,0.0,0.0,0.0,0.0,0.0,0.0,0.0,0.0,0.0,0.0,0.0,0.0,0.0,0.0,0.0,0.0,0.0,0.0,0.0,0.0,0.0,0.0,0.0,0.0,0.0,0.0,0.0,0.0,0.0,0.0,0.0,0.0,0.0,0.0,0.0,0.0,0.0,0.0,0.0,0.0,0.0,0.0,0.0,0.0,0.0,0.0,0.0,0.0,0.0,0.0,0.0,0.0,0.0,0.0,0.0,0.0,0.0,0.0,0.0,0.0,0.0,0.0,0.0,0.0,0.0,0.0,0.0,0.0,0.0,0.0,0.0,0.0,0.0,0.0,0.0,0.0,0.0,0.0,0.0,0.0,0.0,0.0,3.5102,3.4975,3.4668,3.4814,3.4712,3.4157,3.4228,3.4372,3.4581,3.3937,0.0,0.0,0.0,0.0,0.0,0.0,0.0,0.0,0.0,0.0,0.0,0.0,0.0,0.0,0.0,0.0,0.0,0.0,0.0,0.0,0.0,0.0,0.0,0.0,0.0,0.0,0.0,0.0,0.0,0.0,0.0,0.0,0.0,0.0,0.0,0.0,0.0,0.0,0.0,0.0,0.0,0.0,0.0,0.0,0.0,0.0,0.0,0.0,0.0,0.0,0.0,0.0,0.0,0.0,0.0,0.0,0.0,0.0,0.0,0.0,0.0,0.0,0.0,0.0,0.0,0.0,0.0,0.0,0.0,0.0,0.0,0.0,0.0,0.0,0.0,0.0,0.0,0.0,0.0,0.0,0.0,0.0,0.0,0.0,0.0,0.0,0.0,0.0,0.0,0.0,0.0,0.0,0.0,0.0,0.0,0.0,0.0,0.0,0.0,0.0,0.0,0.0,3.5111,3.5097,3.5066,3.5735,3.5716,3.4569,3.486,3.4975,3.4616,3.4197,0.0,0.0,0.0,0.0,0.0,0.0,0.0,0.0,0.0,0.0,0.0,0.0,0.0,0.0,0.0,0.0,0.0,0.0,0.0,0.0,0.0,0.0,0.0,0.0,0.0,0.0,0.0,0.0,0.0,0.0,0.0,0.0,0.0,0.0,0.0,0.0,0.0,0.0,0.0,0.0,0.0,0.0,0.0,0.0,0.0,0.0,0.0,0.0,0.0,0.0,0.0,0.0,0.0,0.0,0.0,0.0,0.0,0.0,0.0,0.0,0.0,0.0,0.0,0.0,0.0,0.0,0.0,0.0,0.0,0.0,0.0,0.0,0.0,0.0,0.0,0.0,0.0,0.0,0.0,0.0,0.0,0.0,0.0,0.0,0.0,0.0,0.0,0.0,0.0,0.0,0.0,0.0,0.0,0.0,0.0,0.0,0.0,0.0,0.0,0.0,0.0,0.0,3.5991,3.5734,3.5445,3.5679,3.5692,3.5227,3.5353,3.5501,3.5642,0.0,0.0,0.0,0.0,0.0,0.0,0.0,0.0,0.0,0.0,0.0,0.0,0.0,0.0,0.0,0.0,0.0,0.0,0.0,0.0,0.0,0.0,0.0,0.0,0.0,0.0,0.0,0.0,0.0,0.0,0.0,0.0,0.0,0.0,0.0,0.0,0.0,0.0,0.0,0.0,0.0,0.0,0.0,0.0,0.0,0.0,0.0,0.0,0.0,0.0,0.0,0.0,0.0,0.0,0.0,0.0,0.0,0.0,0.0,0.0,0.0,0.0,0.0,0.0,0.0,0.0,0.0,0.0,0.0,0.0,0.0,0.0,0.0,0.0,0.0,0.0,0.0,0.0,0.0,0.0,0.0,0.0,0.0,0.0,0.0,0.0,0.0,0.0,0.0,0.0,0.0,0.0,0.0,0.0,0.0,0.0,0.0,0.0,0.0,0.0,0.0,0.0,3.6731,3.6346,3.5958,3.5633,3.56,3.5588,3.5571,3.5571,3.5767,3.6199,0.0,0.0,0.0,0.0,0.0,0.0,0.0,0.0,0.0,0.0,0.0,0.0,0.0,0.0,0.0,0.0,0.0,0.0,0.0,0.0,0.0,0.0,0.0,0.0,0.0,0.0,0.0,0.0,0.0,0.0,0.0,0.0,0.0,0.0,0.0,0.0,0.0,0.0,0.0,0.0,0.0,0.0,0.0,0.0,0.0,0.0,0.0,0.0,0.0,0.0,0.0,0.0,0.0,0.0,0.0,0.0,0.0,0.0,0.0,0.0,0.0,0.0,0.0,0.0,0.0,0.0,0.0,0.0,0.0,0.0,0.0,0.0,0.0,0.0,0.0,0.0,0.0,0.0,0.0,0.0,0.0,0.0,0.0,0.0,0.0,0.0,0.0,0.0,0.0,0.0,0.0,0.0,0.0,0.0,0.0,0.0,0.0,0.0,0.0,0.0,0.0,0.0,3.6301,3.5893,3.56,3.56,3.56,3.5571,3.5503,3.5492,3.5661,0.0,0.0,0.0,0.0,0.0,0.0,0.0,0.0,0.0,0.0,0.0,0.0,0.0,0.0,0.0,0.0,0.0,0.0,0.0,0.0,0.0,0.0,0.0,0.0,0.0,0.0,0.0,0.0,0.0,0.0,0.0,0.0,0.0,0.0,0.0,0.0,0.0,0.0,0.0,0.0,0.0,0.0,0.0,0.0,0.0,0.0,0.0,0.0,0.0,0.0,0.0,0.0,0.0,0.0,0.0,0.0,0.0,0.0,0.0,0.0,0.0,0.0,0.0,0.0,0.0,0.0,0.0,0.0,0.0,0.0,0.0,0.0,0.0,0.0,0.0,0.0,0.0,0.0,0.0,0.0,0.0,0.0,0.0,0.0,0.0,0.0,0.0,0.0,0.0,0.0,0.0,0.0,0.0,0.0,0.0,0.0,0.0,0.0,0.0,0.0,0.0,0.0,0.0,3.6301,3.5893,3.56,3.56,3.5549,3.5543,3.5571,3.552,3.5577,3.5739,0.0,0.0,0.0,0.0,0.0,0.0,0.0,0.0,0.0,0.0,0.0,0.0,0.0,0.0,0.0,0.0,0.0,0.0,0.0,0.0,0.0,0.0,0.0,0.0,0.0,0.0,0.0,0.0,0.0,0.0,0.0,0.0,0.0,0.0,0.0,0.0,0.0,0.0,0.0,0.0,0.0,0.0,0.0,0.0,0.0,0.0,0.0,0.0,0.0,0.0,0.0,0.0,0.0,0.0,0.0,0.0,0.0,0.0,0.0,0.0,0.0,0.0,0.0,0.0,0.0,0.0,0.0,0.0,0.0,0.0,0.0,0.0,0.0,0.0,0.0,0.0,0.0,0.0,0.0,0.0,0.0,0.0,0.0,0.0,0.0,0.0,0.0,0.0,0.0,0.0,0.0,0.0,0.0,0.0,0.0,0.0,0.0,0.0,0.0,0.0,0.0,0.0,3.6023,3.5761,3.56,3.56,3.5543,3.5486,3.5481,3.5378,3.536,3.5401,0.0,0.0,0.0,0.0,0.0,0.0,0.0,0.0,0.0,0.0,0.0,0.0,0.0,0.0,0.0,0.0,0.0,0.0,0.0,0.0,0.0,0.0,0.0,0.0,0.0,0.0,0.0,0.0,0.0,0.0,0.0,0.0,0.0,0.0,0.0,0.0,0.0,0.0,0.0,0.0,0.0,0.0,0.0,0.0,0.0,0.0,0.0,0.0,0.0,0.0,0.0,0.0,0.0,0.0,0.0,0.0,0.0,0.0,0.0,0.0,0.0,0.0,0.0,0.0,0.0,0.0,0.0,0.0,0.0,0.0,0.0,0.0,0.0,0.0,0.0,0.0,0.0,0.0,0.0,0.0,0.0,0.0,0.0,0.0,0.0,0.0,0.0,0.0,0.0,0.0,0.0,0.0,0.0,0.0,0.0,0.0,0.0,0.0,0.0,0.0,0.0,0.0,3.56,3.56,3.56,3.56,3.5532,3.5446,3.5343,3.5198,3.5128,3.5128,0.0,0.0,0.0,0.0,0.0,0.0,0.0,0.0,0.0,0.0,0.0,0.0,0.0,0.0,0.0,0.0,0.0,0.0,0.0,0.0,0.0,0.0,0.0,0.0,0.0,0.0,0.0,0.0,0.0,0.0,0.0,0.0,0.0,0.0,0.0,0.0,0.0,0.0,0.0,0.0,0.0,0.0,0.0,0.0,0.0,0.0,0.0,0.0,0.0,0.0,0.0,0.0,0.0,0.0,0.0,0.0,0.0,0.0,0.0,0.0,3.2077,0.0,0.0,0.0,0.0,0.0,0.0,0.0,0.0,0.0,0.0,0.0,0.0,0.0,0.0,0.0,0.0,0.0,0.0,0.0,0.0,0.0,0.0,0.0,0.0,0.0,0.0,0.0,0.0,0.0,0.0,0.0,0.0,0.0,0.0,0.0,0.0,0.0,0.0,0.0,0.0,0.0,3.56,3.56,3.56,3.56,3.5463,3.536,3.5457,3.5326,3.5256,3.5256,3.5389,0.0,0.0,0.0,0.0,0.0,0.0,0.0,0.0,0.0,0.0,0.0,0.0,0.0,0.0,0.0,0.0,0.0,0.0,0.0,0.0,0.0,0.0,0.0,0.0,0.0,0.0,0.0,0.0,0.0,0.0,0.0,0.0,0.0,0.0,0.0,0.0,0.0,0.0,0.0,0.0,0.0,0.0,0.0,0.0,0.0,0.0,0.0,0.0,0.0,0.0,0.0,0.0,0.0,0.0,0.0,0.0,0.0,0.0,0.0,0.0,3.275,0.0,0.0,0.0,0.0,0.0,0.0,0.0,0.0,0.0,0.0,0.0,0.0,0.0,0.0,0.0,0.0,0.0,0.0,0.0,0.0,0.0,0.0,0.0,0.0,0.0,0.0,0.0,0.0,0.0,0.0,0.0,0.0,0.0,0.0,0.0,0.0,0.0,0.0,0.0,0.0,3.5549,3.5492,3.5458,3.5458,3.5297,3.5233,3.5291,3.517,3.5116,3.5116,3.5233,0.0,0.0,0.0,0.0,0.0,0.0,0.0,0.0,0.0,0.0,0.0,0.0,0.0,0.0,0.0,0.0,0.0,0.0,0.0,0.0,0.0,0.0,0.0,0.0,0.0,0.0,0.0,0.0,0.0,0.0,0.0,0.0,0.0,0.0,0.0,0.0,0.0,0.0,0.0,0.0,0.0,0.0,0.0,0.0,0.0,0.0,0.0,0.0,0.0,0.0,0.0,0.0,0.0,3.2759,3.2771,3.3184,3.2828,3.3208,3.4143,3.3567,3.3339,3.3361,3.3487,0.0,0.0,0.0,0.0,0.0,0.0,0.0,0.0,0.0,0.0,0.0,0.0,0.0,0.0,0.0,0.0,0.0,0.0,0.0,0.0,0.0,0.0,0.0,0.0,3.5163,3.5105,0.0,0.0,0.0,0.0,0.0,0.0,0.0,0.0,0.0,0.0,0.0,0.0,3.5469,3.5377,3.5291,3.5291,3.5187,3.5088,3.5088,3.4994,3.4923,3.4899,3.5029,3.5088,0.0,0.0,0.0,0.0,0.0,0.0,0.0,0.0,0.0,0.0,0.0,0.0,0.0,0.0,0.0,0.0,0.0,0.0,0.0,0.0,0.0,0.0,0.0,0.0,0.0,0.0,0.0,0.0,0.0,0.0,0.0,0.0,3.2144,3.285,0.0,0.0,0.0,0.0,0.0,0.0,0.0,0.0,0.0,0.0,0.0,0.0,0.0,3.3836,3.499,3.4362,3.4039,3.4039,3.3904,3.3884,3.397,3.4359,3.4627,3.4774,3.4686,0.0,3.4828,3.484,0.0,0.0,0.0,0.0,0.0,0.0,0.0,0.0,0.0,0.0,0.0,0.0,0.0,0.0,0.0,0.0,0.0,0.0,0.0,0.0,0.0,0.0,3.4982,3.5088,3.5018,3.4935,0.0,3.514,3.5303,3.5314,3.5343,0.0,0.0,0.0,0.0,0.0,0.0,0.0,3.5337,3.5303,3.5291,3.5291,3.5187,3.5088,3.5088,3.5076,3.5018,3.4911,3.5029,3.5088,3.5088,3.5128,0.0,0.0,0.0,0.0,0.0,0.0,0.0,0.0,0.0,0.0,0.0,0.0,0.0,0.0,0.0,0.0,0.0,0.0,0.0,0.0,0.0,0.0,0.0,0.0,0.0,0.0,0.0,0.0,0.0,3.2536,3.2824,3.326,3.3241,3.3382,0.0,0.0,0.0,0.0,0.0,0.0,0.0,0.0,0.0,3.4168,3.3932,3.406,3.4618,3.5013,3.5045,3.4715,3.5095,3.546,3.5788,3.5676,3.5818,3.6141,3.6141,3.6166,3.6177,3.5414,3.5175,3.528,0.0,0.0,0.0,0.0,3.5389,3.5377,3.5233,3.5187,0.0,3.5187,0.0,0.0,0.0,0.0,0.0,0.0,0.0,0.0,0.0,0.0,0.0,3.4994,3.4947,3.4899,3.4899,3.5314,3.5588,0.0,3.5245,3.5314,3.5389,0.0,0.0,0.0,0.0,3.5256,3.5198,3.5128,3.5081,3.5081,3.5018,3.4982,3.4982,3.4982,3.4958,3.4911,3.4958,3.4982,3.4982,3.5053,3.5163,0.0,0.0,0.0,0.0,0.0,0.0,0.0,0.0,0.0,0.0,0.0,0.0,0.0,0.0,0.0,0.0,0.0,0.0,0.0,0.0,0.0,0.0,0.0,0.0,0.0,0.0,0.0,0.0,3.3517,3.3547,3.3889,3.3644,3.3723,0.0,0.0,0.0,0.0,0.0,0.0,3.4545,3.4093,3.4012,3.4383,3.4448,3.4446,3.4375,3.5163,3.5341,3.4902,3.5454,3.5956,3.6378,3.6093,3.6186,3.662,3.662,3.662,3.6548,3.5885,3.563,3.5666,3.5778,3.5825,3.586,3.5813,3.5813,3.5773,3.5438,3.5324,3.5307,3.5108,0.0,3.5115,3.5427,0.0,0.0,0.0,0.0,3.5778,3.5659,3.5607,3.5583,3.5486,3.5462,3.5462,3.5462,3.5917,3.612,0.0,3.5561,3.5766,3.5801,0.0,0.0,0.0,0.0,3.5659,3.5623,3.5523,3.5462,3.5462,3.5462,3.5462,3.5462,3.5462,3.5379,3.5197,3.5181,3.5098,3.4911,3.4994,3.5065,3.5088,0.0,0.0,0.0,0.0,0.0,0.0,0.0,0.0,0.0,0.0,0.0,0.0,0.0,0.0,0.0,0.0,0.0,0.0,0.0,0.0,0.0,0.0,0.0,0.0,0.0,0.0,0.0,0.0,0.0,3.5278,3.4667,0.0,0.0,0.0,0.0,3.4419,3.3928,3.4032,3.5018,3.4683,3.4606,3.4949,3.514,3.5201,3.5149,3.4638,3.4364,3.4334,3.4381,3.4411,3.4469,3.5002,3.5258,3.5301,3.5301,3.5301,3.5383,3.6538,3.7078,3.7191,3.7191,3.7282,3.738,3.724,3.7203,3.7078,3.624,3.5955,3.5839,3.5143,3.4911,3.5067,3.5901,3.6154,0.0,0.0,3.7203,3.7166,3.704,3.7003,3.7003,3.699,3.699,3.699,3.699,3.7124,3.6974,0.0,3.6535,3.7053,3.7178,0.0,3.7203,3.7203,3.7191,3.7141,3.7028,3.6986,3.699,3.699,3.699,3.699,3.699,3.699,3.6688,3.5992,3.5943,3.5628,3.4932,3.4911,3.497,3.5088,3.5116,0.0,0.0,0.0,0.0,0.0,0.0,0.0,0.0,0.0,0.0,0.0,0.0,0.0,0.0,0.0,0.0,0.0,0.0,0.0,0.0,0.0,0.0,0.0,0.0,0.0,0.0,0.0,0.0,3.4276,3.3932,0.0,3.3865,3.3668,3.3776,3.4361,3.3861,3.3844,3.4551,3.4119,3.4072,3.454,3.4618,3.4846,3.5252,3.5909,3.624,3.6307,3.7126,3.7528,3.7513,3.7727,3.7834,3.7834,3.7834,3.7834,3.7879,3.8327,3.7488,3.5948,3.5948,3.6216,3.66,3.6548,3.6798,3.7119,3.6816,3.6721,3.6671,3.6394,3.6324,3.6373,3.6688,3.6783,3.6833,3.7099,3.7165,3.7169,3.7102,3.7089,3.7089,3.7089,3.7089,3.7089,3.7089,3.7509,3.7787,3.7483,3.7302,3.7219,3.7182,3.7165,3.7165,3.7165,3.7165,3.714,3.7119,3.7089,3.7089,3.7089,3.7089,3.7089,3.7089,3.7089,3.699,3.6709,3.6721,3.639,3.5644,3.5611,3.5404,3.4987,3.497,3.5076,0.0,0.0,0.0,0.0,0.0,0.0,0.0,0.0,0.0,0.0,0.0,0.0,0.0,0.0,0.0,0.0,0.0,0.0,0.0,0.0,0.0,0.0,0.0,0.0,0.0,3.4078,3.3937,3.3944,3.3609,3.3531,3.3873,3.3668,3.3732,3.4309,3.4043,3.4167,3.4898,3.4851,3.4972,3.5293,3.5554,3.5784,3.6022,3.6892,3.737,3.741,3.8249,3.866,3.866,3.866,3.866,3.866,3.866,3.866,3.866,3.866,3.7591,3.598,3.6412,3.6835,3.7221,3.7459,3.7823,3.8205,3.8216,3.8046,3.7831,3.7831,3.7831,3.788,3.8146,3.8212,3.8261,3.848,3.8546,3.8546,3.8546,3.8546,3.8546,3.8546,3.8546,3.8546,3.8546,3.8927,3.9275,3.9275,3.8575,3.795,3.786,3.7831,3.793,3.8179,3.7996,3.793,3.8179,3.7996,3.7831,3.7831,3.7831,3.7831,3.7831,3.7831,3.7731,3.75,3.747,3.7139,3.6394,3.6373,3.6166,3.5717,3.5464,3.5302,3.5233,0.0,0.0,0.0,0.0,0.0,0.0,0.0,0.0,0.0,0.0,0.0,0.0,0.0,0.0,0.0,0.0,0.0,0.0,0.0,0.0,0.0,0.0,0.0,3.3575,3.3472,3.3691,3.4471,3.389,3.3689,3.4437,3.3925,3.3789,3.4327,3.4515,3.5063,3.6176,3.6987,3.7365,3.7317,3.801,3.808,3.7464,3.7464,3.7477,3.7524,3.7524,3.7524,3.7524,3.7524,3.7524,3.7524,3.7524,3.7524,3.7524,3.7524,3.7524,3.7629,3.8788,3.9251,3.9361,4.007,4.0358,4.0367,4.0365,3.9893,3.9311,3.9311,3.9311,3.943,4.0142,4.0373,4.0506,4.1139,4.1338,4.1338,4.1366,4.1366,4.1366,4.1411,4.138,4.1366,4.1366,4.1352,4.1338,4.1338,4.0227,3.9311,3.9338,3.9338,3.9573,4.0257,3.9761,0.0,4.0274,3.9745,3.9311,3.9338,3.9338,3.9338,3.9305,3.9305,3.8994,3.8239,3.8206,3.7888,3.7156,3.7122,3.7182,3.7282,3.6595,3.5878,3.5171,0.0,0.0,0.0,0.0,0.0,0.0,0.0,0.0,0.0,0.0,0.0,0.0,0.0,0.0,0.0,0.0,0.0,0.0,0.0,0.0,0.0,3.3898,3.349,3.3531,3.3452,3.3508,3.3766,3.3622,3.3728,3.4423,3.4763,3.5209,3.5837,3.6322,3.6747,3.7047,3.7278,3.7391,3.7374,3.7571,3.8058,3.8838,3.8853,3.9349,4.031,4.031,4.031,4.031,4.031,4.031,4.031,4.031,4.031,4.031,4.031,4.031,4.0134,3.8553,3.8217,3.8675,3.8885,3.9235,3.961,3.9603,3.9472,3.9296,3.9296,3.9296,3.9344,3.9536,3.96,3.9632,3.9839,3.9887,4.001,4.0537,4.0671,4.0789,4.1281,4.1035,4.0668,4.0668,4.0251,3.9887,3.9887,3.9552,3.9477,4.0011,4.01,3.999,3.9644,3.9424,0.0,3.9583,3.9424,3.9507,4.0038,4.0098,3.9901,3.9408,3.9373,3.9065,3.8318,3.8269,3.8152,3.7904,3.7901,3.7661,3.7153,3.7053,3.6891,0.0,0.0,0.0,0.0,0.0,0.0,0.0,0.0,0.0,0.0,0.0,0.0,0.0,0.0,0.0,0.0,0.0,0.0,0.0,0.0,0.0,0.0,3.3725,3.3707,3.4256,3.3816,3.3652,3.4265,3.4337,3.4696,3.564,3.6073,3.6462,3.6851,3.7464,3.7943,3.821,3.8494,3.8796,3.9065,3.908,3.9454,4.0232,4.0247,4.0621,4.1403,4.1403,4.1403,4.1403,4.1403,4.1403,0.0,4.1403,4.1403,4.1403,4.1403,4.1403,0.0,0.0,0.0,0.0,0.0,4.0063,4.0591,4.0323,4.0213,4.0213,4.0213,4.0213,4.0213,4.0213,4.0213,4.0213,4.0213,4.0213,4.0325,4.0751,4.0861,4.097,4.1353,4.1138,4.086,4.086,4.0515,4.0213,4.0213,0.0,0.0,4.042,4.0163,3.9907,3.9787,3.9503,3.9409,3.9724,3.9487,3.9471,3.9887,3.9933,3.9788,3.9387,3.9355,0.0,0.0,0.0,3.8312,3.8239,3.8576,0.0,0.0,0.0,3.7582,3.7219,0.0,0.0,0.0,3.637,3.6459,0.0,0.0,0.0,0.0,0.0,0.0,0.0,0.0,0.0,0.0,0.0,0.0,0.0,0.0,0.0,0.0,3.3757,3.4188,3.5534,3.4696,3.4382,3.5579,3.5714,3.6193,3.7404,3.7584,3.7656,3.7716,3.8362,3.899,3.9586,0.0,0.0,0.0,0.0,4.1433,4.1508,4.1508,4.1553,4.1613,4.1613,4.1613,4.1613,4.1613,4.1613,4.1613,4.1613,4.1613,4.1613,4.1613,4.1613,4.1613,4.1463,4.1403,4.1389,4.1407,4.1819,4.2278,4.17,0.0,0.0,4.1496,4.1496,4.1496,4.1496,4.1496,4.1496,4.1496,4.1496,4.1513,4.1579,4.1613,4.1614,4.1713,4.1663,4.1613,4.1613,4.1546,4.1496,4.1496,4.1496,4.1294,4.0709,3.994,3.9628,4.0207,3.972,3.9547,4.0207,3.972,3.9344,3.9424,0.0,0.0,3.933,3.9314,3.9062,3.8433,3.8463,3.8434,3.8327,3.907,3.9083,3.8223,3.8402,3.8109,3.735,3.735,3.7414,3.754,3.7622,3.7732,0.0,0.0,0.0,0.0,0.0,0.0,0.0,0.0,0.0,0.0,0.0,0.0,0.0,0.0,0.0,3.5615,3.5393,3.5564,3.6849,3.6821,3.6746,3.7,3.7028,3.7345,3.8123,3.8706,3.9227,3.9783,4.0445,4.0879,4.1014,4.1149,4.1268,4.1403,4.1403,4.1658,4.2201,4.2216,4.2451,4.2936,0.0,0.0,4.2936,4.2936,4.2936,4.2936,4.2936,4.2936,4.2936,4.2936,4.2936,4.2831,4.1788,4.1403,4.1392,4.1408,4.1497,4.1578,4.1457,4.1412,4.1412,4.1412,4.1412,4.1412,4.1412,4.1412,0.0,4.1412,4.1412,4.1525,4.2094,4.2237,4.2381,4.2961,4.2663,4.2237,4.2237,4.1802,4.1412,4.1412,4.1412,4.139,4.1242,4.0687,4.0107,3.9667,3.9471,3.9441,3.9594,3.9471,3.9608,4.0197,4.0265,4.005,3.9508,3.9462,3.9151,3.8439,3.8873,3.8903,3.839,3.8996,3.9001,3.8298,3.8836,3.9043,3.8871,3.8871,3.8937,3.9051,3.792,3.7518,0.0,0.0,0.0,0.0,0.0,0.0,0.0,0.0,0.0,0.0,0.0,3.479,3.4092,0.0,3.5508,3.5852,3.621,3.6791,3.7764,3.8197,3.827,3.7943,3.8212,3.8658,3.9334,4.0008,4.0531,4.0894,4.1209,4.1553,4.1867,4.1897,4.2047,4.2342,4.2245,4.2409,4.2851,4.2757,4.2902,4.329,4.329,4.329,4.329,4.321,4.3135,4.3135,4.3135,4.3135,4.3155,4.327,4.329,4.325,4.2592,4.2357,4.2312,4.2002,4.1897,4.1837,4.1508,4.1403,4.1403,4.1403,4.1403,4.1403,4.1403,4.1403,4.1403,4.1403,4.1403,4.1483,4.1808,4.1901,4.1997,4.2367,4.2163,4.1901,4.1901,4.1637,4.1403,4.1403,4.1403,4.1403,4.1403,4.115,4.0719,4.0018,3.9616,3.9406,3.9406,3.9406,3.9535,3.9915,3.995,3.9813,3.948,3.9148,3.8781,3.8413,3.8681,3.8713,3.8402,3.898,3.9305,3.935,3.9683,4.001,4.0348,4.0348,4.039,4.0428,3.9697,3.915,0.0,0.0,0.0,0.0,0.0,0.0,0.0,3.3896,3.4223,3.3622,3.4531,3.5107,3.4089,3.5317,3.6416,3.611,3.6926,3.7868,3.8676,3.926,3.9454,3.9038,3.9454,4.0008,4.0531,4.1209,4.1583,4.1583,4.1703,4.2002,4.2541,4.2551,4.2751,4.3235,4.3036,4.309,4.3364,4.3224,4.3283,4.3558,4.3558,4.3558,4.3558,4.3367,4.3306,4.3306,4.3306,4.3306,4.3326,4.3523,4.3543,4.3444,4.3484,4.3409,4.325,4.2765,4.2571,4.2496,4.1972,4.1758,4.1758,4.1758,4.1758,4.1758,4.1758,4.1758,4.1758,4.1758,4.1758,4.1758,4.1758,4.1758,4.1758,4.1758,4.1758,4.1758,4.1758,4.1758,4.1758,4.1758,4.1758,4.1758,4.1758,4.1673,4.1373,4.0696,4.0142,3.978,3.978,3.9675,3.9586,3.9586,3.9481,3.9406,3.9406,3.8901,3.8586,3.8586,3.858,3.8551,3.8413,3.912,3.9676,3.9996,4.0267,4.0595,4.099,4.1136,4.121,4.121,4.1338,4.0989,3.3417,3.3521,3.3469,3.2855,3.3115,3.337,0.0,3.314,3.3608,3.3517,3.457,3.5442,3.5312,3.6377,3.7443,3.799,3.82,3.8739,3.9993,4.0247,4.0472,4.0999,4.1134,4.1209,4.1283,4.1882,4.2291,4.2291,4.2791,4.313,4.3205,4.3031,4.2961,4.3021,4.285,4.3044,4.3649,4.3629,4.3894,4.4461,4.4461,4.4461,4.4461,4.444,4.4419,4.4419,4.4419,4.4419,4.444,4.4706,4.4463,4.3942,4.4131,4.3818,4.329,4.322,4.3205,4.319,4.3115,4.31,4.31,4.31,4.31,4.31,4.31,4.31,4.31,4.31,4.31,4.31,4.31,4.31,4.31,4.31,4.31,4.31,4.31,4.31,4.31,4.31,4.31,4.31,4.31,4.2641,4.2066,4.1388,4.1224,4.1179,4.1179,4.0651,4.0292,4.0292,3.9768,3.9406,3.9406,3.9331,3.9287,3.9287,3.9284,3.9022,3.8425,3.9608,3.9752,3.8642,3.9796,4.01,3.9548,4.0177,4.0509,4.0524,4.1124,4.1443,3.2282,3.2616,3.2895,3.2614,3.3013,3.3425,3.3156,3.3589,3.4203,3.4577,3.5415,3.6193,3.6552,3.736,3.8063,3.8365,3.905,3.9753,4.0322,4.1074,4.1658,4.1961,4.2282,4.2372,4.2036,4.2458,4.2753,4.2753,4.2867,4.295,4.295,4.324,4.3421,4.3421,4.3549,4.381,4.4236,4.4103,4.4221,4.4598,4.4598,4.4598,4.4598,4.4471,4.4422,4.4422,4.4422,4.4492,4.4619,4.4725,4.4598,4.4347,4.4436,4.4294,4.4009,4.3494,4.329,4.329,4.329,4.329,4.329,4.329,4.329,4.329,4.329,4.329,4.329,4.329,4.329,4.329,4.329,4.329,4.329,4.329,4.329,4.329,4.329,4.329,4.329,4.329,4.329,4.329,4.329,4.3085,4.2836,4.2551,4.1863,4.1403,4.1403,4.1164,4.0965,4.0965,4.0382,3.9975,3.9975,3.9616,3.9406,3.9406,3.9406,3.9272,3.899,3.9525,3.9753,3.9614,4.0167,4.0721,4.1228,4.1541,4.1879,4.2272,4.2554,4.2732,3.1989,3.2407,3.2781,3.2781,3.3275,3.3784,3.3784,3.4443,3.5191,3.5669,3.6432,3.7167,3.7599,3.8212,3.8736,3.8916,3.9768,4.0531,4.0909,4.1777,4.247,4.2631,4.2986,4.3036,4.2612,4.2828,4.2975,4.2915,4.2952,4.2968,4.2968,4.354,4.3866,4.3866,4.4095,4.436,4.4692,4.4535,4.4623,4.4971,4.4971,4.4971,4.495,4.4813,4.4727,4.4727,4.4727,4.4835,4.4957,4.5021,4.494,4.4778,4.4857,4.476,4.4522,4.3887,4.3666,4.3637,4.3533,4.3494,4.3469,4.333,4.329,4.329,4.329,4.329,4.329,4.329,4.329,4.329,4.329,4.329,4.329,4.329,4.329,4.329,4.329,4.329,4.329,4.329,4.329,4.329,4.329,4.329,4.329,4.329,4.2502,4.1923,4.1923,4.1777,4.1598,4.1418,4.0969,4.0666,4.0666,4.0232,3.987,3.969,3.9675,3.9586,3.9406,3.9607,3.9862,4.0198,4.0391,4.0907,4.1722,4.211,4.2554,4.3035,4.3417,4.3598,3.326,3.344,3.3469,3.3469,3.3979,3.4458,3.4458,3.5491,3.6449,3.6464,3.7481,3.8365,3.838,3.8931,3.9571,4.0232,4.0367,4.0846,4.2171,4.2366,4.2616,4.3205,4.312,4.3001,4.2986,4.3001,4.2915,4.2729,4.3307,4.3676,4.3676,4.407,4.4279,4.4279,4.4094,4.4291,4.4894,4.4872,4.5206,4.5867,4.5867,4.5867,4.5867,4.5845,4.5845,4.5845,4.5845,4.5845,4.5867,4.6077,4.5764,4.5208,4.5462,4.5173,4.4604,4.4575,4.456,4.4493,4.4101,4.3976,4.3913,4.3439,4.329,4.329,4.329,4.329,4.329,4.329,4.329,4.329,4.329,4.329,4.329,4.329,4.329,4.329,4.329,4.329,4.329,4.329,4.329,4.329,4.329,4.329,4.329,4.329,4.326,4.323,4.323,4.2716,4.2126,4.1463,4.1388,4.1373,4.1373,4.1343,4.1074,4.0412,4.0367,4.0083,3.9436,4.0076,4.0128,3.946,4.0143,4.0163,3.9499,4.0873,4.1542,4.1591,4.2974,4.3598,3.344,3.3829,3.4158,3.4158,3.4997,3.5835,3.5835,3.6493,3.7225,3.7676,3.811,3.8679,3.9559,3.9559,3.9765,4.0876,4.1074,4.1373,4.2276,4.2618,4.2862,4.3086,4.2915,4.2749,4.2607,4.2602,4.2737,4.306,4.3169,4.3428,4.388,4.4407,4.4705,4.4705,4.5054,4.5366,4.5547,4.5547,4.5685,4.5903,4.5903,4.5903,4.5903,4.5903,4.5903,4.5903,4.5903,4.5903,4.5903,4.597,4.5862,4.5673,4.5762,4.5675,4.5471,4.5471,4.5471,4.5391,4.4841,4.454,4.4433,4.4583,4.4544,4.4461,4.4585,4.4631,4.4631,4.4631,4.4311,4.3967,4.3967,4.3638,4.329,4.329,4.329,4.329,4.329,4.329,4.329,4.329,4.329,4.329,4.329,4.329,4.329,4.329,4.329,4.329,4.329,4.3115,4.2906,4.2681,4.2301,4.2066,4.2066,4.1658,4.1298,4.1089,4.1074,4.0969,4.0726,4.0971,4.0974,4.073,4.0956,4.1198,4.1401,4.2402,4.312,4.3587,4.46,4.5069,3.4143,3.4517,3.4922,3.5146,3.5865,3.6568,3.6761,3.73,3.7883,3.8302,3.8586,3.902,3.9888,3.969,3.9825,4.1194,4.1403,4.1683,4.2488,4.2828,4.2975,4.2895,4.2708,4.2541,4.2412,4.2535,4.278,4.3167,4.3498,4.3863,4.4284,4.493,4.5264,4.5264,4.5685,4.5903,4.5903,4.5903,4.5903,4.5903,4.5903,4.5903,4.5903,4.5903,4.5903,4.5903,4.5903,4.5903,4.5903,4.5903,4.5903,4.5903,4.5903,4.5903,4.5903,4.5903,4.5903,4.5825,4.5248,4.4952,4.4843,4.4988,4.4956,4.4887,4.4998,4.5117,4.52,4.52,4.4928,4.4661,4.4661,4.4326,4.4012,4.4012,4.4012,4.4012,4.4012,4.3833,4.3668,4.3668,4.3454,4.329,4.329,4.329,4.329,4.329,4.329,4.329,4.329,4.329,4.329,4.329,4.2955,4.272,4.272,4.2327,4.1983,4.1762,4.1747,4.1643,4.1403,4.1403,4.1403,4.1403,4.1403,4.1599,4.2034,4.2802,4.3404,4.3838,4.4608,4.5113,3.5325,3.5534,3.5699,3.6344,3.6553,3.6746,3.733,3.7973,3.8437,3.8437,3.896,3.9406,3.9451,3.9421,3.984,4.1205,4.1399,4.1756,4.2822,4.2975,4.2895,4.2708,4.2514,4.2407,4.2415,4.2798,4.305,4.3079,0.0,4.4915,4.4959,4.5554,4.5903,4.5903,4.5903,4.5903,4.5903,4.5903,4.5903,4.5903,4.5903,4.5903,4.5903,4.5903,4.5903,4.5903,4.5903,4.5903,4.5903,4.5903,4.5903,4.5903,4.5903,4.5903,4.5903,4.5903,4.5903,4.5838,4.539,4.5237,4.5179,4.4807,4.4701,4.4686,4.4701,4.4885,4.5075,4.5075,4.5192,4.5328,4.5349,4.5319,4.5269,4.5289,4.5289,4.5304,4.5289,4.479,4.4341,4.4341,4.3818,4.3349,4.3349,4.3319,4.329,4.329,4.329,4.329,4.329,4.329,4.329,4.329,4.329,4.329,4.329,4.329,4.3055,4.2485,4.2455,4.2152,4.1523,4.1508,4.1508,4.1508,4.1508,4.1508,4.1493,4.2178,4.2514,4.2532,4.3269,4.4017,3.5459,3.5863,3.6299,3.6464,3.7212,3.796,3.8125,3.8661,3.9137,3.9137,3.9272,3.9556,4.0053,3.9735,3.9934,4.1577,4.1469,4.154,4.2632,4.2662,4.252,4.2479,4.2304,4.2349,4.28,4.3397,4.3921,4.4371,4.4727,4.5133,4.5627,4.5816,4.5903,4.5903,4.5903,4.5903,4.5903,4.5903,4.5903,4.5903,4.5903,4.5903,4.5903,4.5903,4.5903,4.5903,4.5903,4.5903,4.5903,4.5903,4.5903,4.5903,4.5903,4.5903,4.5903,4.5903,4.5903,4.5888,4.5759,4.5723,4.5761,4.6021,4.5947,4.5837,4.6028,4.6137,4.6224,4.6361,4.5977,4.5607,4.5947,4.5412,4.4872,4.5206,4.52,4.5117,4.5269,4.5045,4.4864,4.5029,4.4511,4.4042,4.4042,4.3638,4.329,4.329,4.329,4.329,4.329,4.329,4.329,4.329,4.329,4.329,4.329,4.329,4.3235,4.307,4.307,4.2995,4.2816,4.2816,4.2816,4.2816,4.2816,4.2816,4.2816,4.3602,4.3965,4.3968,4.4781,4.5534,3.5863,3.6207,3.6628,3.7197,3.7871,3.8484,3.8766,3.9122,3.9406,3.9406,3.9406,3.9511,3.9903,3.9573,3.9675,4.0965,4.1047,4.1242,4.2013,4.2283,4.2372,4.2284,4.1779,4.168,4.2274,4.2546,4.291,4.3488,4.4657,4.5511,4.5888,4.5903,4.5903,4.5903,4.5903,4.5903,4.5903,4.5903,4.5903,4.5903,4.5903,4.5903,4.5903,4.5903,4.5903,4.5903,0.0,4.5903,4.5903,4.5903,4.5903,4.5903,4.5903,4.5903,4.5903,4.5903,4.5903,4.5903,4.5903,4.5903,4.5948,4.6217,4.6194,4.609,4.6239,4.6351,4.6447,4.6565,4.6329,4.6093,4.6353,4.5964,4.5553,4.5811,4.5768,4.574,4.5854,4.5546,4.5243,4.5177,4.4943,4.4751,4.4751,4.4177,4.3743,4.3743,4.3504,4.329,4.329,4.329,4.329,4.329,4.329,4.329,4.329,4.329,4.329,4.329,4.329,4.329,4.329,4.329,4.329,4.329,4.329,4.329,4.329,4.3752,4.397,4.397,4.4434,4.5058,3.6329,3.6568,3.6913,3.811,3.8484,3.8691,3.9272,3.9406,3.9406,3.9406,3.9406,3.9406,3.9406,3.9265,3.9345,3.9962,4.0463,4.092,4.1309,4.1927,4.2263,4.1953,4.1135,4.082,4.1395,4.1174,4.1263,4.189,4.4133,4.5549,4.5685,4.5685,4.5753,4.5903,4.5768,4.5768,4.5903,4.5768,4.5768,4.5903,4.5903,4.5903,4.5903,4.5903,4.5903,4.5903,4.5903,0.0,4.5903,4.5903,4.5903,4.5903,4.5903,4.5903,4.5903,4.5903,4.5903,4.5903,4.5903,4.5903,4.5903,4.5903,4.5903,4.5903,4.5903,4.6023,4.618,4.6188,4.6336,4.6528,4.6572,4.655,4.6528,4.6594,4.6572,4.6572,4.6594,4.6152,4.5635,4.5272,4.5311,4.5397,4.5439,4.4885,4.4431,4.4431,4.3938,4.3529,4.3439,4.3369,4.329,4.329,4.329,4.329,4.329,4.329,4.329,4.329,4.329,4.329,4.329,4.329,4.329,4.329,4.329,4.329,4.329,4.329,4.329,4.329,4.329,4.3728,3.6329,3.6851,3.7434,3.8215,3.8811,3.9257,3.9376,3.9406,3.9406,3.9406,3.9406,3.9406,3.9406,3.9355,3.947,3.9809,4.0344,4.0818,4.1124,4.1733,4.1835,4.0958,4.071,4.0713,4.1055,4.103,4.1439,4.2548,4.3074,4.3701,4.4536,4.4582,4.4966,4.5858,4.5049,4.5003,4.588,4.5026,4.5026,4.5903,4.5903,4.5903,4.5903,4.5903,4.5903,4.5903,4.5903,0.0,4.5903,4.5903,4.5903,4.5903,4.5903,4.5903,4.5903,4.5903,4.5903,4.5903,4.5903,4.5903,4.5903,4.5903,4.5903,4.5903,4.5903,4.5925,4.5993,4.6143,4.6113,4.6105,4.6506,4.6306,4.6127,4.6506,4.6425,4.6336,4.655,4.6506,4.6425,4.6351,4.6066,4.5924,4.61,4.5574,4.5125,4.5125,4.5035,4.4751,4.4192,4.3638,4.329,4.329,4.329,4.329,4.329,4.329,4.329,4.329,4.329,4.329,4.329,4.329,4.329,4.329,4.329,4.329,4.329,4.329,4.329,4.329,4.329,4.3728,3.6329,3.6941,3.7569,3.8227,3.8901,3.9406,3.9406,3.9122,3.8886,3.8886,3.8599,3.8464,3.8826,3.8779,3.8858,3.9221,3.9994,4.0549,4.0579,4.1453,4.1717,4.071,4.0159,3.9962,4.0144,3.9722,3.9918,4.1117,4.1196,4.1864,4.3426,4.3521,4.3748,4.427,4.3796,4.3772,4.4294,4.3772,4.3772,4.428,4.4805,4.5072,4.5095,4.564,4.5903,4.5903,4.5903,0.0,4.5903,4.5903,4.5903,4.5903,4.5903,4.5903,4.5903,4.5903,4.5903,4.5903,4.5903,4.5903,4.5903,4.5903,4.5903,4.5903,4.5903,4.5903,4.5925,4.6023,4.597,4.5948,4.6172,4.606,4.5962,4.6172,4.615,4.6068,4.6217,4.6328,4.6425,4.6572,4.6519,4.6551,4.6787,4.6256,4.5807,4.5807,4.5529,4.5185,4.487,4.4541,4.4072,4.3364,4.329,4.329,4.329,4.329,4.329,4.329,4.329,4.329,4.329,4.329,4.329,4.329,4.329,4.329,4.329,4.329,4.329,4.329,4.329,4.3512,3.6329,3.6851,3.736,3.8018,3.8691,3.9152,3.9002,3.8676,3.8365,3.823,3.7764,3.7569,3.8078,3.8144,3.8198,3.8538,3.9492,4.0193,4.0114,4.1134,4.1496,4.0439,3.9659,3.9176,3.9114,3.8444,3.8479,3.9609,3.9697,4.0516,4.2355,4.2671,4.2792,4.2792,4.2574,4.2574,4.2792,4.256,4.256,4.2816,4.3592,4.3984,4.4008,4.5072,4.5557,4.5572,4.5813,0.0,0.0,4.5903,4.5903,4.5903,4.5903,4.5903,4.5903,4.5903,4.5903,4.5903,4.5903,4.5903,4.5903,4.5903,4.5903,4.5903,4.5903,4.5903,4.5903,4.5903,4.5903,4.5903,4.5903,4.5903,4.5903,4.5903,4.5903,4.5903,4.5903,4.6023,4.6202,4.6484,4.669,4.6909,4.7164,4.6832,4.651,4.651,4.6082,4.5678,4.5529,4.5514,4.5065,4.3863,4.3609,4.3459,4.3305,4.329,4.329,4.329,4.329,4.329,4.329,4.329,4.329,4.329,4.329,4.329,4.329,4.329,4.329,4.329,4.329,4.329,3.6329,3.6553,3.6733,3.7345,3.8003,3.8332,3.7716,3.8003,3.8245,3.7629,3.7449,3.7417,3.7479,3.7828,3.805,3.7915,3.8836,3.9701,4.0056,4.0728,4.0731,3.9473,3.9241,3.8926,3.8196,3.8052,3.8479,3.9609,3.9697,4.0173,4.1294,4.2282,4.2792,4.2792,4.1864,4.1802,4.2792,4.184,4.184,4.2792,4.2889,4.2937,4.2985,4.3984,4.4452,4.4499,4.5467,0.0,0.0,4.5903,4.5903,4.5903,4.5903,4.5903,4.5903,4.5903,4.5903,4.5903,4.5903,4.5903,4.5903,4.5903,4.5903,4.5903,4.5903,4.5903,4.5903,4.5903,4.5903,4.5903,4.5903,4.5903,4.5903,4.5903,4.5903,4.5903,4.5903,4.5903,4.5993,4.6202,4.6447,4.6705,4.6909,4.7083,4.7219,4.7219,4.716,4.6905,4.6285,4.6211,4.5927,4.5185,4.4566,4.3967,4.3349,4.329,4.329,4.329,4.329,4.329,4.329,4.329,4.329,4.329,4.329,4.329,4.329,4.329,4.329,4.329,4.329,4.329,3.5833,3.6194,3.6568,3.6791,3.733,3.7734,3.7464,3.733,3.7182,3.6911,3.6537,3.6387,3.6776,3.7218,3.7558,3.7783,3.8763,3.9643,4.0041,4.067,4.0639,3.9349,3.921,3.888,3.8086,3.8002,3.8479,3.9609,3.9697,3.9865,4.0287,4.0706,4.0933,4.0933,4.0516,4.0516,4.0933,4.0516,4.0516,4.0933,4.1543,4.184,4.1876,4.2923,4.3402,4.345,4.449,0.0,0.0,4.564,4.5903,4.5903,4.5903,4.5903,4.5903,4.5903,4.5903,4.5903,4.5903,4.5903,4.5903,4.5903,4.5903,4.5903,4.5903,4.5903,4.5903,4.5903,4.5903,4.5903,4.5903,4.5903,4.5903,4.5903,4.5903,4.5903,4.5903,4.5903,4.597,4.6165,4.6425,4.6646,4.6866,4.7121,4.7309,4.7309,4.7309,4.7204,4.6929,4.6899,4.6644,4.5956,4.5304,4.4796,4.4541,4.4132,4.3908,4.3908,4.3514,4.329,4.329,4.329,4.329,4.329,4.329,4.329,4.329,4.329,4.329,4.329,4.329,4.329,3.5504,3.5848,3.6193,3.6193,3.6671,3.709,3.6881,3.6656,3.6449,3.6254,3.5833,3.5623,3.6037,3.6611,3.7115,3.7399,3.8377,3.9347,4.0007,4.0276,4.01,3.9278,3.9092,3.8734,3.8074,3.8304,3.8831,3.9634,3.9697,3.9697,3.9697,3.9697,3.9697,3.9697,3.9697,3.9697,3.9697,3.9697,3.9697,3.9723,4.0415,4.0769,4.0794,4.184,4.2317,4.2366,4.3402,0.0,0.0,4.5003,4.5444,4.5467,4.579,4.5903,4.5903,4.5903,4.5903,4.5903,4.5903,4.5903,4.5903,4.5903,4.5903,4.5903,4.5903,4.5903,4.5903,4.5903,4.5903,4.5903,4.5903,4.5903,4.5903,4.5903,4.5903,4.5903,4.5903,4.5903,4.5948,4.609,4.6314,4.6558,4.6778,4.7033,4.7207,4.7287,4.7309,4.7309,4.7309,4.7309,4.713,4.6644,4.6172,4.5723,4.5334,4.487,4.4601,4.4601,4.3967,4.3609,4.3609,4.3414,4.329,4.329,4.329,4.329,4.329,4.329,4.329,4.329,4.329,4.329,3.5504,3.5504,3.5519,3.5519,3.6013,3.6344,3.5669,3.6028,3.6314,3.5654,3.5504,3.5439,3.5245,3.6081,3.6761,3.6632,3.7518,3.8652,3.9915,3.9318,3.8853,3.9171,3.8845,3.8443,3.8051,3.9019,3.9685,3.9697,3.9697,0.0,3.9697,3.9697,3.9697,3.9697,3.9697,3.9697,3.9697,3.9697,3.9697,3.9697,3.9723,3.9723,3.9736,4.0769,4.1219,0.0,0.0,0.0,0.0,4.39,4.4312,4.4406,4.5489,4.5903,4.5903,4.5903,4.5903,4.5903,4.5903,4.5903,4.5903,4.5903,4.5903,4.5903,4.5903,4.5903,4.5903,4.5903,4.5903,4.5903,4.5903,4.5903,4.5903,4.5903,4.5903,4.5903,4.5903,4.5903,4.5903,4.5903,4.6068,4.6291,4.6572,4.6778,4.6997,4.7251,4.7309,4.7309,4.7309,4.7309,4.7309,4.7294,4.7294,4.6741,4.5409,4.5289,4.5289,4.5289,4.4661,4.4282,4.4282,4.3653,4.329,4.329,4.329,4.329,4.329,4.329,4.329,4.329,4.329,4.329,3.5385,3.5504,3.5504,3.5504,3.5669,3.5759,3.5549,3.5669,3.5759,3.5533,3.5504,3.5439,3.5245,3.6081,3.6761,3.6617,3.7499,3.8638,3.9915,3.9284,3.8818,3.9171,3.8598,3.8144,3.8014,3.9032,3.9697,3.9697,3.9697,3.9697,3.9697,3.9697,3.9697,3.9697,3.9697,3.9697,3.9697,3.9697,3.9697,3.9697,3.9697,3.9697,3.9723,4.0032,4.0173,0.0,0.0,0.0,0.0,4.2851,4.3259,4.3392,4.442,4.4805,4.4897,4.564,4.5903,4.5903,4.5903,4.5903,4.5903,4.5903,4.5903,4.5903,4.5903,4.5903,4.5903,4.5903,4.5903,4.5903,4.5903,4.5903,4.5903,4.5903,4.5903,4.5903,4.5903,4.5903,4.5903,4.5903,4.6068,4.6291,4.655,4.6756,4.6997,4.7251,4.7309,4.7309,4.7309,4.7309,4.7309,4.7309,4.7309,4.713,4.6696,4.6241,4.5971,4.5971,4.5364,4.499,4.499,4.4781,4.4446,4.3982,4.3982,4.3758,4.329,4.329,4.329,4.329,4.329,4.329,3.4952,3.531,3.5504,3.5504,3.5504,3.5504,3.5504,3.5504,3.5504,3.5504,3.5504,3.5423,3.5148,3.603,3.6743,3.6529,3.7448,3.8524,3.9447,3.8763,3.8226,3.8406,3.8173,3.809,3.8316,3.9157,3.9697,3.9697,3.9697,3.9697,3.9697,3.9697,3.9697,3.9697,3.9697,3.9697,3.9697,3.9697,3.9697,3.9697,3.9697,3.9697,3.9697,3.9697,3.9697,0.0,0.0,0.0,0.0,4.1766,4.2208,4.2306,4.3331,4.3735,4.3853,4.4911,4.5293,4.5338,4.5768,4.5903,4.5903,4.5903,4.5903,4.5903,4.5903,4.5903,4.5903,4.5903,4.5903,4.5903,4.5903,4.5903,4.5903,4.5903,4.5903,4.5903,4.5903,4.5903,4.5903,4.5903,4.5993,4.6202,4.655,4.669,4.6887,4.7244,4.7309,4.7309,4.7309,4.7309,4.7309,4.7309,4.7309,4.7309,4.7309,4.6935,4.6674,4.6674,4.6052,4.5678,4.5678,4.5424,4.5095,4.4691,4.4691,4.4461,4.4042,4.4042,4.4042,4.4042,4.4042,4.4042,0.0,3.4952,3.5504,3.5504,3.5504,3.5504,3.5504,3.5504,0.0,3.5504,3.5488,3.5374,3.5027,3.5974,3.669,3.6427,3.7447,3.8376,3.8655,3.7901,3.7312,3.7201,3.7663,3.8228,3.8831,3.9396,3.9697,3.9697,3.9697,3.9697,3.9697,3.9697,3.9697,3.9697,3.9697,3.9697,3.9697,3.9697,3.9697,3.9697,3.9697,3.9697,3.9697,3.9697,3.9697,0.0,0.0,0.0,0.0,4.0718,4.1107,4.1207,4.2282,4.2695,4.2803,4.3805,4.4195,4.4336,4.5316,4.5722,4.5813,4.588,4.5903,4.5903,4.5903,4.5903,4.5903,4.5903,4.5903,4.5903,4.5903,4.5903,4.5903,4.5903,4.5903,4.5903,4.5903,4.5903,4.5903,4.5903,4.5903,4.6038,4.6484,4.6594,4.6749,4.7186,4.7287,4.7309,4.7309,4.7309,4.7309,4.7309,4.7309,4.7309,4.7309,4.7309,4.7309,4.7309,4.6719,4.6375,4.6375,4.5783,4.5409,4.5364,4.5319,4.5289,4.5289,4.5289,4.5289,4.5289,4.5289,4.5289,3.3694,0.0,3.5504,3.5504,3.5504,3.5504,0.0,3.5504,3.5504,3.5504,3.5375,3.5345,3.5617,3.6197,3.6725,3.7019,3.813,3.8909,3.8725,3.8112,3.7557,3.7254,3.7663,3.8228,3.8831,3.9396,3.9697,3.9697,3.9697,3.9697,3.9697,3.9697,3.9697,3.9697,3.9697,3.9697,3.9697,3.9697,3.9697,3.9697,3.9697,3.9697,3.9697,3.9697,3.9697,0.0,0.0,0.0,3.9723,3.9955,4.0057,4.0147,4.1182,4.1593,4.1716,4.2754,4.3139,4.3187,4.344,4.4031,4.4805,4.564,4.5903,4.5903,4.5903,4.5903,4.5903,4.5903,4.5903,4.5903,4.5903,4.5903,4.5903,4.5903,4.5903,4.5903,4.5903,4.5903,4.5903,4.5903,4.5903,4.5993,4.6247,4.6447,4.6683,4.6953,4.7164,4.7309,4.7309,4.7309,4.7309,4.7309,4.7309,4.7309,4.7309,4.7309,4.7309,4.7309,4.716,4.7048,4.7048,4.692,4.6591,4.6076,4.5559,4.5289,4.5289,4.5289,4.5289,4.5289,4.5289,4.5289,3.3499,3.4472,3.5504,3.5504,3.5504,3.5504,3.5504,3.5504,3.5504,3.5504,3.5662,3.5811,3.5885,3.6274,3.6711,3.7226,3.7667,3.7931,3.7853,3.7445,3.7094,3.6867,3.7513,3.8128,3.8442,3.922,3.9697,3.9697,3.9697,3.9697,3.9697,3.9697,3.9697,3.9697,3.9697,3.9697,3.9697,3.9697,3.9697,3.9697,3.9697,3.9697,3.9697,3.9697,3.9697,0.0,0.0,0.0,3.9697,3.9697,3.9697,3.9736,4.0287,4.0503,4.063,4.1692,4.2086,4.2135,4.2622,4.3163,4.3725,4.428,4.4782,4.5178,4.5178,4.5512,4.5903,4.5903,4.5903,4.5903,4.5903,4.5903,4.5903,4.5903,4.5903,4.5903,4.5903,4.5903,4.5903,4.5903,4.5903,4.597,4.618,4.6314,4.6535,4.6851,4.7019,4.7164,4.7287,4.7309,4.7309,4.7309,4.7309,4.7309,4.7309,4.7309,4.7309,4.7309,4.7309,4.7309,4.7309,4.7309,4.713,4.6764,4.6411,4.6217,4.6217,4.6217,4.6217,4.6217,4.6217,4.6217,3.3499,3.4472,3.5504,3.5504,3.5504,3.5504,3.5504,3.5504,3.5518,3.5591,3.6038,3.6303,3.6006,3.6313,3.6794,3.7313,3.7047,3.6822,3.6951,3.6636,3.6443,3.6494,3.7387,3.804,3.8128,3.9082,3.9697,3.9697,3.9697,3.9697,3.9697,3.9697,3.9697,3.9697,3.9697,3.9697,3.9697,3.9697,3.9697,3.9697,3.9697,3.9697,3.9697,3.9697,3.9697,3.9697,0.0,0.0,3.9697,3.9697,3.9697,3.9697,3.9697,3.9697,3.9788,4.0642,4.0957,4.1132,4.2184,4.2574,4.2622,4.2937,4.3497,4.4102,4.4242,4.492,4.5663,4.5663,4.5768,4.5903,4.5903,4.5903,4.5903,4.5903,4.5903,4.5903,4.5903,4.5903,4.5903,4.5903,4.5903,4.5948,4.6135,4.6165,4.6321,4.6719,4.6851,4.6975,4.7207,4.7287,4.7309,4.7309,4.7309,4.7309,4.7309,4.7309,4.7309,4.7309,4.7309,4.7309,4.7309,4.7309,4.7309,4.7309,4.7309,4.7309,4.7309,4.7309,4.7309,4.7309,4.7309,4.7309,3.3499,3.4472,3.5504,3.5504,3.5504,3.5504,3.5504,3.5504,3.5605,3.601,3.6052,3.6028,3.6129,3.6714,3.7325,3.7728,3.7938,3.794,3.7687,3.6938,3.6581,3.7022,3.7613,3.8203,3.8718,3.932,3.9697,3.9697,3.9697,3.9697,3.9697,3.9697,3.9697,3.9697,3.9697,3.9697,3.9697,3.9697,3.9697,3.9697,3.9697,3.9697,3.9697,3.9697,3.9697,3.9697,0.0,3.9697,3.9697,3.9697,3.9697,3.9697,3.9697,3.9697,3.9723,3.9865,3.9929,4.0083,4.1082,4.1444,4.1728,4.3497,4.3592,4.3187,4.4055,4.4406,4.4559,4.4559,4.5201,4.5903,4.5903,4.5903,4.5903,4.5903,4.5903,4.5903,4.5903,4.5903,4.5903,4.5903,4.5903,4.5903,4.5948,4.609,4.621,4.6299,4.6653,4.6894,4.6975,4.7164,4.7309,4.7309,4.7309,4.7309,4.7309,4.7309,4.7309,4.7309,4.7309,4.7309,4.7309,4.7309,4.7309,4.7309,4.7309,4.7309,4.7309,4.7309,4.7309,4.7309,4.7309,4.7309,3.3499,3.4472,3.5472,3.5359,3.5343,3.5399,3.5674,3.5715,3.5876,3.6411,3.6738,3.6783,3.6282,3.6639,3.6938,3.6652,3.7095,3.7385,3.7099,3.6675,3.6505,3.6733,3.7487,3.8115,3.8379,3.9182,3.9697,3.9697,3.9697,3.9697,3.9697,3.9697,3.9697,3.9697,3.9697,3.9697,3.9697,3.9697,3.9697,3.9697,3.9697,3.9697,3.9697,3.9697,3.9697,3.9697,0.0,3.9697,3.9697,3.9697,3.9697,3.9697,3.9697,3.9697,3.9697,3.9697,3.9697,3.9762,4.0224,4.0389,4.0554,4.1493,4.1864,4.2121,4.3163,4.3853,4.4406,4.5003,4.5512,4.5903,4.5903,4.5903,4.5903,4.5903,4.5903,4.5903,4.5903,4.5903,4.5903,4.5903,4.5903,4.5903,4.5903,4.597,4.6068,4.6188,4.6388,4.6609,4.6887,4.7019,4.7142,4.7287,4.7309,4.7309,4.7309,4.7309,4.7309,4.7309,4.7309,4.7309,4.7309,4.7309,4.7309,4.7309,4.7309,4.7309,4.7309,4.7309,4.7309,4.7309,4.7309,4.7309,3.3499,3.4472,3.5455,3.5261,3.5245,3.5375,3.5796,3.5927,3.6163,3.6837,3.722,3.7266,3.6703,3.6912,3.694,3.6277,3.6645,3.689,3.646,3.6405,3.6405,3.6405,3.7361,3.8002,3.8002,3.9032,3.9697,3.9697,3.9697,3.9697,3.9697,3.9697,3.9697,3.9697,3.9697,3.9697,3.9697,3.9697,3.9697,3.9697,3.9697,3.9697,3.9697,3.9697,3.9697,3.9697,3.9697,3.9697,3.9697,3.9697,3.9697,3.9697,3.9697,3.9697,3.9697,3.9697,3.9697,3.9697,3.9697,3.9697,3.9736,3.9981,4.0579,4.1394,4.2463,4.3497,4.4475,4.5293,4.5708,4.5903,4.5903,4.5903,4.5903,4.5903,4.5903,4.5903,4.5903,4.5903,4.5903,4.5903,4.5903,4.5903,4.5903,4.5903,4.5948,4.6113,4.6165,4.6343,4.6778,4.6887,4.6997,4.7287,4.7309,4.7309,4.7309,4.7309,4.7309,4.7309,4.7309,4.7309,4.7309,4.7309,4.7309,4.7309,4.7309,4.7309,4.7309,4.7309,4.7309,4.7309,4.7309,4.7309,3.3499,3.4472,3.5455,3.5261,3.5343,3.5554,3.5845,3.6043,3.643,3.7264,3.6841,3.6618,3.7597,3.8048,3.8241,3.8119,3.7895,3.7425,3.6534,3.6405,3.6405,3.6405,3.7361,3.8002,3.8002,3.9032,3.9697,3.9697,3.9697,3.9697,3.9697,3.9697,3.9697,3.9697,3.9697,3.9697,3.9697,3.9697,3.9697,3.9697,3.9697,3.9697,3.9697,3.9697,3.9697,3.9697,3.9697,3.9697,3.9697,3.9697,3.9697,3.9697,3.9697,3.9697,3.9697,3.9697,3.9697,3.9697,3.9697,3.9697,3.9865,4.0794,4.1144,4.1394,4.2463,4.3497,4.4312,4.4382,4.5118,4.5903,4.5903,4.5903,4.5903,4.5903,4.5903,4.5903,4.5903,4.5903,4.5903,4.5903,4.5903,4.5903,4.5903,4.5903,4.5903,4.5925,4.609,4.6314,4.6594,4.6778,4.6997,4.7287,4.7309,4.7309,4.7309,4.7309,4.7309,4.7309,4.7309,4.7309,4.7309,4.7309,4.7309,4.7309,4.7309,4.7309,4.7309,4.7309,4.7309,4.7309,4.7309,4.7309,3.3499,3.4393,3.5399,3.575,3.5789,3.5851,3.6244,3.6714,3.7243,3.7827,3.7248,3.6643,3.6717,3.6648,3.6725,3.7052,3.7011,3.6815,3.6452,3.6405,3.6531,3.6859,3.755,3.8153,3.8529,3.9245,3.9697,3.9697,3.9697,3.9697,3.9697,3.9697,3.9697,3.9697,3.9697,3.9697,3.9697,3.9697,3.9697,3.9697,3.9697,3.9697,3.9697,3.9697,3.9697,3.9697,3.9697,3.9697,3.9697,3.9697,3.9697,3.9697,3.9697,3.9697,3.9697,3.9697,3.9697,3.9697,3.9697,3.9697,3.9762,4.0147,4.0693,4.1394,4.2463,4.3497,4.4429,4.5118,4.5595,4.5903,4.5903,4.5903,4.5903,4.5903,4.5903,4.5903,4.5903,4.5903,4.5903,4.5903,4.5903,4.5903,4.5903,4.5903,4.5903,4.5903,4.597,4.6172,4.655,4.6683,4.6844,4.7266,4.7309,4.7309,4.7309,4.7309,4.7309,4.7309,4.7309,4.7309,4.7309,4.7309,4.7309,4.7309,4.7309,4.7309,4.7309,4.7309,4.7309,4.7309,4.7309,4.7309,3.3661,3.4547,3.5529,3.599,3.6288,3.6493,3.6489,3.6834,3.729,3.7704,3.765,3.728,3.6467,3.6515,3.6713,3.6822,3.6581,3.6405,3.6405,3.6405,3.6595,3.7148,3.7663,3.8228,3.8831,3.9396,3.9697,3.9697,3.9697,3.9697,3.9697,3.9697,3.9697,3.9697,3.9697,3.9697,3.9697,3.9697,3.9697,3.9697,3.9697,3.9697,3.9697,3.9697,3.9697,3.9697,3.9697,3.9697,3.9697,3.9697,3.9697,3.9697,3.9697,3.9697,3.9697,3.9697,3.9697,3.9697,3.9697,3.9697,3.9697,3.9697,4.0389,4.1344,4.2072,4.3235,4.4452,4.5201,4.564,4.5903,4.5903,4.5903,4.5903,4.5903,4.5903,4.5903,4.5903,4.5903,4.5903,4.5903,4.5903,4.5903,4.5903,4.5903,4.5903,4.5903,4.5903,4.6038,4.6425,4.655,4.6771,4.7244,4.7309,4.7309,4.7309,4.7309,4.7309,4.7309,4.7309,4.7309,4.7309,4.7309,4.7309,4.7309,4.7309,4.7309,4.7309,4.7309,4.7309,4.7309,4.7309,4.7309,3.401,3.5023,3.5893,3.5908,3.6848,3.7521,3.6451,3.6208,3.6368,3.681,3.7948,3.8491,3.7219,3.8176,3.8877,3.7946,3.7002,3.6405,3.6405,3.6405,3.6595,3.7148,3.7676,3.8241,3.8843,3.9396,3.9697,3.9697,3.9697,3.9697,0.0,3.9697,3.9697,3.9697,3.9697,3.9697,3.9697,3.9697,3.9697,3.9697,3.9697,3.9697,3.9697,3.9697,3.9697,3.9697,3.9697,3.9697,3.9697,3.9697,3.9697,3.9697,3.9697,3.9697,3.9697,3.9697,3.9697,3.9697,3.9697,3.9697,3.9697,3.9697,4.0389,4.1194,4.1194,4.2644,4.4289,4.4312,4.5072,4.588,4.5903,4.5903,4.5903,4.5903,4.5903,4.5903,4.5903,4.5903,4.5903,4.5903,4.5903,4.5903,4.5903,4.5903,4.5903,4.5903,4.5903,4.597,4.6165,4.6425,4.6771,4.7244,4.7309,4.7309,4.7309,4.7309,4.7309,4.7309,4.7309,4.7309,4.7309,4.7309,4.7309,4.7309,4.7309,4.7309,4.7309,4.7309,4.7309,4.7309,4.7309,4.7309,3.423,3.5136,3.6045,3.6606,3.6638,3.6594,3.6854,3.7744,3.8265,3.7441,3.7344,3.7109,3.6133,3.6652,3.714,3.6862,3.6593,3.6405,3.6405,3.6405,3.6733,3.7651,3.7902,3.8391,3.9384,3.9597,3.9697,3.9697,3.9697,3.9697,0.0,3.9697,3.9697,3.9697,3.9697,3.9697,3.9697,3.9697,3.9697,3.9697,3.9697,3.9697,3.9697,3.9697,3.9697,3.9697,3.9697,3.9697,3.9697,3.9697,3.9697,3.9697,3.9697,3.9697,3.9697,3.9697,3.9697,3.9697,3.9697,3.9697,3.9697,3.9697,4.0389,4.1194,4.1194,4.217,4.3378,4.4102,4.4536,4.4943,4.5708,4.5903,4.5903,4.5903,4.5903,4.5903,4.5903,4.5903,4.5903,4.5903,4.5903,4.5903,4.5903,4.5903,4.5903,4.5903,4.5903,4.597,4.6165,4.6712,4.7077,4.7019,4.7186,4.7207,4.7019,4.7019,4.7019,4.7019,4.7019,4.7099,4.7287,4.7309,4.7309,4.7309,4.7309,4.7309,4.7309,4.7309,4.7309,4.7309,4.7309,4.7309,3.4351,3.5303,3.6087,3.6241,3.6321,3.6522,3.7145,3.7558,3.7507,3.6523,3.6616,3.6674,3.598,3.6459,3.6839,3.6452,3.6405,3.6405,3.6405,3.6405,3.6796,3.7877,3.8002,3.8454,3.9584,3.9697,3.9697,3.9697,3.9697,0.0,0.0,3.9697,3.9697,3.9697,3.9697,3.9697,3.9697,3.9697,3.9697,3.9697,3.9697,3.9697,3.9697,3.9697,3.9697,3.9697,3.9697,3.9697,3.9697,3.9697,3.9697,3.9697,3.9697,3.9697,3.9697,3.9697,3.9697,3.9697,3.9697,3.9697,3.9697,3.9697,4.0096,4.0605,4.0605,4.1319,4.2293,4.2885,4.3378,4.3961,4.5003,4.527,4.5375,4.5813,4.5903,4.5903,4.5903,4.5903,4.5903,4.5903,4.5903,4.5903,4.5903,4.5903,4.5903,4.5903,4.5903,4.597,4.6165,4.658,4.6844,4.68,4.7012,4.704,4.68,4.6851,4.6866,4.68,4.6866,4.6975,4.7142,4.7229,4.7309,4.7309,4.7309,4.7309,4.7309,4.7309,4.7309,4.7309,4.7309,4.7309,3.4444,3.5464,3.6018,3.5234,3.5862,3.6738,3.7031,3.6085,3.5115,3.5008,3.6035,3.6832,3.6469,3.7106,3.7384,3.6546,3.6405,3.6405,3.6405,3.6405,3.6796,3.7877,3.8002,3.8454,3.9584,3.9697,3.9697,3.9697,0.0,0.0,0.0,3.9697,3.9697,3.9697,3.9697,3.9697,3.9697,3.9697,3.9697,3.9697,3.9697,3.9697,3.9697,3.9697,3.9697,3.9697,3.9697,3.9697,3.9697,3.9697,3.9697,3.9697,3.9697,3.9697,3.9697,3.9697,3.9697,3.9697,3.9697,3.9697,3.9697,3.9697,3.9697,3.9697,3.9697,4.0338,4.1082,4.1169,4.19,4.2889,4.39,4.4172,4.4429,4.5489,4.5835,4.5903,4.5903,4.5903,4.5903,4.5903,4.5903,4.5903,4.5903,4.5903,4.5903,4.5903,4.5903,4.5993,4.6143,4.621,4.6314,4.655,4.6756,4.68,4.6594,4.6734,4.6756,4.6572,4.6734,4.6851,4.6894,4.7164,4.7309,4.7309,4.7309,4.7309,4.7309,4.7309,4.7309,4.7309,4.7309,4.7309,3.4876,3.5299,3.5472,3.5274,3.5092,3.4888,3.4692,3.4742,3.5251,3.6803,3.6803,3.6489,3.6416,3.657,3.664,3.6428,3.6405,3.6405,3.6405,3.6405,3.6796,3.7877,3.8002,3.8454,3.9584,3.9697,3.9697,3.9697,0.0,0.0,3.9697,3.9697,3.9697,3.9697,3.9697,3.9697,3.9697,3.9697,3.9697,0.0,3.9697,3.9697,3.9697,3.9697,3.9697,3.9697,3.9697,3.9697,3.9697,3.9697,3.9697,3.9697,3.9697,3.9697,3.9697,3.9697,3.9697,3.9697,3.9697,3.9697,3.9697,3.9697,3.9697,3.9697,3.9697,3.9865,4.0198,4.0982,4.1369,4.179,4.2851,4.3129,4.3378,4.4396,4.5293,4.5903,4.5903,4.5903,4.5903,4.5903,4.5903,4.5903,4.5903,4.5903,4.5903,4.5903,4.6023,4.609,4.5993,4.6284,4.6447,4.6314,4.6513,4.6558,4.6314,4.6321,4.6321,4.6291,4.6321,4.6521,4.6873,4.7164,4.7309,4.7309,4.7309,4.7309,4.7309,4.7309,4.7309,4.7309,4.7309,4.7309,3.4822,3.5143,3.5231,3.4939,3.4323,3.3871,3.4221,3.449,3.5163,3.6783,3.6745,3.6405,3.6405,3.6405,3.6405,3.6405,3.6405,3.6405,3.6405,3.6405,3.6695,3.7513,3.7839,3.8354,3.9245,3.9534,3.9697,3.9697,0.0,3.9697,3.9697,3.9697,3.9697,3.9697,3.9697,3.9697,3.9697,3.9697,3.9697,3.9697,3.9697,3.9697,3.9697,3.9697,3.9697,3.9697,3.9697,3.9697,3.9697,3.9697,3.9697,3.9697,3.9697,3.9697,3.9697,3.9697,3.9697,3.9697,3.9697,3.9697,3.9697,3.9697,3.9697,3.9697,3.9697,3.9697,3.9813,4.0338,4.0478,4.0731,4.1766,4.2023,4.2293,4.3331,4.4373,4.527,4.579,4.5903,4.5903,4.5903,4.5903,4.5903,4.5903,4.5903,4.5903,4.5903,4.5993,4.6023,4.5903,4.6105,4.6217,4.6068,4.6269,4.6314,4.6068,4.6143,4.6165,4.6068,4.6158,4.6299,4.6543,4.6909,4.7164,4.7309,4.7309,4.7309,4.7309,4.7309,4.7309,4.7309,4.7309,4.7309,3.4817,3.5056,3.5038,3.4357,3.3632,3.3391,3.4474,3.4703,3.5004,3.6155,3.6405,3.6405,3.6405,3.6405,3.6405,3.6405,3.6405,3.6405,3.6405,3.6405,3.6595,3.7148,3.7588,3.8128,3.8831,3.9308,3.9597,0.0,0.0,3.9697,3.9697,3.9697,3.9697,3.9697,3.9697,3.9697,3.9697,3.9697,3.9697,3.9697,3.9697,3.9697,3.9697,3.9697,3.9697,3.9697,3.9697,3.9697,3.9697,3.9697,3.9697,3.9697,3.9697,3.9697,3.9697,3.9697,3.9697,3.9697,3.9697,3.9697,3.9697,3.9697,3.9697,3.9697,3.9697,3.9697,3.9697,3.9697,3.9697,3.989,4.0718,4.0932,4.1207,4.2282,4.3163,4.4125,4.5338,4.5617,4.5685,4.5858,4.5903,4.5903,4.5903,4.5903,4.5903,4.5903,4.5903,4.5903,4.5903,4.5903,4.5903,4.5903,4.6046,4.609,4.5903,4.6046,4.609,4.5903,4.6046,4.6165,4.6188,4.6565,4.6931,4.7244,4.7287,4.7309,4.7309,4.7309,4.7309,4.7309,4.7309,4.7309,3.5615,3.5271,3.4551,3.353,3.3188,3.3391,3.4474,3.4703,3.5004,3.6155,3.6405,3.6405,3.6405,3.6405,3.6405,3.6405,3.6405,3.6405,3.6405,3.6405,3.6595,3.7148,3.7273,3.7738,3.8793,3.8957,3.9208,0.0,3.9697,3.9697,3.9697,3.9697,3.9697,3.9697,3.9697,3.9697,3.9697,3.9697,3.9697,3.9697,3.9697,3.9697,3.9697,3.9697,3.9697,3.9697,3.9697,3.9697,3.9697,3.9697,3.9697,3.9697,3.9697,3.9697,3.9697,3.9697,3.9697,3.9697,3.9697,3.9697,3.9697,3.9697,3.9697,3.9697,3.9697,3.9697,3.9697,3.9697,3.9697,3.9723,3.9865,3.9916,4.0147,4.1182,4.1518,4.2146,4.4102,4.4499,4.4805,4.5708,4.5903,4.5903,4.5903,4.5903,4.5903,4.5903,4.5903,4.5903,4.5903,4.5903,4.5903,4.5903,4.5925,4.5925,4.5903,4.5925,4.5925,4.5903,4.5925,4.6023,4.6188,4.6254,4.6499,4.6953,4.7186,4.7309,4.7309,4.7309,4.7309,4.7309,4.7309,4.7309,3.5071,3.4838,3.4446,3.3365,3.3102,3.3391,3.4474,3.4703,3.5004,3.6155,3.6405,3.6405,3.6405,3.6405,3.6405,3.6405,3.6405,3.6405,3.6405,3.6405,3.6505,3.6708,3.7022,3.7399,3.7901,3.8228,3.8479,0.0,3.8755,3.8894,3.9245,3.9258,3.9396,3.9685,3.9697,3.9697,3.9697,3.9697,3.9697,3.9697,3.9697,3.9697,3.9697,3.9697,3.9697,3.9697,3.9697,3.9697,3.9697,3.9697,3.9697,3.9697,3.9697,3.9697,3.9697,3.9697,3.9697,3.9697,3.9697,3.9697,3.9697,3.9697,3.9697,3.9697,3.9697,3.9697,3.9697,3.9697,3.9697,3.9697,3.9697,3.9697,3.9813,4.0249,4.0364,4.0769,4.223,4.3474,4.4629,4.5685,4.5903,4.5903,4.5903,4.5903,4.5903,4.5903,4.5903,4.5903,4.5903,4.5903,4.5903,4.5903,4.5903,4.5903,4.5903,4.5903,4.5903,4.5903,4.5903,4.5948,4.6038,4.6135,4.638,4.6712,4.6953,4.7142,4.7309,4.7309,4.7309,4.7309,4.7309,4.7309,3.4782,3.4736,3.4681,3.3686,3.3261,3.3391,3.4474,3.4703,3.5004,3.6155,3.6405,3.6405,3.6405,3.6405,3.6405,3.6405,3.6405,3.6405,3.6405,3.6405,3.6405,3.6405,3.6746,3.7047,3.7198,3.755,3.7852,0.0,3.8002,3.8203,3.8655,3.868,3.8931,3.9497,3.9484,3.9546,3.9697,3.9697,3.9697,3.9697,3.9697,3.9697,3.9697,3.9697,3.9697,3.9697,3.9697,3.9697,3.9697,3.9697,3.9697,3.9697,3.9697,3.9697,3.9697,3.9697,3.9697,3.9697,3.9697,3.9697,3.9697,3.9697,3.9697,3.9697,3.9697,3.9697,3.9697,3.9697,3.9697,3.9697,3.9697,3.9697,3.9697,3.9697,3.9697,4.0057,4.1319,4.303,4.4629,4.5685,4.5903,4.5903,4.5903,4.5903,4.5903,4.5903,4.5903,4.5903,4.5903,4.5903,4.5903,4.5903,4.5903,4.5903,4.5903,4.5903,4.5903,4.5903,4.5903,4.5903,4.5903,4.6046,4.6247,4.6506,4.6712,4.6975,4.7309,4.7309,4.7309,4.7309,4.7309,4.7309,3.553,3.541,3.5346,3.4538,3.3717,3.3391,3.4474,3.4703,3.5004,3.6155,3.6405,3.6405,3.6405,3.6405,3.6405,3.6405,3.6405,3.6405,3.6405,3.6405,3.6405,3.6405,3.643,3.6632,3.716,3.7235,3.745,0.0,3.8002,3.8015,3.8052,3.8052,3.8316,3.8919,3.8931,3.9195,3.9685,3.9697,3.9697,3.9697,3.9697,3.9697,3.9697,3.9697,3.9697,3.9697,3.9697,3.9697,3.9697,3.9697,3.9697,3.9697,3.9697,3.9697,3.9697,3.9697,3.9697,3.9697,3.9697,3.9697,3.9697,3.9697,3.9697,3.9697,3.9697,3.9697,3.9697,3.9697,3.9697,3.9697,3.9697,3.9697,3.9697,3.9697,3.9697,4.0249,4.2282,4.3545,4.4629,4.5685,4.5903,4.5903,4.5903,4.5903,4.5903,4.5903,4.5903,4.5903,4.5903,4.5903,4.5903,4.5903,4.5903,4.5903,4.5903,4.5903,4.5903,4.5903,4.5903,4.5903,4.5903,4.5903,4.6001,4.621,4.6469,4.6837,4.7309,4.7309,4.7309,4.7309,4.7309,4.7309,3.5544,3.5457,3.5406,3.4613,3.3738,3.3391,3.4474,3.4703,3.5004,3.6155,3.6405,3.6405,3.6405,3.6405,3.6405,3.6405,3.6405,3.6405,3.6405,3.6405,3.6405,3.6405,3.6405,3.648,3.6658,3.6683,3.6758,0.0,0.0,3.7122,3.7462,3.7475,3.7739,3.8304,3.8316,3.8592,3.9183,3.9547,3.9697,3.9697,3.9697,3.9697,3.9697,3.9697,3.9697,3.9697,3.9697,3.9697,3.9697,3.9697,3.9697,3.9697,3.9697,3.9697,3.9697,3.9697,3.9697,3.9697,3.9697,3.9697,3.9697,3.9697,3.9697,3.9697,3.9697,3.9697,3.9697,3.9697,3.9697,3.9697,3.9697,3.9697,3.9697,3.9697,3.9697,4.0083,4.1468,4.2609,4.3464,4.3833,4.442,4.4874,4.4874,4.5444,4.5903,4.5903,4.5903,4.5903,4.5903,4.5903,4.5903,4.5903,4.5903,4.5903,4.5903,4.5903,4.5903,4.5903,4.5903,4.5903,4.5903,4.5903,4.5978,4.6202,4.6291,4.658,4.704,4.7207,4.7309,4.7309,4.7309,4.7309,3.6099,3.5796,3.5467,3.4937,3.3945,3.3341,3.4236,3.4565,3.4954,3.5893,3.6256,3.6405,3.6405,3.6405,3.6405,3.6405,3.6405,3.6405,3.6405,3.6405,3.6405,3.6405,3.6405,3.6405,3.6405,3.6405,3.6405,0.0,0.0,0.0,3.6909,3.6934,3.7185,3.7713,3.7914,3.8278,3.8881,3.9258,3.9509,3.9697,3.9697,3.9697,3.9697,3.9697,3.9697,3.9697,3.9697,3.9697,3.9697,3.9697,3.9697,3.9697,3.9697,3.9697,3.9697,3.9697,3.9697,3.9697,3.9697,3.9697,3.9697,3.9697,3.9697,3.9697,3.9697,3.9697,3.9697,3.9697,3.9697,3.9697,3.9697,3.9697,3.9697,3.9697,3.9697,3.989,4.0554,4.1518,4.2366,4.2719,4.3331,4.3805,4.3805,4.4396,4.4865,4.4865,4.4865,4.4865,4.4865,4.5155,4.5361,4.5361,4.5685,4.5903,4.5903,4.5903,4.5903,4.5903,4.5903,4.5903,4.5903,4.5903,4.597,4.609,4.618,4.6343,4.6653,4.6997,4.7121,4.7055,4.7244,4.7309,0.0,0.0,0.0,3.5574,3.4304,3.3241,3.3771,3.4289,3.4841,3.5382,3.5968,3.6392,3.6405,3.6405,3.6405,3.6405,3.6405,3.6405,3.6405,3.6405,3.6405,3.6405,3.6405,3.6405,3.6405,3.6405,3.6405,0.0,3.6405,3.6405,3.6405,3.6405,3.6632,3.7173,3.7701,3.8253,3.8831,3.8881,3.917,3.9672,3.9685,3.9697,3.9697,3.9697,3.9697,3.9697,3.9697,3.9697,3.9697,3.9697,3.9697,3.9697,3.9697,3.9697,3.9697,3.9697,3.9697,3.9697,3.9697,3.9697,3.9697,3.9697,3.9697,3.9697,3.9697,3.9697,3.9697,3.9697,3.9697,3.9697,3.9697,3.9697,3.9697,3.9697,3.9697,3.9697,3.9697,4.0453,4.1468,4.2501,4.2744,4.2768,4.2768,4.2792,4.2792,4.2792,4.2792,4.2792,4.2792,4.364,4.4266,4.4266,4.521,4.5858,4.5858,4.588,4.5903,4.5903,4.5903,4.5903,4.5903,4.5903,4.5903,4.5903,4.609,4.6188,4.6188,4.6653,4.68,4.6616,4.707,4.7287,3.6503,0.0,0.0,0.0,0.0,0.0,3.3771,3.401,3.4377,3.5307,3.5644,3.5893,3.6306,3.6405,3.6405,3.6405,3.6405,3.6405,3.6405,3.6405,3.6405,3.6405,3.6405,3.6405,3.6405,3.6405,0.0,0.0,3.6405,3.6405,3.6405,3.6405,3.648,3.6607,3.7148,3.7487,3.7675,3.8492,3.8969,3.9132,3.9496,3.9697,3.9697,3.9697,3.9697,3.9697,3.9697,3.9697,3.9697,3.9697,3.9697,3.9697,3.9697,3.9697,3.9697,3.9697,3.9697,3.9697,3.9697,3.9697,3.9697,3.9697,3.9697,3.9697,3.9697,3.9697,3.9697,3.9697,3.9697,3.9697,3.9697,3.9697,3.9697,3.9697,3.9697,3.9697,3.9697,3.9904,4.0198,4.0491,4.1132,4.1642,4.1642,4.2306,4.2792,4.2792,4.2792,4.2792,4.2792,4.3057,4.3211,4.3211,4.4125,4.4736,4.4736,4.5444,4.5903,4.5903,4.5903,4.5903,4.5903,4.5903,4.5903,4.5903,4.5948,4.5993,4.5993,4.6602,4.68,4.6594,4.6727,4.688,0.0,0.0,3.4985,3.4509,0.0,0.0,3.3483,3.3734,3.4148,3.4992,3.5345,3.5682,3.6281,3.6405,3.6405,3.6405,3.6405,3.6405,3.6405,3.6405,3.6405,3.6405,3.6405,3.6405,3.6405,3.6405,3.6405,3.6405,3.6405,3.6405,3.6405,3.6405,3.6405,3.6405,3.6695,3.6972,3.721,3.7864,3.8429,3.8894,3.922,3.9471,3.9697,3.9697,3.9697,3.9697,3.9697,3.9697,3.9697,3.9697,3.9697,3.9697,3.9697,3.9697,3.9697,3.9697,3.9697,3.9697,3.9697,3.9697,3.9697,3.9697,3.9697,3.9697,3.9697,3.9697,3.9697,3.9697,3.9697,3.9697,3.9697,3.9697,3.9697,3.9697,3.9697,3.9697,3.9697,3.9697,3.9697,3.9697,4.0173,4.0579,4.0579,4.1095,4.1506,4.1506,4.1506,4.1506,4.1506,4.1864,4.2135,4.2135,4.3067,4.3664,4.3664,4.4629,4.5224,4.5224,4.5663,4.5903,4.5903,4.5903,4.5903,4.5903,4.5903,4.5948,4.6038,4.6425,4.6602,4.6594,4.6506,4.6602,0.0,0.0,0.0,3.4293,3.3675,0.0,3.3102,3.3479,3.396,3.449,3.4992,3.5506,3.6105,3.6256,3.6293,3.6293,3.6367,3.6405,3.6405,3.6405,3.6405,3.6405,3.6405,3.6405,3.6405,3.6405,3.6405,3.6405,3.6405,3.6405,3.6405,3.6405,3.6405,3.6405,3.6405,3.662,3.711,3.7173,3.7713,3.8705,3.8831,3.9158,3.9597,3.9672,3.9697,3.9697,3.9697,3.9697,3.9697,3.9697,3.9697,3.9697,3.9697,3.9697,3.9697,3.9697,3.9697,3.9697,3.9697,3.9697,3.9697,3.9697,3.9697,3.9697,3.9697,3.9697,3.9697,3.9697,3.9697,3.9697,3.9697,3.9697,3.9697,3.9697,3.9697,3.9697,3.9697,3.9697,3.9697,3.9697,3.9697,3.9697,3.9697,3.9697,3.9697,3.9697,3.9697,3.9697,3.9697,4.0478,4.1032,4.1032,4.1987,4.2622,4.2622,4.3545,4.4125,4.4125,4.5026,4.5617,4.5708,4.5708,4.579,4.5903,4.5903,4.5993,4.6165,4.6165,4.6291,4.655,4.6291,4.6388,0.0,0.0,0.0,0.0,3.3219,0.0,3.3102,3.3178,3.3416,3.3947,3.4148,3.4387,3.4939,3.538,3.5682,3.5682,3.6069,3.6405,3.6405,3.6405,3.6405,3.6405,3.6405,3.6405,3.6405,3.6405,3.6405,3.6405,3.6405,3.6405,3.6405,3.6405,3.6405,3.6405,3.6405,3.6455,3.6568,3.6984,3.7323,3.755,3.8454,3.8957,3.907,3.9484,3.9697,3.9697,3.9697,3.9697,3.9697,3.9697,3.9697,3.9697,3.9697,3.9697,3.9697,3.9697,3.9697,3.9697,3.9697,3.9697,3.9697,3.9697,3.9697,3.9697,3.9697,3.9697,3.9697,3.9697,3.9697,3.9697,3.9697,3.9697,3.9697,3.9697,3.9697,3.9697,3.9697,3.9697,3.9697,3.9697,3.9697,3.9697,3.9697,3.9697,3.9697,3.9697,3.9697,3.9697,3.9697,3.9865,3.9981,3.9981,4.0895,4.1518,4.1518,4.2488,4.3105,4.3105,4.3297,4.3772,4.4582,4.4606,4.5026,4.588,4.5903,4.5925,4.597,4.597,4.6068,4.6269,4.606,4.609,0.0,0.0,0.0,3.3326,0.0,0.0,0.0,3.3102,3.3253,3.3784,3.3897,3.406,3.4603,3.4929,3.5117,3.5117,3.5581,3.5956,3.5956,3.6218,3.6405,3.6405,3.6405,3.6405,3.6405,3.6405,3.6405,3.6405,3.6405,3.6405,3.6405,3.6405,3.6405,3.6405,3.6405,3.6405,3.6405,3.6658,3.6934,3.7223,3.7788,3.8354,3.8906,3.9183,3.9459,3.9697,3.9697,3.9697,3.9697,3.9697,3.9697,3.9697,3.9697,3.9697,3.9697,3.9697,3.9697,3.9697,3.9697,3.9697,3.9697,3.9697,3.9697,3.9697,3.9697,3.9697,3.9697,3.9697,3.9697,3.9697,3.9697,3.9697,3.9697,3.9697,3.9697,3.9697,3.9697,3.9697,3.9697,3.9697,3.9697,3.9697,3.9697,3.9697,3.9697,3.9697,3.9697,3.9697,3.9697,3.9697,3.9697,3.9697,4.0147,4.0453,4.0453,4.1407,4.1999,4.1999,4.2501,4.3235,4.4266,4.4312,4.4805,4.588,4.5903,4.5903,4.5903,4.5903,4.5948,4.6046,4.5948,4.6015,0.0,0.0,0.0,0.0,0.0,3.3102,0.0,0.0,0.0,3.3658,3.3746,3.3872,3.4301,3.4477,3.454,3.454,3.5004,3.5345,0.0,3.5768,0.0,3.638,3.6405,3.6405,3.6405,3.6405,3.6405,3.6405,3.6405,3.6405,3.6405,3.6405,3.6405,3.6405,3.6405,3.6405,3.6405,3.6405,3.6607,3.7047,3.716,3.7688,3.858,3.868,3.9032,3.9534,3.9534,3.9597,3.9697,3.9697,3.9697,3.9697,3.9697,3.9697,3.9697,3.9697,3.9697,3.9697,3.9697,3.9697,3.9697,3.9697,3.9697,3.9697,3.9697,3.9697,3.9697,3.9697,3.9697,3.9697,3.9697,3.9697,3.9697,3.9697,3.9697,3.9697,3.9697,3.9697,3.9697,3.9697,3.9697,3.9697,3.9697,3.9697,3.9697,3.9697,3.9697,3.9697,3.9697,3.9697,3.9697,3.9697,3.9697,3.9697,3.9697,4.044,4.0907,4.0907,4.1716,4.2657,4.3664,4.4102,4.4805,4.588,4.5903,4.5903,4.5903,4.5903,4.5903,4.5903,4.5903,4.5993,0.0,0.0,0.0,0.0,3.3102,0.0,0.0,0.0,3.3115,3.3178,0.0,3.3215,3.3278,0.0,0.0,3.3985,3.4439,3.4791,3.4791,3.4841,3.5265,3.6268,3.6405,3.6405,0.0,3.6405,3.6405,3.6405,3.6405,3.6405,3.6405,3.6405,3.6405,3.6405,3.6405,3.6405,3.6405,3.6405,3.6443,3.6505,3.6972,3.7273,3.7424,3.7877,3.8417,3.8982,3.8982,3.9271,3.9697,3.9697,3.9697,3.9697,3.9697,3.9697,3.9697,3.9697,3.9697,3.9697,3.9697,3.9697,3.9697,3.9697,3.9697,3.9697,3.9697,3.9697,3.9697,3.9697,3.9697,3.9697,3.9697,3.9697,3.9697,3.9697,3.9697,3.9697,3.9697,3.9697,3.9697,3.9697,3.9697,3.9697,3.9697,3.9697,3.9697,3.9697,3.9697,3.9697,3.9697,3.9697,3.9697,3.9697,3.9697,3.9697,3.9697,3.9788,3.9865,3.9865,3.9981,4.0516,4.1505,4.3317,4.4805,4.588,4.5903,4.5903,4.5903,4.5903,4.5903,4.5903,4.5903,4.5903,0.0,0.0,0.0,0.0,0.0,0.0,3.3178,0.0,3.3102,0.0,0.0,0.0,0.0,0.0,0.0,0.0,3.3884,3.4248,3.4248,0.0,3.4879,3.5353,0.0,0.0,0.0,0.0,0.0,0.0,3.6405,3.6405,3.6405,3.6405,3.6405,3.6405,3.6405,3.6405,3.6405,3.6405,3.6405,3.6405,3.662,3.6896,3.7223,3.7425,3.7839,3.8366,3.8366,3.8693,3.9245,3.9245,3.9434,3.9697,3.9697,3.9697,3.9697,3.9697,3.9697,3.9697,3.9697,3.9697,3.9697,3.9697,3.9697,3.9697,3.9697,3.9697,3.9697,3.9697,3.9697,3.9697,3.9697,3.9697,3.9697,3.9697,3.9697,3.9697,3.9697,3.9697,3.9697,3.9697,3.9697,3.9697,3.9697,3.9697,3.9697,3.9697,3.9697,3.9697,3.9697,3.9697,3.9697,3.9697,3.9697,3.9697,3.9697,3.9697,3.9697,3.9697,4.0249,4.1045,4.2086,4.2971,4.3914,4.4943,4.4396,4.4396,4.4966,4.4966,4.5293,4.5903,4.5903,4.5903,3.4703,0.0,0.0,0.0,0.0,0.0,0.0,0.0,0.0,0.0,0.0,0.0,0.0,0.0,0.0,0.0,0.0,3.3671,0.0,3.4022,3.4364,3.4665,0.0,0.0,0.0,0.0,0.0,3.6405,3.6405,3.6405,3.6405,3.6405,3.6405,3.6405,3.6405,3.6405,3.6405,3.6405,3.6405,3.6405,3.6405,3.6595,3.6984,3.6984,3.7286,3.7789,3.7789,3.8103,3.8655,3.8655,3.8994,3.9471,3.9471,3.9559,3.9697,3.9697,3.9697,3.9697,3.9697,3.9697,3.9697,3.9697,3.9697,3.9697,3.9697,3.9697,3.9697,3.9697,3.9697,3.9697,3.9697,3.9697,3.9697,3.9697,3.9697,3.9697,3.9697,3.9697,3.9697,3.9697,3.9697,3.9697,3.9697,3.9697,3.9697,3.9697,3.9697,3.9697,3.9697,3.9697,3.9697,3.9697,3.9697,3.9697,3.9697,3.9697,3.9697,3.9697,4.0389,4.1257,4.2317,4.2366,4.2851,4.3853,4.3163,4.3283,4.4312,4.4312,4.4851,4.5903,4.5903,4.5903,0.0,0.0,0.0,3.4678,0.0,0.0,0.0,0.0,3.3872,0.0,0.0,0.0,0.0,0.0,0.0,0.0,0.0,0.0,0.0,3.314,3.3533,3.4577,3.4715,0.0,0.0,3.552,3.5769,3.6367,3.6405,3.6405,3.6405,3.6405,3.6405,3.6405,3.6405,3.6405,3.6405,3.6405,3.6405,3.6405,3.6405,3.6417,3.643,3.643,3.6708,3.7235,3.7235,3.7525,3.804,3.804,3.8379,3.8919,3.8919,3.9245,3.9697,3.9697,3.9697,3.9697,3.9697,3.9697,3.9697,3.9697,3.9697,3.9697,3.9697,3.9697,3.9697,3.9697,3.9697,3.9697,3.9697,3.9697,3.9697,3.9697,3.9697,3.9697,3.9697,3.9697,3.9697,3.9697,3.9697,3.9697,3.9697,3.9697,3.9697,3.9697,3.9697,3.9697,3.9697,3.9697,3.9697,3.9697,3.9697,3.9697,3.9697,3.9697,3.9697,3.9697,3.9723,4.0198,4.1219,4.1244,4.1752,4.284,4.2816,4.3283,4.4312,4.4312,4.4851,4.5903,4.5903,4.5903,0.0,0.0,3.5717,3.533,0.0,0.0,0.0,0.0,0.0,0.0,0.0,0.0,0.0,0.0,0.0,0.0,0.0,0.0,0.0,3.3102,3.3241,3.3605,3.396,3.4377,0.0,0.0,0.0,3.5782,3.618,3.6405,3.6405,3.6405,3.6405,3.6405,3.6405,3.6405,3.6405,3.6405,3.6405,3.6405,3.6405,3.6405,3.6405,3.6405,3.6505,3.6658,3.6658,3.6972,3.7462,3.7462,3.8039,3.8894,3.8894,3.9233,3.9697,3.9697,3.9697,3.9697,3.9697,3.9697,3.9697,3.9697,3.9697,3.9697,3.9697,3.9697,3.9697,3.9697,3.9697,3.9697,3.9697,3.9697,3.9697,3.9697,3.9697,3.9697,3.9697,3.9697,3.9697,3.9697,3.9697,3.9697,3.9697,3.9697,3.9697,3.9697,3.9697,3.9697,3.9697,3.9697,3.9697,3.9697,3.9697,3.9697,3.9697,3.9697,3.9697,3.9697,3.9697,4.0147,4.1144,4.0554,4.0706,4.1716,4.1095,4.1232,4.2255,4.2971,4.3487,4.388,4.5261,4.5903,3.6405,3.6405,0.0,3.5931,3.5807,0.0,3.5378,0.0,0.0,0.0,0.0,0.0,0.0,0.0,0.0,0.0,0.0,0.0,0.0,3.3547,3.3547,3.3547,3.3599,3.3897,3.4628,3.4841,3.518,3.5769,3.5981,3.618,0.0,0.0,3.6405,3.6405,3.6405,3.6405,3.6405,3.6405,3.6405,3.6405,3.6405,3.6405,3.6405,3.6405,3.6405,3.6405,3.6405,3.6595,3.6909,3.6909,3.7462,3.8316,3.8517,3.8931,3.9446,3.9622,3.9697,3.9697,3.9697,3.9697,3.9697,3.9697,3.9697,3.9697,3.9697,3.9697,3.9697,3.9697,3.9697,3.9697,3.9697,3.9697,3.9697,3.9697,3.9697,3.9697,3.9697,3.9697,3.9697,3.9697,3.9697,3.9697,3.9697,3.9697,3.9697,3.9697,3.9697,3.9697,3.9697,3.9697,3.9697,3.9697,3.9697,3.9697,3.9697,3.9697,3.9697,3.9697,3.9697,3.9981,4.0655,4.0032,4.0006,4.0642,4.0032,4.0198,4.1194,4.2282,4.2792,4.2864,4.4934,4.5685]},{"header":{"parameterUnit":"m.s-1","parameterCategory":1,"la1":30.6,"la2":29.2853,"lo1":-89.7004,"lo2":-87.6739,"dy":0.0162,"dx":0.0183,"nx":112,"ny":82,"refTime":"2023-11-20T18:00:00:Z","depth":0,"parameterNumber":3,"parameterNumberName":"V-component_of_WINDS"},"data":[0.0,0.0,0.0,0.0,0.0,0.0,0.0,0.0,0.0,0.0,0.0,0.0,0.0,0.0,0.0,0.0,0.0,0.0,0.0,0.0,0.0,0.0,0.0,0.0,0.0,0.0,0.0,0.0,0.0,0.0,0.0,0.0,0.0,0.0,0.0,0.0,0.0,0.0,0.0,0.0,0.0,0.0,0.0,0.0,0.0,0.0,0.0,0.0,0.0,0.0,0.0,0.0,0.0,0.0,0.0,0.0,0.0,0.0,0.0,0.0,0.0,0.0,0.0,0.0,0.0,0.0,0.0,0.0,0.0,0.0,0.0,0.0,0.0,0.0,0.0,0.0,0.0,0.0,0.0,0.0,0.0,0.0,0.0,0.0,0.0,0.0,0.0,0.0,0.0,0.0,1.3287,1.3503,1.3712,1.4114,1.4814,1.4753,1.4665,1.4609,0.0,0.0,0.0,0.0,0.0,0.0,0.0,0.0,0.0,0.0,0.0,0.0,0.0,0.0,0.0,0.0,0.0,0.0,0.0,0.0,0.0,0.0,0.0,0.0,0.0,0.0,0.0,0.0,0.0,0.0,0.0,0.0,0.0,0.0,0.0,0.0,0.0,0.0,0.0,0.0,0.0,0.0,0.0,0.0,0.0,0.0,0.0,0.0,0.0,0.0,0.0,0.0,0.0,0.0,0.0,0.0,0.0,0.0,0.0,0.0,0.0,0.0,0.0,0.0,0.0,0.0,0.0,0.0,0.0,0.0,0.0,0.0,0.0,0.0,0.0,0.0,0.0,0.0,0.0,0.0,0.0,0.0,0.0,0.0,0.0,0.0,0.0,0.0,0.0,0.0,0.0,0.0,0.0,0.0,0.0,0.0,0.0,0.0,0.0,0.0,0.0,0.0,0.0,0.0,1.3667,1.4843,1.5211,1.5579,1.6087,1.545,1.4909,1.4625,0.0,0.0,0.0,0.0,0.0,0.0,0.0,0.0,0.0,0.0,0.0,0.0,0.0,0.0,0.0,0.0,0.0,0.0,0.0,0.0,0.0,0.0,0.0,0.0,0.0,0.0,0.0,0.0,0.0,0.0,0.0,0.0,0.0,0.0,0.0,0.0,0.0,0.0,0.0,0.0,0.0,0.0,0.0,0.0,0.0,0.0,0.0,0.0,0.0,0.0,0.0,0.0,0.0,0.0,0.0,0.0,0.0,0.0,0.0,0.0,0.0,0.0,0.0,0.0,0.0,0.0,0.0,0.0,0.0,0.0,0.0,0.0,0.0,0.0,0.0,0.0,0.0,0.0,0.0,0.0,0.0,0.0,0.0,0.0,0.0,0.0,0.0,0.0,0.0,0.0,0.0,0.0,0.0,0.0,0.0,0.0,0.0,0.0,0.0,0.0,0.0,0.0,0.0,1.4565,1.4975,1.6099,1.6332,1.6658,1.7311,1.7008,1.6505,1.5893,1.5675,0.0,0.0,0.0,0.0,0.0,0.0,0.0,0.0,0.0,0.0,0.0,0.0,0.0,0.0,0.0,0.0,0.0,0.0,0.0,0.0,0.0,0.0,0.0,0.0,0.0,0.0,0.0,0.0,0.0,0.0,0.0,0.0,0.0,0.0,0.0,0.0,0.0,0.0,0.0,0.0,0.0,0.0,0.0,0.0,0.0,0.0,0.0,0.0,0.0,0.0,0.0,0.0,0.0,0.0,0.0,0.0,0.0,0.0,0.0,0.0,0.0,0.0,0.0,0.0,0.0,0.0,0.0,0.0,0.0,0.0,0.0,0.0,0.0,0.0,0.0,0.0,0.0,0.0,0.0,0.0,0.0,0.0,0.0,0.0,0.0,0.0,0.0,0.0,0.0,0.0,0.0,0.0,0.0,0.0,0.0,0.0,0.0,0.0,0.0,0.0,0.0,0.0,1.6136,1.6682,1.7356,1.75,1.783,1.8546,1.8415,1.7893,1.696,1.6851,0.0,0.0,0.0,0.0,0.0,0.0,0.0,0.0,0.0,0.0,0.0,0.0,0.0,0.0,0.0,0.0,0.0,0.0,0.0,0.0,0.0,0.0,0.0,0.0,0.0,0.0,0.0,0.0,0.0,0.0,0.0,0.0,0.0,0.0,0.0,0.0,0.0,0.0,0.0,0.0,0.0,0.0,0.0,0.0,0.0,0.0,0.0,0.0,0.0,0.0,0.0,0.0,0.0,0.0,0.0,0.0,0.0,0.0,0.0,0.0,0.0,0.0,0.0,0.0,0.0,0.0,0.0,0.0,0.0,0.0,0.0,0.0,0.0,0.0,0.0,0.0,0.0,0.0,0.0,0.0,0.0,0.0,0.0,0.0,0.0,0.0,0.0,0.0,0.0,0.0,0.0,0.0,0.0,0.0,0.0,0.0,0.0,0.0,0.0,0.0,0.0,0.0,1.7386,1.8612,1.867,1.8951,1.9317,1.9733,1.9051,1.8086,1.6977,1.7636,0.0,0.0,0.0,0.0,0.0,0.0,0.0,0.0,0.0,0.0,0.0,0.0,0.0,0.0,0.0,0.0,0.0,0.0,0.0,0.0,0.0,0.0,0.0,0.0,0.0,0.0,0.0,0.0,0.0,0.0,0.0,0.0,0.0,0.0,0.0,0.0,0.0,0.0,0.0,0.0,0.0,0.0,0.0,0.0,0.0,0.0,0.0,0.0,0.0,0.0,0.0,0.0,0.0,0.0,0.0,0.0,0.0,0.0,0.0,0.0,0.0,0.0,0.0,0.0,0.0,0.0,0.0,0.0,0.0,0.0,0.0,0.0,0.0,0.0,0.0,0.0,0.0,0.0,0.0,0.0,0.0,0.0,0.0,0.0,0.0,0.0,0.0,0.0,0.0,0.0,0.0,0.0,0.0,0.0,0.0,0.0,0.0,0.0,0.0,0.0,0.0,0.0,1.8289,1.9326,1.985,2.0032,2.0168,2.0313,2.0053,1.9426,1.8455,0.0,0.0,0.0,0.0,0.0,0.0,0.0,0.0,0.0,0.0,0.0,0.0,0.0,0.0,0.0,0.0,0.0,0.0,0.0,0.0,0.0,0.0,0.0,0.0,0.0,0.0,0.0,0.0,0.0,0.0,0.0,0.0,0.0,0.0,0.0,0.0,0.0,0.0,0.0,0.0,0.0,0.0,0.0,0.0,0.0,0.0,0.0,0.0,0.0,0.0,0.0,0.0,0.0,0.0,0.0,0.0,0.0,0.0,0.0,0.0,0.0,0.0,0.0,0.0,0.0,0.0,0.0,0.0,0.0,0.0,0.0,0.0,0.0,0.0,0.0,0.0,0.0,0.0,0.0,0.0,0.0,0.0,0.0,0.0,0.0,0.0,0.0,0.0,0.0,0.0,0.0,0.0,0.0,0.0,0.0,0.0,0.0,0.0,0.0,0.0,0.0,0.0,1.8339,1.9173,1.9932,2.0547,2.0605,2.0625,2.0693,2.0693,2.0313,1.945,0.0,0.0,0.0,0.0,0.0,0.0,0.0,0.0,0.0,0.0,0.0,0.0,0.0,0.0,0.0,0.0,0.0,0.0,0.0,0.0,0.0,0.0,0.0,0.0,0.0,0.0,0.0,0.0,0.0,0.0,0.0,0.0,0.0,0.0,0.0,0.0,0.0,0.0,0.0,0.0,0.0,0.0,0.0,0.0,0.0,0.0,0.0,0.0,0.0,0.0,0.0,0.0,0.0,0.0,0.0,0.0,0.0,0.0,0.0,0.0,0.0,0.0,0.0,0.0,0.0,0.0,0.0,0.0,0.0,0.0,0.0,0.0,0.0,0.0,0.0,0.0,0.0,0.0,0.0,0.0,0.0,0.0,0.0,0.0,0.0,0.0,0.0,0.0,0.0,0.0,0.0,0.0,0.0,0.0,0.0,0.0,0.0,0.0,0.0,0.0,0.0,0.0,1.9301,2.005,2.0605,2.0605,2.0605,2.0693,2.0887,2.0906,2.0537,0.0,0.0,0.0,0.0,0.0,0.0,0.0,0.0,0.0,0.0,0.0,0.0,0.0,0.0,0.0,0.0,0.0,0.0,0.0,0.0,0.0,0.0,0.0,0.0,0.0,0.0,0.0,0.0,0.0,0.0,0.0,0.0,0.0,0.0,0.0,0.0,0.0,0.0,0.0,0.0,0.0,0.0,0.0,0.0,0.0,0.0,0.0,0.0,0.0,0.0,0.0,0.0,0.0,0.0,0.0,0.0,0.0,0.0,0.0,0.0,0.0,0.0,0.0,0.0,0.0,0.0,0.0,0.0,0.0,0.0,0.0,0.0,0.0,0.0,0.0,0.0,0.0,0.0,0.0,0.0,0.0,0.0,0.0,0.0,0.0,0.0,0.0,0.0,0.0,0.0,0.0,0.0,0.0,0.0,0.0,0.0,0.0,0.0,0.0,0.0,0.0,0.0,0.0,1.9301,2.005,2.0605,2.0605,2.0731,2.078,2.0693,2.0819,2.0722,2.0323,0.0,0.0,0.0,0.0,0.0,0.0,0.0,0.0,0.0,0.0,0.0,0.0,0.0,0.0,0.0,0.0,0.0,0.0,0.0,0.0,0.0,0.0,0.0,0.0,0.0,0.0,0.0,0.0,0.0,0.0,0.0,0.0,0.0,0.0,0.0,0.0,0.0,0.0,0.0,0.0,0.0,0.0,0.0,0.0,0.0,0.0,0.0,0.0,0.0,0.0,0.0,0.0,0.0,0.0,0.0,0.0,0.0,0.0,0.0,0.0,0.0,0.0,0.0,0.0,0.0,0.0,0.0,0.0,0.0,0.0,0.0,0.0,0.0,0.0,0.0,0.0,0.0,0.0,0.0,0.0,0.0,0.0,0.0,0.0,0.0,0.0,0.0,0.0,0.0,0.0,0.0,0.0,0.0,0.0,0.0,0.0,0.0,0.0,0.0,0.0,0.0,0.0,1.9814,2.0284,2.0605,2.0605,2.078,2.0877,2.0848,2.1022,2.1089,2.0983,0.0,0.0,0.0,0.0,0.0,0.0,0.0,0.0,0.0,0.0,0.0,0.0,0.0,0.0,0.0,0.0,0.0,0.0,0.0,0.0,0.0,0.0,0.0,0.0,0.0,0.0,0.0,0.0,0.0,0.0,0.0,0.0,0.0,0.0,0.0,0.0,0.0,0.0,0.0,0.0,0.0,0.0,0.0,0.0,0.0,0.0,0.0,0.0,0.0,0.0,0.0,0.0,0.0,0.0,0.0,0.0,0.0,0.0,0.0,0.0,0.0,0.0,0.0,0.0,0.0,0.0,0.0,0.0,0.0,0.0,0.0,0.0,0.0,0.0,0.0,0.0,0.0,0.0,0.0,0.0,0.0,0.0,0.0,0.0,0.0,0.0,0.0,0.0,0.0,0.0,0.0,0.0,0.0,0.0,0.0,0.0,0.0,0.0,0.0,0.0,0.0,0.0,2.0605,2.0605,2.0605,2.0605,2.0799,2.0984,2.1157,2.1359,2.1474,2.1474,0.0,0.0,0.0,0.0,0.0,0.0,0.0,0.0,0.0,0.0,0.0,0.0,0.0,0.0,0.0,0.0,0.0,0.0,0.0,0.0,0.0,0.0,0.0,0.0,0.0,0.0,0.0,0.0,0.0,0.0,0.0,0.0,0.0,0.0,0.0,0.0,0.0,0.0,0.0,0.0,0.0,0.0,0.0,0.0,0.0,0.0,0.0,0.0,0.0,0.0,0.0,0.0,0.0,0.0,0.0,0.0,0.0,0.0,0.0,0.0,1.9084,0.0,0.0,0.0,0.0,0.0,0.0,0.0,0.0,0.0,0.0,0.0,0.0,0.0,0.0,0.0,0.0,0.0,0.0,0.0,0.0,0.0,0.0,0.0,0.0,0.0,0.0,0.0,0.0,0.0,0.0,0.0,0.0,0.0,0.0,0.0,0.0,0.0,0.0,0.0,0.0,0.0,2.0605,2.0605,2.0605,2.0605,2.0916,2.1089,2.0964,2.1147,2.1263,2.1263,2.108,0.0,0.0,0.0,0.0,0.0,0.0,0.0,0.0,0.0,0.0,0.0,0.0,0.0,0.0,0.0,0.0,0.0,0.0,0.0,0.0,0.0,0.0,0.0,0.0,0.0,0.0,0.0,0.0,0.0,0.0,0.0,0.0,0.0,0.0,0.0,0.0,0.0,0.0,0.0,0.0,0.0,0.0,0.0,0.0,0.0,0.0,0.0,0.0,0.0,0.0,0.0,0.0,0.0,0.0,0.0,0.0,0.0,0.0,0.0,0.0,1.9557,0.0,0.0,0.0,0.0,0.0,0.0,0.0,0.0,0.0,0.0,0.0,0.0,0.0,0.0,0.0,0.0,0.0,0.0,0.0,0.0,0.0,0.0,0.0,0.0,0.0,0.0,0.0,0.0,0.0,0.0,0.0,0.0,0.0,0.0,0.0,0.0,0.0,0.0,0.0,0.0,2.0731,2.0828,2.0886,2.0886,2.1156,2.1301,2.1205,2.1368,2.1493,2.1493,2.1301,0.0,0.0,0.0,0.0,0.0,0.0,0.0,0.0,0.0,0.0,0.0,0.0,0.0,0.0,0.0,0.0,0.0,0.0,0.0,0.0,0.0,0.0,0.0,0.0,0.0,0.0,0.0,0.0,0.0,0.0,0.0,0.0,0.0,0.0,0.0,0.0,0.0,0.0,0.0,0.0,0.0,0.0,0.0,0.0,0.0,0.0,0.0,0.0,0.0,0.0,0.0,0.0,0.0,2.1097,2.1079,2.046,2.0989,2.1156,2.1025,2.047,2.0206,2.0169,1.9997,0.0,0.0,0.0,0.0,0.0,0.0,0.0,0.0,0.0,0.0,0.0,0.0,0.0,0.0,0.0,0.0,0.0,0.0,0.0,0.0,0.0,0.0,0.0,0.0,2.1416,2.1512,0.0,0.0,0.0,0.0,0.0,0.0,0.0,0.0,0.0,0.0,0.0,0.0,2.0945,2.1099,2.1205,2.1205,2.1378,2.1502,2.1502,2.1655,2.1769,2.1807,2.1598,2.1502,0.0,0.0,0.0,0.0,0.0,0.0,0.0,0.0,0.0,0.0,0.0,0.0,0.0,0.0,0.0,0.0,0.0,0.0,0.0,0.0,0.0,0.0,0.0,0.0,0.0,0.0,0.0,0.0,0.0,0.0,0.0,0.0,1.9124,1.935,0.0,0.0,0.0,0.0,0.0,0.0,0.0,0.0,0.0,0.0,0.0,0.0,0.0,2.1297,2.1024,2.1891,2.2317,2.2317,2.2627,2.2694,2.2564,2.1968,2.169,2.1676,2.1595,0.0,2.1291,2.1272,0.0,0.0,0.0,0.0,0.0,0.0,0.0,0.0,0.0,0.0,0.0,0.0,0.0,0.0,0.0,0.0,0.0,0.0,0.0,0.0,0.0,0.0,2.1674,2.1502,2.1617,2.175,0.0,2.1455,2.1186,2.1167,2.1157,0.0,0.0,0.0,0.0,0.0,0.0,0.0,2.1128,2.1186,2.1205,2.1205,2.1378,2.1502,2.1502,2.1521,2.1617,2.1788,2.1598,2.1502,2.1502,2.1474,0.0,0.0,0.0,0.0,0.0,0.0,0.0,0.0,0.0,0.0,0.0,0.0,0.0,0.0,0.0,0.0,0.0,0.0,0.0,0.0,0.0,0.0,0.0,0.0,0.0,0.0,0.0,0.0,0.0,1.9189,1.9431,1.9421,1.9532,1.9639,0.0,0.0,0.0,0.0,0.0,0.0,0.0,0.0,0.0,2.1794,2.2088,2.2251,2.2214,2.2467,2.2813,2.3278,2.3588,2.3498,2.3103,2.3168,2.2984,2.2584,2.2584,2.2544,2.2415,2.1755,2.1397,2.1224,0.0,0.0,0.0,0.0,2.108,2.1099,2.1301,2.1378,0.0,2.1378,0.0,0.0,0.0,0.0,0.0,0.0,0.0,0.0,0.0,0.0,0.0,2.1655,2.1731,2.1807,2.1807,2.188,2.1808,0.0,2.1282,2.1167,2.108,0.0,0.0,0.0,0.0,2.1263,2.1359,2.1474,2.155,2.155,2.1617,2.1674,2.1674,2.1674,2.1712,2.1788,2.1712,2.1674,2.1674,2.1559,2.1416,0.0,0.0,0.0,0.0,0.0,0.0,0.0,0.0,0.0,0.0,0.0,0.0,0.0,0.0,0.0,0.0,0.0,0.0,0.0,0.0,0.0,0.0,0.0,0.0,0.0,0.0,0.0,0.0,1.9718,1.9859,1.9739,2.0116,2.0439,0.0,0.0,0.0,0.0,0.0,0.0,2.222,2.3186,2.3512,2.3001,2.329,2.3536,2.3708,2.3662,2.3922,2.4524,2.4825,2.4683,2.4164,2.4517,2.4379,2.3867,2.3867,2.3867,2.3763,2.2478,2.1888,2.183,2.1684,2.1606,2.1547,2.1625,2.1625,2.1654,2.1716,2.1753,2.1742,2.1619,0.0,2.1571,2.1471,0.0,0.0,0.0,0.0,2.1684,2.1879,2.1927,2.1966,2.2121,2.2159,2.2159,2.2159,2.2389,2.2433,0.0,2.1739,2.1703,2.1645,0.0,0.0,0.0,0.0,2.1879,2.1937,2.2062,2.2159,2.2159,2.2159,2.2159,2.2159,2.2159,2.2108,2.1994,2.1983,2.1932,2.1788,2.1655,2.154,2.1502,0.0,0.0,0.0,0.0,0.0,0.0,0.0,0.0,0.0,0.0,0.0,0.0,0.0,0.0,0.0,0.0,0.0,0.0,0.0,0.0,0.0,0.0,0.0,0.0,0.0,0.0,0.0,0.0,0.0,2.0806,2.1847,0.0,0.0,0.0,0.0,2.2379,2.3047,2.2928,2.1617,2.3394,2.4231,2.3768,2.4863,2.5516,2.5655,2.634,2.6697,2.6735,2.6771,2.6764,2.6689,2.6019,2.5704,2.5677,2.5677,2.5677,2.5531,2.3813,2.3001,2.2818,2.2818,2.2707,2.2544,2.2737,2.2798,2.2777,2.2536,2.244,2.2367,2.1933,2.1788,2.1833,2.2081,2.2155,0.0,0.0,2.2798,2.2859,2.3061,2.3122,2.3122,2.3142,2.3142,2.3142,2.3142,2.3001,2.2797,0.0,2.2802,2.3041,2.2839,0.0,2.2798,2.2798,2.2818,2.2899,2.3081,2.3111,2.3142,2.3142,2.3142,2.3142,2.3142,2.3142,2.2925,2.249,2.2459,2.2263,2.1828,2.1788,2.1693,2.1502,2.1493,0.0,0.0,0.0,0.0,0.0,0.0,0.0,0.0,0.0,0.0,0.0,0.0,0.0,0.0,0.0,0.0,0.0,0.0,0.0,0.0,0.0,0.0,0.0,0.0,0.0,0.0,0.0,0.0,2.2526,2.3076,0.0,2.3139,2.4237,2.4653,2.3865,2.5458,2.6028,2.5016,2.6151,2.65,2.5822,2.6205,2.6648,2.7081,2.7121,2.7589,2.843,2.8231,2.812,2.8108,2.7853,2.7741,2.7741,2.7741,2.7741,2.7679,2.7055,2.6006,2.4764,2.4764,2.4371,2.3825,2.3905,2.3556,2.3082,2.2978,2.2946,2.2915,2.2769,2.2697,2.2729,2.2814,2.2846,2.2877,2.3041,2.3083,2.3113,2.3184,2.3204,2.3204,2.3204,2.3204,2.3204,2.3204,2.3381,2.3526,2.3422,2.3196,2.3032,2.3093,2.3083,2.3083,2.3083,2.3083,2.3123,2.3194,2.3204,2.3204,2.3204,2.3204,2.3204,2.3204,2.3204,2.3142,2.2966,2.2946,2.2739,2.2273,2.2252,2.2069,2.1703,2.1693,2.1521,0.0,0.0,0.0,0.0,0.0,0.0,0.0,0.0,0.0,0.0,0.0,0.0,0.0,0.0,0.0,0.0,0.0,0.0,0.0,0.0,0.0,0.0,0.0,0.0,0.0,2.2824,2.3242,2.3713,2.4251,2.4558,2.4554,2.5776,2.6236,2.5445,2.7231,2.7916,2.6869,2.7877,2.8257,2.776,2.7903,2.8305,2.9008,2.8791,2.9131,3.0025,2.9783,2.9665,2.9665,2.9665,2.9665,2.9665,2.9665,2.9665,2.9665,2.9665,2.8877,2.764,2.7036,2.6456,2.5911,2.5565,2.5094,2.4545,2.4054,2.3774,2.3639,2.3639,2.3639,2.367,2.3836,2.3877,2.3908,2.4074,2.4116,2.4116,2.4116,2.4116,2.4116,2.4116,2.4116,2.4116,2.4116,2.4354,2.4572,2.4572,2.3959,2.3484,2.3629,2.3639,2.3701,2.3857,2.3743,2.3701,2.3857,2.3743,2.3639,2.3639,2.3639,2.3639,2.3639,2.3639,2.3577,2.3432,2.3442,2.3235,2.2769,2.2729,2.2544,2.2156,2.1972,2.1713,2.1301,0.0,0.0,0.0,0.0,0.0,0.0,0.0,0.0,0.0,0.0,0.0,0.0,0.0,0.0,0.0,0.0,0.0,0.0,0.0,0.0,0.0,0.0,0.0,2.3592,2.3738,2.4004,2.439,2.5451,2.6291,2.6634,2.7564,2.7853,2.7061,2.8231,2.833,2.683,2.8413,2.939,2.9451,2.9897,3.0563,3.1436,3.1436,3.1482,3.1486,3.1486,3.1486,3.1486,3.1486,3.1486,3.1486,3.1486,3.1486,3.1486,3.1486,3.1486,3.133,2.9562,2.8846,2.8729,2.7765,2.7415,2.7228,2.5808,2.5019,2.4624,2.4624,2.4624,2.4729,2.5175,2.532,2.5403,2.5863,2.5988,2.5988,2.5943,2.5943,2.5943,2.5908,2.592,2.5943,2.5943,2.5965,2.5988,2.5988,2.5259,2.4624,2.4581,2.4581,2.4758,2.5247,2.4936,0.0,2.5258,2.4926,2.4624,2.4581,2.4581,2.4581,2.456,2.456,2.4395,2.3981,2.3961,2.3732,2.3246,2.3225,2.3093,2.2819,2.237,2.1932,2.1553,0.0,0.0,0.0,0.0,0.0,0.0,0.0,0.0,0.0,0.0,0.0,0.0,0.0,0.0,0.0,0.0,0.0,0.0,0.0,0.0,0.0,2.4685,2.5236,2.5181,2.5351,2.5857,2.6919,2.7348,2.7742,2.8219,2.8912,2.9414,2.9575,3.0276,3.0528,3.0101,3.0559,3.0822,3.0843,3.0971,3.1547,3.2625,3.2638,3.3018,3.3787,3.3787,3.3787,3.3787,3.3787,3.3787,3.3787,3.3787,3.3787,3.3787,3.3787,3.3787,3.3602,3.1499,3.0297,2.971,2.9435,2.8933,2.8351,2.7956,2.7735,2.7612,2.7612,2.7612,2.7645,2.778,2.7825,2.7847,2.796,2.7994,2.7853,2.715,2.6984,2.6806,2.6078,2.6427,2.6918,2.6918,2.7503,2.7994,2.7994,2.7791,2.7386,2.6671,2.6573,2.6878,2.7695,2.7701,0.0,2.7781,2.7701,2.7343,2.6595,2.654,2.6378,2.5991,2.5937,2.5765,2.5302,2.527,2.4806,2.3743,2.3712,2.3505,2.3103,2.2818,2.2634,0.0,0.0,0.0,0.0,0.0,0.0,0.0,0.0,0.0,0.0,0.0,0.0,0.0,0.0,0.0,0.0,0.0,0.0,0.0,0.0,0.0,0.0,2.6054,2.6932,2.7401,2.717,2.7403,2.8656,2.8812,2.9114,2.9873,3.0269,3.0595,3.0922,3.1436,3.1838,3.2097,3.2336,3.2554,3.278,3.2792,3.3106,3.3759,3.3771,3.4085,3.4703,3.4703,3.4703,3.4703,3.4703,3.4703,0.0,3.4703,3.4703,3.4703,3.4703,3.4703,0.0,0.0,0.0,0.0,0.0,3.0499,2.9694,2.9465,2.9384,2.9384,2.9384,2.9384,2.9384,2.9384,2.9384,2.9384,2.9384,2.9384,2.9264,2.87,2.8578,2.8422,2.7827,2.8109,2.8511,2.8511,2.8966,2.9384,2.9384,0.0,0.0,2.9132,2.8483,2.8236,2.8973,2.8932,2.8863,2.906,2.892,2.8578,2.7994,2.7929,2.7795,2.7483,2.7461,0.0,0.0,0.0,2.6117,2.4744,2.4252,0.0,0.0,0.0,2.3115,2.3032,0.0,0.0,0.0,2.1531,2.1342,0.0,0.0,0.0,0.0,0.0,0.0,0.0,0.0,0.0,0.0,0.0,0.0,0.0,0.0,0.0,0.0,2.7336,2.8687,2.9817,2.9114,2.885,2.9854,2.9967,3.0369,3.1386,3.1537,3.1633,3.1683,3.219,3.2717,3.3253,0.0,0.0,0.0,0.0,3.4728,3.4791,3.4791,3.4828,3.4879,3.4879,3.4879,3.4879,3.4879,3.4879,3.4879,3.4879,3.4879,3.4879,3.4879,3.4879,3.4879,3.4753,3.4703,3.4537,3.3158,3.2125,3.1356,3.0856,0.0,0.0,3.0705,3.0705,3.0705,3.0705,3.0705,3.0705,3.0705,3.0705,3.0683,3.0592,3.0547,3.0512,3.041,3.0479,3.0547,3.0547,3.0637,3.0705,3.0705,3.0705,3.0976,3.1805,3.0371,2.929,2.982,2.9559,2.9431,2.9853,2.9526,2.9246,2.9139,0.0,0.0,2.9036,2.9024,2.8806,2.8277,2.8138,2.7478,2.6096,2.5041,2.4363,2.4117,2.3793,2.3525,2.3339,2.3339,2.3237,2.3033,2.2522,2.2143,0.0,0.0,0.0,0.0,0.0,0.0,0.0,0.0,0.0,0.0,0.0,0.0,0.0,0.0,0.0,2.7856,2.8853,2.9842,3.0954,3.0896,3.0834,3.1047,3.1105,3.1336,3.1989,3.2478,3.2952,3.3382,3.39,3.4264,3.4377,3.449,3.459,3.4703,3.4703,3.4916,3.5332,3.5345,3.5581,3.6067,0.0,0.0,3.6067,3.6067,3.6067,3.6067,3.6067,3.6067,3.6067,3.6067,3.6067,3.5979,3.5064,3.4703,3.4655,3.4362,3.4131,3.3971,3.3872,3.3835,3.3835,3.3835,3.3835,3.3835,3.3835,3.3835,0.0,3.3835,3.3835,3.3664,3.2887,3.2703,3.2484,3.1681,3.2113,3.2703,3.2703,3.3288,3.3835,3.3835,3.3835,3.3892,3.4073,3.24,3.137,3.2265,3.2321,3.2296,3.2386,3.2321,3.1967,3.1159,3.1071,3.087,3.0453,3.0417,3.0212,2.9729,2.9028,2.833,2.7605,2.6708,2.5968,2.5439,2.4682,2.4279,2.426,2.426,2.4154,2.3931,2.3124,2.2543,0.0,0.0,0.0,0.0,0.0,0.0,0.0,0.0,0.0,0.0,0.0,2.5218,2.6219,0.0,2.7961,2.9032,2.9982,3.0871,3.1687,3.2051,3.2148,3.1838,3.2064,3.2474,3.3006,3.3571,3.401,3.4276,3.454,3.4828,3.5092,3.5117,3.5242,3.5529,3.5644,3.5783,3.5956,3.6037,3.6199,3.6405,3.6405,3.6405,3.6405,3.6499,3.6557,3.6557,3.6557,3.6557,3.6534,3.6428,3.6405,3.6331,3.5778,3.5542,3.5504,3.5205,3.5117,3.5067,3.4791,3.4703,3.4703,3.4703,3.4703,3.4703,3.4703,3.4703,3.4703,3.4703,3.4703,3.4577,3.4121,3.4007,3.3857,3.3362,3.3651,3.4007,3.4007,3.4361,3.4703,3.4703,3.4703,3.4703,3.4703,3.3846,3.3232,3.3467,3.3278,3.3102,3.3102,3.3102,3.2918,3.2394,3.2351,3.224,3.197,3.1666,3.1404,3.1176,3.0085,2.9338,2.907,2.8223,2.7394,2.6605,2.6141,2.5674,2.5213,2.5213,2.5146,2.5048,2.4595,2.3845,0.0,0.0,0.0,0.0,0.0,0.0,0.0,2.4655,2.5266,2.6092,2.6288,2.6756,2.8164,2.8823,2.9391,3.0133,3.0984,3.1775,3.2453,3.2943,3.3106,3.2721,3.3106,3.3571,3.401,3.454,3.4853,3.4853,3.4954,3.5205,3.5656,3.5705,3.5952,3.6439,3.6675,3.6762,3.671,3.6876,3.6926,3.6874,3.6874,3.6874,3.6874,3.7039,3.711,3.711,3.711,3.711,3.7086,3.6886,3.674,3.6616,3.6568,3.6505,3.6331,3.5845,3.5682,3.5619,3.518,3.5039,3.5039,3.5039,3.5039,3.5039,3.5039,3.5039,3.5039,3.5039,3.5039,3.5039,3.5039,3.5039,3.5039,3.5039,3.5039,3.5039,3.5039,3.5039,3.5039,3.5039,3.5039,3.5039,3.5039,3.4929,3.4678,3.4148,3.3684,3.3416,3.3416,3.3329,3.3253,3.3253,3.3165,3.3102,3.3102,3.2641,3.2378,3.2378,3.1311,3.063,3.0521,2.9513,2.8628,2.7941,2.7514,2.7028,2.6461,2.627,2.619,2.619,2.5988,2.518,2.3781,2.3635,2.3708,2.4618,2.5181,2.578,0.0,2.7289,2.7704,2.7814,2.8624,2.9379,2.9565,3.0423,3.1279,3.1842,3.2018,3.247,3.3558,3.3771,3.396,3.4364,3.4477,3.454,3.4603,3.5104,3.5408,3.5408,3.5906,3.623,3.6293,3.6469,3.6611,3.6662,3.6922,3.7294,3.7819,3.7842,3.8073,3.8522,3.8522,3.8522,3.8522,3.8546,3.857,3.857,3.857,3.857,3.8546,3.8267,3.7891,3.7447,3.7195,3.6808,3.6405,3.6306,3.6293,3.6281,3.6218,3.6205,3.6205,3.6205,3.6205,3.6205,3.6205,3.6205,3.6205,3.6205,3.6205,3.6205,3.6205,3.6205,3.6205,3.6205,3.6205,3.6205,3.6205,3.6205,3.6205,3.6205,3.6205,3.6205,3.6205,3.578,3.5219,3.469,3.4552,3.4515,3.4515,3.411,3.3809,3.3809,3.337,3.3102,3.3102,3.304,3.3002,3.3002,3.2853,3.2527,3.1993,3.0323,2.9549,2.9785,2.8157,2.7689,2.8471,2.7645,2.7227,2.7205,2.6325,2.5708,2.5364,2.554,2.5817,2.6234,2.6734,2.7249,2.7667,2.8185,2.8668,2.9013,2.9716,3.0369,3.067,3.1348,3.1938,3.2156,3.2767,3.3357,3.3834,3.4427,3.4916,3.5132,3.5479,3.5554,3.5194,3.5785,3.6193,3.6193,3.6571,3.6805,3.6805,3.7217,3.7455,3.7455,3.8023,3.8378,3.8454,3.8635,3.8738,3.8811,3.8811,3.8811,3.8811,3.8957,3.9043,3.9043,3.9043,3.8933,3.8787,3.8665,3.8513,3.8296,3.8162,3.7998,3.767,3.6739,3.6405,3.6405,3.6405,3.6405,3.6405,3.6405,3.6405,3.6405,3.6405,3.6405,3.6405,3.6405,3.6405,3.6405,3.6405,3.6405,3.6405,3.6405,3.6405,3.6405,3.6405,3.6405,3.6405,3.6405,3.6405,3.6405,3.6405,3.6193,3.5943,3.5705,3.5127,3.4703,3.4703,3.4502,3.4374,3.4374,3.3884,3.358,3.358,3.3278,3.3102,3.3102,3.3102,3.2989,3.2717,3.2007,3.1409,3.0985,3.02,2.945,2.8735,2.835,2.7884,2.7321,2.6915,2.6669,2.6901,2.7223,2.7507,2.7507,2.7921,2.8317,2.8317,2.8869,2.9496,2.993,3.057,3.1152,3.1549,3.2064,3.2503,3.2654,3.337,3.401,3.4289,3.5017,3.5558,3.5732,3.6189,3.6312,3.5875,3.6377,3.6745,3.6815,3.7132,3.7352,3.7352,3.7974,3.8343,3.8343,3.897,3.929,3.9237,3.9445,3.9523,3.9482,3.9482,3.9482,3.9507,3.9691,3.9789,3.9789,3.9789,3.9667,3.9469,3.9396,3.9281,3.914,3.9079,3.8952,3.866,3.7483,3.7048,3.7023,3.6813,3.6739,3.6677,3.6479,3.6405,3.6405,3.6405,3.6405,3.6405,3.6405,3.6405,3.6405,3.6405,3.6405,3.6405,3.6405,3.6405,3.6405,3.6405,3.6405,3.6405,3.6405,3.6405,3.6405,3.6405,3.6405,3.6405,3.6405,3.5703,3.5177,3.5177,3.5017,3.4866,3.4715,3.4339,3.4123,3.4123,3.3759,3.3492,3.3341,3.3329,3.3253,3.3102,3.2831,3.246,3.2011,3.1735,3.1036,2.9897,2.9383,2.8771,2.8081,2.756,2.7309,2.7908,2.8059,2.8084,2.8084,2.848,2.8881,2.8881,2.9747,3.055,3.0563,3.1416,3.2156,3.2169,3.2667,3.3241,3.3759,3.3872,3.4274,3.5307,3.547,3.5719,3.6293,3.6545,3.6686,3.6673,3.6686,3.6815,3.7062,3.7646,3.7967,3.7967,3.8733,3.9175,3.9175,3.9442,3.9836,4.0334,4.0359,4.0659,4.1209,4.1209,4.1209,4.1209,4.1234,4.1234,4.1234,4.1234,4.1234,4.1209,4.0945,4.0533,4.0041,3.9782,3.9311,3.8774,3.8748,3.8736,3.8634,3.7833,3.7559,3.7422,3.6652,3.6405,3.6405,3.6405,3.6405,3.6405,3.6405,3.6405,3.6405,3.6405,3.6405,3.6405,3.6405,3.6405,3.6405,3.6405,3.6405,3.6405,3.6405,3.6405,3.6405,3.6405,3.6405,3.6405,3.6405,3.638,3.6355,3.6355,3.5843,3.527,3.4753,3.469,3.4678,3.4678,3.4653,3.4427,3.3909,3.3872,3.3633,3.3128,3.2164,3.2098,3.3038,3.2111,3.2055,3.2961,3.108,3.0147,3.0079,2.8175,2.7309,2.8059,2.8355,2.8631,2.8631,2.9333,3.0036,3.0036,3.0588,3.1235,3.1579,3.1943,3.242,3.3194,3.3194,3.3404,3.4299,3.4427,3.4678,3.5395,3.5959,3.6366,3.6555,3.6815,3.7038,3.7201,3.7237,3.7438,3.7929,3.8277,3.8633,3.9036,3.9678,3.9989,3.9989,4.0478,4.0803,4.101,4.101,4.109,4.1286,4.1286,4.1286,4.1286,4.1286,4.1286,4.1286,4.1286,4.1286,4.1286,4.1211,4.1068,4.0899,4.0799,4.0632,4.0451,4.0451,4.0451,4.0247,3.868,3.8251,3.8286,3.7659,3.7584,3.7681,3.7535,3.745,3.745,3.745,3.7223,3.6934,3.6934,3.6658,3.6405,3.6405,3.6405,3.6405,3.6405,3.6405,3.6405,3.6405,3.6405,3.6405,3.6405,3.6405,3.6405,3.6405,3.6405,3.6405,3.6405,3.6218,3.6042,3.5854,3.5456,3.5219,3.5219,3.4916,3.4615,3.4439,3.4427,3.4339,3.4173,3.3849,3.3814,3.4138,3.3836,3.351,3.3228,3.1843,3.0864,3.0167,2.8791,2.8162,2.8649,2.8963,2.927,2.9459,3.0061,3.0651,3.0846,3.1298,3.1788,3.2139,3.2378,3.2742,3.347,3.3341,3.3454,3.4527,3.4703,3.4977,3.581,3.6377,3.6745,3.6839,3.7085,3.7307,3.7482,3.7756,3.8098,3.8486,3.8994,3.9494,3.9873,4.0411,4.0711,4.0711,4.109,4.1286,4.1286,4.1286,4.1286,4.1286,4.1286,4.1286,4.1286,4.1286,4.1286,4.1286,4.1286,4.1286,4.1286,4.1286,4.1286,4.1286,4.1286,4.1286,4.1286,4.1286,4.1286,4.108,3.9551,3.9119,3.9154,3.8509,3.8396,3.8507,3.8347,3.8237,3.8138,3.8138,3.7825,3.7475,3.7475,3.7235,3.6972,3.6972,3.6972,3.6972,3.6972,3.6821,3.6683,3.6683,3.6543,3.6405,3.6405,3.6405,3.6405,3.6405,3.6405,3.6405,3.6405,3.6405,3.6405,3.6405,3.6044,3.5807,3.5807,3.5516,3.5228,3.5004,3.4992,3.4904,3.4703,3.4703,3.4703,3.4703,3.4703,3.4406,3.3811,3.2769,3.1935,3.1269,3.023,2.9542,2.9641,2.9817,2.9955,3.0462,3.0638,3.0834,3.1323,3.1863,3.2252,3.2252,3.2692,3.3102,3.314,3.3115,3.3467,3.4575,3.4738,3.5193,3.6533,3.6745,3.6839,3.7085,3.7366,3.7518,3.7567,3.8283,3.8762,3.8789,0.0,4.0398,4.0437,4.0972,4.1286,4.1286,4.1286,4.1286,4.1286,4.1286,4.1286,4.1286,4.1286,4.1286,4.1286,4.1286,4.1286,4.1286,4.1286,4.1286,4.1286,4.1286,4.1286,4.1286,4.1286,4.1286,4.1286,4.1286,4.1286,4.1182,4.0424,4.0155,4.0015,3.9165,3.8901,3.8888,3.8901,3.8718,3.8497,3.8497,3.83,3.8077,3.8052,3.8027,3.8027,3.8002,3.8002,3.8015,3.8002,3.7625,3.7248,3.7248,3.6808,3.6455,3.6455,3.643,3.6405,3.6405,3.6405,3.6405,3.6405,3.6405,3.6405,3.6405,3.6405,3.6405,3.6405,3.6405,3.6168,3.5571,3.5545,3.533,3.4803,3.4791,3.4791,3.4791,3.4791,3.4791,3.4778,3.3851,3.3365,3.3342,3.2347,3.1288,2.9754,3.0093,3.0425,3.0563,3.119,3.1817,3.1955,3.2441,3.2876,3.2876,3.2989,3.3228,3.3608,3.3379,3.3658,3.5315,3.5261,3.5479,3.6815,3.7168,3.733,3.7377,3.7634,3.7964,3.8369,3.899,3.9547,3.9952,4.0228,4.0594,4.1038,4.1207,4.1286,4.1286,4.1286,4.1286,4.1286,4.1286,4.1286,4.1286,4.1286,4.1286,4.1286,4.1286,4.1286,4.1286,4.1286,4.1286,4.1286,4.1286,4.1286,4.1286,4.1286,4.1286,4.1286,4.1286,4.1286,4.1273,4.1066,4.0989,4.0888,4.027,4.0206,4.0331,4.0144,4.0018,3.9917,3.9728,3.9486,3.9167,3.8768,3.8614,3.8494,3.8101,3.8138,3.8237,3.8027,3.8049,3.8022,3.7826,3.7349,3.6997,3.6997,3.6658,3.6405,3.6405,3.6405,3.6405,3.6405,3.6405,3.6405,3.6405,3.6405,3.6405,3.6405,3.6405,3.6318,3.618,3.618,3.6117,3.5967,3.5967,3.5967,3.5967,3.5967,3.5967,3.5967,3.4916,3.4426,3.439,3.3325,3.2255,3.0093,3.0382,3.0701,3.1177,3.1742,3.2256,3.2528,3.2864,3.3102,3.3102,3.3102,3.319,3.3483,3.339,3.3662,3.4949,3.5213,3.5615,3.6723,3.7245,3.7528,3.7657,3.8158,3.8698,3.9292,4.0287,4.1122,4.1676,4.1145,4.0933,4.1273,4.1286,4.1286,4.1286,4.1286,4.1286,4.1286,4.1286,4.1286,4.1286,4.1286,4.1286,4.1286,4.1286,4.1286,4.1286,0.0,4.1286,4.1286,4.1286,4.1286,4.1286,4.1286,4.1286,4.1286,4.1286,4.1286,4.1286,4.1286,4.1286,4.1236,4.0934,4.0959,4.1047,4.0909,4.0783,4.0643,4.0478,4.0273,3.998,3.9677,3.9561,3.9468,3.9169,3.9219,3.9282,3.9119,3.9029,3.8812,3.8287,3.7837,3.755,3.755,3.711,3.6746,3.6746,3.6545,3.6405,3.6405,3.6405,3.6405,3.6405,3.6405,3.6405,3.6405,3.6405,3.6405,3.6405,3.6405,3.6405,3.6405,3.6405,3.6405,3.6405,3.6405,3.6405,3.6405,3.5786,3.5487,3.5487,3.4872,3.403,3.045,3.0651,3.0939,3.1943,3.2256,3.2466,3.2989,3.3102,3.3102,3.3102,3.3102,3.3102,3.3102,3.324,3.3567,3.4168,3.4904,3.5689,3.6548,3.7176,3.768,3.8024,3.8738,3.9548,4.0413,4.1716,4.2775,4.3473,4.2387,4.1647,4.1498,4.1498,4.1423,4.1286,4.1436,4.1436,4.1286,4.1436,4.1436,4.1286,4.1286,4.1286,4.1286,4.1286,4.1286,4.1286,4.1286,0.0,4.1286,4.1286,4.1286,4.1286,4.1286,4.1286,4.1286,4.1286,4.1286,4.1286,4.1286,4.1286,4.1286,4.1286,4.1286,4.1286,4.1286,4.1122,4.0946,4.0908,4.077,4.058,4.0529,4.0555,4.058,4.0504,4.0529,4.0529,4.0504,4.0119,3.9583,3.8837,3.8401,3.8177,3.8128,3.7663,3.7323,3.7323,3.6909,3.6606,3.6531,3.6431,3.6405,3.6405,3.6405,3.6405,3.6405,3.6405,3.6405,3.6405,3.6405,3.6405,3.6405,3.6405,3.6405,3.6405,3.6405,3.6405,3.6405,3.6405,3.6405,3.6405,3.6405,3.5847,3.045,3.0922,3.1411,3.2031,3.2566,3.2977,3.3077,3.3102,3.3102,3.3102,3.3102,3.3102,3.3102,3.3133,3.3451,3.4377,3.5071,3.5835,3.6785,3.7453,3.8125,3.8868,3.9099,3.9965,4.1915,4.2349,4.2958,4.4059,4.3929,4.3416,4.2587,4.2539,4.2161,4.1336,4.2101,4.215,4.1311,4.2126,4.2126,4.1286,4.1286,4.1286,4.1286,4.1286,4.1286,4.1286,4.1286,0.0,4.1286,4.1286,4.1286,4.1286,4.1286,4.1286,4.1286,4.1286,4.1286,4.1286,4.1286,4.1286,4.1286,4.1286,4.1286,4.1286,4.1286,4.1261,4.1186,4.0959,4.1022,4.106,4.0605,4.0833,4.1035,4.0605,4.0669,4.077,4.0555,4.0427,4.0312,4.0159,3.9562,3.9007,3.8768,3.8241,3.7864,3.7864,3.7789,3.755,3.7122,3.6658,3.6405,3.6405,3.6405,3.6405,3.6405,3.6405,3.6405,3.6405,3.6405,3.6405,3.6405,3.6405,3.6405,3.6405,3.6405,3.6405,3.6405,3.6405,3.6405,3.6405,3.6405,3.5847,3.045,3.0997,3.1524,3.2077,3.2641,3.3102,3.3102,3.2864,3.2629,3.2629,3.2424,3.2311,3.2579,3.2756,3.3115,3.3982,3.4997,3.5875,3.6457,3.7325,3.8226,3.9099,3.9637,4.0799,4.3002,4.3683,4.448,4.5766,4.5853,4.519,4.3664,4.3569,4.3368,4.2892,4.3321,4.3344,4.2867,4.3344,4.3344,4.2854,4.2333,4.2077,4.2052,4.1547,4.1286,4.1286,4.1286,0.0,4.1286,4.1286,4.1286,4.1286,4.1286,4.1286,4.1286,4.1286,4.1286,4.1286,4.1286,4.1286,4.1286,4.1286,4.1286,4.1286,4.1286,4.1286,4.1261,4.1122,4.1211,4.1236,4.0985,4.111,4.1249,4.0985,4.101,4.1072,4.0934,4.0808,4.0669,4.0529,4.0083,3.9626,3.9346,3.8856,3.8479,3.8479,3.8203,3.7914,3.7651,3.7374,3.7022,3.6468,3.6405,3.6405,3.6405,3.6405,3.6405,3.6405,3.6405,3.6405,3.6405,3.6405,3.6405,3.6405,3.6405,3.6405,3.6405,3.6405,3.6405,3.6405,3.6405,3.6108,3.045,3.0922,3.1348,3.1901,3.2466,3.2889,3.2763,3.2453,3.2156,3.2043,3.1687,3.1524,3.1951,3.2327,3.2805,3.3427,3.471,3.5716,3.604,3.7037,3.8149,3.9351,4.0138,4.1554,4.3968,4.4863,4.5858,4.7204,4.7309,4.6506,4.473,4.4429,4.4312,4.4312,4.4522,4.4522,4.4312,4.4508,4.4508,4.4289,4.3497,4.3129,4.3105,4.2077,4.1609,4.1622,4.1386,0.0,0.0,4.1286,4.1286,4.1286,4.1286,4.1286,4.1286,4.1286,4.1286,4.1286,4.1286,4.1286,4.1286,4.1286,4.1286,4.1286,4.1286,4.1286,4.1286,4.1286,4.1286,4.1286,4.1286,4.1286,4.1286,4.1286,4.1286,4.1286,4.1286,4.1122,4.0921,4.0631,4.0364,4.0109,3.9839,3.9384,3.907,3.907,3.8668,3.8329,3.8203,3.8191,3.7814,3.6846,3.6632,3.6507,3.6417,3.6405,3.6405,3.6405,3.6405,3.6405,3.6405,3.6405,3.6405,3.6405,3.6405,3.6405,3.6405,3.6405,3.6405,3.6405,3.6405,3.6405,3.045,3.0638,3.0789,3.1336,3.1888,3.2164,3.1683,3.1888,3.2056,3.1574,3.1424,3.1432,3.1449,3.2095,3.2678,3.2923,3.4096,3.5241,3.5987,3.6671,3.7941,4.0211,4.0546,4.1788,4.487,4.5248,4.5858,4.7204,4.7309,4.6829,4.5711,4.48,4.4312,4.4312,4.519,4.5221,4.4312,4.5212,4.5212,4.4312,4.4219,4.4172,4.4125,4.3129,4.2647,4.2598,4.1708,0.0,0.0,4.1286,4.1286,4.1286,4.1286,4.1286,4.1286,4.1286,4.1286,4.1286,4.1286,4.1286,4.1286,4.1286,4.1286,4.1286,4.1286,4.1286,4.1286,4.1286,4.1286,4.1286,4.1286,4.1286,4.1286,4.1286,4.1286,4.1286,4.1286,4.1286,4.1186,4.0921,4.0643,4.0377,4.0109,3.9814,3.9622,3.9622,3.9572,3.9358,3.8881,3.8818,3.858,3.7914,3.7436,3.6934,3.6455,3.6405,3.6405,3.6405,3.6405,3.6405,3.6405,3.6405,3.6405,3.6405,3.6405,3.6405,3.6405,3.6405,3.6405,3.6405,3.6405,3.6405,3.0068,3.0337,3.0651,3.0871,3.1323,3.1662,3.1436,3.1323,3.1165,3.0972,3.0658,3.0532,3.0859,3.1577,3.2291,3.2808,3.4031,3.5189,3.5974,3.6619,3.7896,4.0305,4.0603,4.1831,4.4989,4.5289,4.5858,4.7204,4.7309,4.7142,4.6704,4.6314,4.6114,4.6114,4.6506,4.6506,4.6114,4.6506,4.6506,4.6114,4.5485,4.5212,4.5153,4.4158,4.3687,4.364,4.2636,0.0,0.0,4.1547,4.1286,4.1286,4.1286,4.1286,4.1286,4.1286,4.1286,4.1286,4.1286,4.1286,4.1286,4.1286,4.1286,4.1286,4.1286,4.1286,4.1286,4.1286,4.1286,4.1286,4.1286,4.1286,4.1286,4.1286,4.1286,4.1286,4.1286,4.1286,4.1211,4.0933,4.0669,4.0415,4.016,3.989,3.9697,3.9697,3.9697,3.9609,3.9421,3.9396,3.9183,3.8605,3.8015,3.7588,3.7374,3.7072,3.6884,3.6884,3.6593,3.6405,3.6405,3.6405,3.6405,3.6405,3.6405,3.6405,3.6405,3.6405,3.6405,3.6405,3.6405,3.6405,2.9792,3.008,3.0369,3.0369,3.0771,3.1122,3.0947,3.0758,3.055,3.0387,3.0068,2.9924,3.0372,3.1235,3.2087,3.2654,3.3879,3.508,3.5983,3.6705,3.8012,4.032,4.1015,4.2364,4.5025,4.5648,4.6277,4.7234,4.7309,4.7309,4.7309,4.7309,4.7309,4.7309,4.7309,4.7309,4.7309,4.7309,4.7309,4.7287,4.6594,4.6233,4.6211,4.5212,4.4739,4.4693,4.3687,0.0,0.0,4.215,4.1733,4.1708,4.1411,4.1286,4.1286,4.1286,4.1286,4.1286,4.1286,4.1286,4.1286,4.1286,4.1286,4.1286,4.1286,4.1286,4.1286,4.1286,4.1286,4.1286,4.1286,4.1286,4.1286,4.1286,4.1286,4.1286,4.1286,4.1286,4.1236,4.1047,4.0795,4.0516,4.0262,3.9993,3.9788,3.9723,3.9697,3.9697,3.9697,3.9697,3.9546,3.9183,3.8743,3.8366,3.804,3.7651,3.7425,3.7425,3.6934,3.6632,3.6632,3.6469,3.6405,3.6405,3.6405,3.6405,3.6405,3.6405,3.6405,3.6405,3.6405,3.6405,2.9792,2.9792,2.9804,2.9804,3.0218,3.0462,2.993,3.0231,3.0437,2.9917,2.9792,2.9869,3.0068,3.1193,3.2167,3.2373,3.3523,3.4803,3.594,3.6906,3.8264,4.0342,4.2023,4.3596,4.5147,4.6501,4.7294,4.7309,4.7309,0.0,4.7309,4.7309,4.7309,4.7309,4.7309,4.7309,4.7309,4.7309,4.7309,4.7309,4.7287,4.7287,4.7251,4.6233,4.5779,0.0,0.0,0.0,0.0,4.3187,4.2792,4.2695,4.1683,4.1286,4.1286,4.1286,4.1286,4.1286,4.1286,4.1286,4.1286,4.1286,4.1286,4.1286,4.1286,4.1286,4.1286,4.1286,4.1286,4.1286,4.1286,4.1286,4.1286,4.1286,4.1286,4.1286,4.1286,4.1286,4.1286,4.1286,4.1072,4.082,4.0529,4.0262,4.0006,3.9736,3.9697,3.9697,3.9697,3.9697,3.9697,3.9685,3.9685,3.922,3.8103,3.8002,3.8002,3.8002,3.7475,3.7198,3.7198,3.667,3.6405,3.6405,3.6405,3.6405,3.6405,3.6405,3.6405,3.6405,3.6405,3.6405,2.9691,2.9792,2.9792,2.9792,2.993,3.0005,2.9829,2.993,3.0005,2.9849,2.9792,2.9869,3.0068,3.1193,3.2167,3.236,3.3543,3.4789,3.594,3.6914,3.8271,4.0342,4.2962,4.476,4.5254,4.6516,4.7309,4.7309,4.7309,4.7309,4.7309,4.7309,4.7309,4.7309,4.7309,4.7309,4.7309,4.7309,4.7309,4.7309,4.7309,4.7309,4.7287,4.6975,4.6829,0.0,0.0,0.0,0.0,4.4228,4.3829,4.3725,4.2709,4.2333,4.2235,4.1547,4.1286,4.1286,4.1286,4.1286,4.1286,4.1286,4.1286,4.1286,4.1286,4.1286,4.1286,4.1286,4.1286,4.1286,4.1286,4.1286,4.1286,4.1286,4.1286,4.1286,4.1286,4.1286,4.1286,4.1286,4.1072,4.082,4.0555,4.0287,4.0006,3.9736,3.9697,3.9697,3.9697,3.9697,3.9697,3.9697,3.9697,3.9546,3.9182,3.8843,3.8617,3.8617,3.8065,3.7751,3.7751,3.7575,3.7336,3.6947,3.6947,3.6758,3.6405,3.6405,3.6405,3.6405,3.6405,3.6405,2.9296,2.9628,2.9792,2.9792,2.9792,2.9792,2.9792,2.9792,2.9792,2.9792,2.9792,2.9888,3.0152,3.1252,3.2187,3.246,3.3571,3.4916,3.6424,3.7433,3.9027,4.1684,4.3962,4.5394,4.5663,4.6666,4.7309,4.7309,4.7309,4.7309,4.7309,4.7309,4.7309,4.7309,4.7309,4.7309,4.7309,4.7309,4.7309,4.7309,4.7309,4.7309,4.7309,4.7309,4.7309,0.0,0.0,0.0,0.0,4.5281,4.4869,4.4776,4.3758,4.3355,4.3235,4.2248,4.1868,4.1819,4.1436,4.1286,4.1286,4.1286,4.1286,4.1286,4.1286,4.1286,4.1286,4.1286,4.1286,4.1286,4.1286,4.1286,4.1286,4.1286,4.1286,4.1286,4.1286,4.1286,4.1286,4.1286,4.1186,4.0921,4.0555,4.0364,4.0134,3.9774,3.9697,3.9697,3.9697,3.9697,3.9697,3.9697,3.9697,3.9697,3.9697,3.9383,3.9208,3.9208,3.8642,3.8329,3.8329,3.8115,3.7839,3.75,3.75,3.7349,3.6997,3.6997,3.6997,3.6997,3.6997,3.6997,0.0,2.9296,2.9792,2.9792,2.9792,2.9792,2.9792,2.9792,0.0,2.9792,2.9811,2.9946,3.0381,3.1375,3.2247,3.2691,3.3718,3.5165,3.7207,3.8442,4.0408,4.3895,4.4885,4.5559,4.6226,4.6899,4.7309,4.7309,4.7309,4.7309,4.7309,4.7309,4.7309,4.7309,4.7309,4.7309,4.7309,4.7309,4.7309,4.7309,4.7309,4.7309,4.7309,4.7309,4.7309,0.0,0.0,0.0,0.0,4.6277,4.5906,4.5816,4.48,4.4406,4.4275,4.3283,4.2913,4.2768,4.1843,4.1486,4.1386,4.1311,4.1286,4.1286,4.1286,4.1286,4.1286,4.1286,4.1286,4.1286,4.1286,4.1286,4.1286,4.1286,4.1286,4.1286,4.1286,4.1286,4.1286,4.1286,4.1286,4.1135,4.0631,4.0504,4.0326,3.9813,3.9723,3.9697,3.9697,3.9697,3.9697,3.9697,3.9697,3.9697,3.9697,3.9697,3.9697,3.9697,3.9245,3.8957,3.8957,3.8417,3.8103,3.8065,3.8027,3.8002,3.8002,3.8002,3.8002,3.8002,3.8002,3.8002,2.8242,0.0,2.9792,2.9792,2.9792,2.9792,0.0,2.9792,2.9792,2.9792,2.9914,3.0221,3.0893,3.1744,3.2563,3.3259,3.4332,3.5653,3.7274,3.9682,4.2033,4.4055,4.4885,4.5559,4.6226,4.6899,4.7309,4.7309,4.7309,4.7309,4.7309,4.7309,4.7309,4.7309,4.7309,4.7309,4.7309,4.7309,4.7309,4.7309,4.7309,4.7309,4.7309,4.7309,4.7309,0.0,0.0,0.0,4.7287,4.704,4.6953,4.6851,4.5838,4.544,4.5326,4.4322,4.3947,4.39,4.3677,4.3081,4.2333,4.1547,4.1286,4.1286,4.1286,4.1286,4.1286,4.1286,4.1286,4.1286,4.1286,4.1286,4.1286,4.1286,4.1286,4.1286,4.1286,4.1286,4.1286,4.1286,4.1286,4.1186,4.0871,4.0643,4.0402,4.0057,3.9839,3.9697,3.9697,3.9697,3.9697,3.9697,3.9697,3.9697,3.9697,3.9697,3.9697,3.9697,3.9572,3.9522,3.9522,3.9371,3.9094,3.8705,3.8228,3.8002,3.8002,3.8002,3.8002,3.8002,3.8002,3.8002,2.8109,2.8925,2.9792,2.9792,2.9792,2.9792,2.9792,2.9792,2.9792,2.9792,3.009,3.0518,3.1091,3.2305,3.3309,3.3555,3.524,3.7112,3.89,4.1134,4.2907,4.3743,4.4706,4.5439,4.5813,4.6741,4.7309,4.7309,4.7309,4.7309,4.7309,4.7309,4.7309,4.7309,4.7309,4.7309,4.7309,4.7309,4.7309,4.7309,4.7309,4.7309,4.7309,4.7309,4.7309,0.0,0.0,0.0,4.7309,4.7309,4.7309,4.7251,4.6704,4.6491,4.6381,4.5349,4.4984,4.4938,4.4475,4.3923,4.3392,4.2854,4.2357,4.1991,4.1991,4.1658,4.1286,4.1286,4.1286,4.1286,4.1286,4.1286,4.1286,4.1286,4.1286,4.1286,4.1286,4.1286,4.1286,4.1286,4.1286,4.1211,4.0946,4.0795,4.0542,4.0147,3.9981,3.9839,3.9723,3.9697,3.9697,3.9697,3.9697,3.9697,3.9697,3.9697,3.9697,3.9697,3.9697,3.9697,3.9697,3.9697,3.9546,3.9283,3.8944,3.8781,3.8781,3.8781,3.8781,3.8781,3.8781,3.8781,2.8109,2.8925,2.9792,2.9792,2.9792,2.9792,2.9792,2.9792,2.9836,2.9931,3.034,3.0904,3.1576,3.3021,3.4086,3.4041,3.6367,3.8887,4.0949,4.2425,4.3334,4.3444,4.4556,4.5334,4.5439,4.6576,4.7309,4.7309,4.7309,4.7309,4.7309,4.7309,4.7309,4.7309,4.7309,4.7309,4.7309,4.7309,4.7309,4.7309,4.7309,4.7309,4.7309,4.7309,4.7309,4.7309,0.0,0.0,4.7309,4.7309,4.7309,4.7309,4.7309,4.7309,4.7207,4.6344,4.604,4.5883,4.4892,4.4522,4.4475,4.4172,4.3592,4.3009,4.2864,4.2211,4.1522,4.1522,4.1436,4.1286,4.1286,4.1286,4.1286,4.1286,4.1286,4.1286,4.1286,4.1286,4.1286,4.1286,4.1286,4.1236,4.0997,4.0933,4.0757,4.03,4.0147,4.0032,3.9788,3.9723,3.9697,3.9697,3.9697,3.9697,3.9697,3.9697,3.9697,3.9697,3.9697,3.9697,3.9697,3.9697,3.9697,3.9697,3.9697,3.9697,3.9697,3.9697,3.9697,3.9697,3.9697,3.9697,2.8109,2.8925,2.9792,2.9792,2.9792,2.9792,2.9792,2.9792,2.9975,3.0586,3.0927,3.17,3.3654,3.3827,3.4202,3.5802,3.7938,3.9981,4.1627,4.268,4.3499,4.4072,4.4825,4.5529,4.6091,4.686,4.7309,4.7309,4.7309,4.7309,4.7309,4.7309,4.7309,4.7309,4.7309,4.7309,4.7309,4.7309,4.7309,4.7309,4.7309,4.7309,4.7309,4.7309,4.7309,4.7309,0.0,4.7309,4.7309,4.7309,4.7309,4.7309,4.7309,4.7309,4.7287,4.7142,4.7062,4.6931,4.5928,4.5576,4.5289,4.3592,4.3497,4.39,4.3057,4.2695,4.2563,4.2563,4.1967,4.1286,4.1286,4.1286,4.1286,4.1286,4.1286,4.1286,4.1286,4.1286,4.1286,4.1286,4.1286,4.1286,4.1236,4.1047,4.0883,4.0782,4.0377,4.0096,4.0032,3.9839,3.9697,3.9697,3.9697,3.9697,3.9697,3.9697,3.9697,3.9697,3.9697,3.9697,3.9697,3.9697,3.9697,3.9697,3.9697,3.9697,3.9697,3.9697,3.9697,3.9697,3.9697,3.9697,2.8109,2.8925,2.983,2.9934,2.9953,3.0067,3.0468,3.0571,3.0743,3.1408,3.1866,3.2615,3.4205,3.5189,3.6617,3.9262,4.0129,4.0977,4.2489,4.3036,4.3409,4.3728,4.4676,4.5424,4.5738,4.6696,4.7309,4.7309,4.7309,4.7309,4.7309,4.7309,4.7309,4.7309,4.7309,4.7309,4.7309,4.7309,4.7309,4.7309,4.7309,4.7309,4.7309,4.7309,4.7309,4.7309,0.0,4.7309,4.7309,4.7309,4.7309,4.7309,4.7309,4.7309,4.7309,4.7309,4.7309,4.7229,4.6785,4.6616,4.6447,4.5531,4.519,4.4923,4.3923,4.3235,4.2695,4.215,4.1658,4.1286,4.1286,4.1286,4.1286,4.1286,4.1286,4.1286,4.1286,4.1286,4.1286,4.1286,4.1286,4.1286,4.1286,4.1211,4.1072,4.0908,4.0681,4.0427,4.0134,3.9981,3.9865,3.9723,3.9697,3.9697,3.9697,3.9697,3.9697,3.9697,3.9697,3.9697,3.9697,3.9697,3.9697,3.9697,3.9697,3.9697,3.9697,3.9697,3.9697,3.9697,3.9697,3.9697,2.8109,2.8925,2.985,3.0049,3.0068,3.0246,3.1015,3.1162,3.1367,3.2199,3.2857,3.3628,3.4754,3.6671,3.8884,4.1366,4.151,4.1789,4.3116,4.329,4.329,4.329,4.4476,4.5289,4.5289,4.6516,4.7309,4.7309,4.7309,4.7309,4.7309,4.7309,4.7309,4.7309,4.7309,4.7309,4.7309,4.7309,4.7309,4.7309,4.7309,4.7309,4.7309,4.7309,4.7309,4.7309,4.7309,4.7309,4.7309,4.7309,4.7309,4.7309,4.7309,4.7309,4.7309,4.7309,4.7309,4.7309,4.7309,4.7309,4.7251,4.7019,4.6425,4.5621,4.4601,4.3592,4.2622,4.1868,4.1473,4.1286,4.1286,4.1286,4.1286,4.1286,4.1286,4.1286,4.1286,4.1286,4.1286,4.1286,4.1286,4.1286,4.1286,4.1286,4.1236,4.1022,4.0933,4.0732,4.0262,4.0134,4.0006,3.9723,3.9697,3.9697,3.9697,3.9697,3.9697,3.9697,3.9697,3.9697,3.9697,3.9697,3.9697,3.9697,3.9697,3.9697,3.9697,3.9697,3.9697,3.9697,3.9697,3.9697,2.8109,2.8925,2.985,3.0049,2.9953,3.0066,3.0988,3.1057,3.1356,3.2896,3.3833,3.4787,3.6109,3.8048,3.9557,3.9864,4.1039,4.2255,4.3155,4.329,4.329,4.329,4.4476,4.5289,4.5289,4.6516,4.7309,4.7309,4.7309,4.7309,4.7309,4.7309,4.7309,4.7309,4.7309,4.7309,4.7309,4.7309,4.7309,4.7309,4.7309,4.7309,4.7309,4.7309,4.7309,4.7309,4.7309,4.7309,4.7309,4.7309,4.7309,4.7309,4.7309,4.7309,4.7309,4.7309,4.7309,4.7309,4.7309,4.7309,4.7142,4.6211,4.5846,4.5621,4.4601,4.3592,4.2792,4.2719,4.2027,4.1286,4.1286,4.1286,4.1286,4.1286,4.1286,4.1286,4.1286,4.1286,4.1286,4.1286,4.1286,4.1286,4.1286,4.1286,4.1286,4.1261,4.1047,4.0795,4.0504,4.0262,4.0006,3.9723,3.9697,3.9697,3.9697,3.9697,3.9697,3.9697,3.9697,3.9697,3.9697,3.9697,3.9697,3.9697,3.9697,3.9697,3.9697,3.9697,3.9697,3.9697,3.9697,3.9697,2.8109,2.9019,3.0067,3.0499,3.0634,3.0891,3.175,3.2162,3.2625,3.3762,3.4659,3.597,3.8313,4.0169,4.1465,4.188,4.2436,4.2915,4.325,4.329,4.3439,4.3878,4.4751,4.5469,4.5867,4.677,4.7309,4.7309,4.7309,4.7309,4.7309,4.7309,4.7309,4.7309,4.7309,4.7309,4.7309,4.7309,4.7309,4.7309,4.7309,4.7309,4.7309,4.7309,4.7309,4.7309,4.7309,4.7309,4.7309,4.7309,4.7309,4.7309,4.7309,4.7309,4.7309,4.7309,4.7309,4.7309,4.7309,4.7309,4.7229,4.6851,4.6299,4.5621,4.4601,4.3592,4.2671,4.2027,4.1597,4.1286,4.1286,4.1286,4.1286,4.1286,4.1286,4.1286,4.1286,4.1286,4.1286,4.1286,4.1286,4.1286,4.1286,4.1286,4.1286,4.1286,4.1211,4.0985,4.0555,4.0402,4.0185,3.9749,3.9697,3.9697,3.9697,3.9697,3.9697,3.9697,3.9697,3.9697,3.9697,3.9697,3.9697,3.9697,3.9697,3.9697,3.9697,3.9697,3.9697,3.9697,3.9697,3.9697,2.8402,2.9441,3.0547,3.0909,3.1371,3.1969,3.2855,3.3348,3.3834,3.4625,3.5572,3.7077,3.9884,4.1182,4.2048,4.2781,4.3115,4.329,4.329,4.329,4.3564,4.4222,4.4885,4.5559,4.6226,4.6899,4.7309,4.7309,4.7309,4.7309,4.7309,4.7309,4.7309,4.7309,4.7309,4.7309,4.7309,4.7309,4.7309,4.7309,4.7309,4.7309,4.7309,4.7309,4.7309,4.7309,4.7309,4.7309,4.7309,4.7309,4.7309,4.7309,4.7309,4.7309,4.7309,4.7309,4.7309,4.7309,4.7309,4.7309,4.7309,4.7309,4.6616,4.5666,4.4969,4.3853,4.2647,4.1967,4.1547,4.1286,4.1286,4.1286,4.1286,4.1286,4.1286,4.1286,4.1286,4.1286,4.1286,4.1286,4.1286,4.1286,4.1286,4.1286,4.1286,4.1286,4.1286,4.1135,4.0669,4.0555,4.03,3.9774,3.9697,3.9697,3.9697,3.9697,3.9697,3.9697,3.9697,3.9697,3.9697,3.9697,3.9697,3.9697,3.9697,3.9697,3.9697,3.9697,3.9697,3.9697,3.9697,3.9697,2.9048,3.0177,3.1201,3.1214,3.2067,3.3196,3.4253,3.451,3.4739,3.5547,3.6646,3.8157,4.0573,4.0805,4.0923,4.1867,4.2754,4.329,4.329,4.329,4.3564,4.4222,4.49,4.5574,4.6241,4.6899,4.7309,4.7309,4.7309,4.7309,0.0,4.7309,4.7309,4.7309,4.7309,4.7309,4.7309,4.7309,4.7309,4.7309,4.7309,4.7309,4.7309,4.7309,4.7309,4.7309,4.7309,4.7309,4.7309,4.7309,4.7309,4.7309,4.7309,4.7309,4.7309,4.7309,4.7309,4.7309,4.7309,4.7309,4.7309,4.7309,4.6616,4.5801,4.5801,4.4401,4.2816,4.2792,4.2077,4.1311,4.1286,4.1286,4.1286,4.1286,4.1286,4.1286,4.1286,4.1286,4.1286,4.1286,4.1286,4.1286,4.1286,4.1286,4.1286,4.1286,4.1286,4.1211,4.0933,4.0669,4.03,3.9774,3.9697,3.9697,3.9697,3.9697,3.9697,3.9697,3.9697,3.9697,3.9697,3.9697,3.9697,3.9697,3.9697,3.9697,3.9697,3.9697,3.9697,3.9697,3.9697,3.9697,2.8849,3.0075,3.1264,3.1541,3.2953,3.4386,3.4935,3.4928,3.5372,3.7441,3.901,4.0409,4.175,4.2256,4.2583,4.2875,4.313,4.329,4.329,4.329,4.3728,4.487,4.517,4.5753,4.6884,4.7189,4.7309,4.7309,4.7309,4.7309,0.0,4.7309,4.7309,4.7309,4.7309,4.7309,4.7309,4.7309,4.7309,4.7309,4.7309,4.7309,4.7309,4.7309,4.7309,4.7309,4.7309,4.7309,4.7309,4.7309,4.7309,4.7309,4.7309,4.7309,4.7309,4.7309,4.7309,4.7309,4.7309,4.7309,4.7309,4.7309,4.6616,4.5801,4.5801,4.4877,4.3711,4.3009,4.2587,4.2186,4.1473,4.1286,4.1286,4.1286,4.1286,4.1286,4.1286,4.1286,4.1286,4.1286,4.1286,4.1286,4.1286,4.1286,4.1286,4.1286,4.1286,4.1211,4.0933,4.0338,3.9942,3.9981,3.9813,3.9788,3.9981,3.9981,3.9981,3.9981,3.9981,3.9916,3.9723,3.9697,3.9697,3.9697,3.9697,3.9697,3.9697,3.9697,3.9697,3.9697,3.9697,3.9697,2.9371,3.0689,3.1927,3.2489,3.3907,3.5423,3.6463,3.6627,3.7181,3.9381,4.0488,4.1407,4.2549,4.2783,4.2895,4.325,4.329,4.329,4.329,4.329,4.3803,4.514,4.5289,4.5828,4.7174,4.7309,4.7309,4.7309,4.7309,0.0,0.0,4.7309,4.7309,4.7309,4.7309,4.7309,4.7309,4.7309,4.7309,4.7309,4.7309,4.7309,4.7309,4.7309,4.7309,4.7309,4.7309,4.7309,4.7309,4.7309,4.7309,4.7309,4.7309,4.7309,4.7309,4.7309,4.7309,4.7309,4.7309,4.7309,4.7309,4.7309,4.6894,4.6403,4.6403,4.5689,4.4762,4.4167,4.3711,4.3153,4.215,4.1893,4.1807,4.1386,4.1286,4.1286,4.1286,4.1286,4.1286,4.1286,4.1286,4.1286,4.1286,4.1286,4.1286,4.1286,4.1286,4.1211,4.0933,4.0491,4.0185,4.0236,4.0019,3.9955,4.0236,4.0147,4.016,4.0236,4.016,4.0032,3.9865,3.9762,3.9697,3.9697,3.9697,3.9697,3.9697,3.9697,3.9697,3.9697,3.9697,3.9697,3.0306,3.1688,3.2968,3.3692,3.4897,3.6458,3.8472,3.9122,3.9734,4.1171,4.1317,4.1631,4.3031,4.2638,4.2395,4.317,4.329,4.329,4.329,4.329,4.3803,4.514,4.5289,4.5828,4.7174,4.7309,4.7309,4.7309,0.0,0.0,0.0,4.7309,4.7309,4.7309,4.7309,4.7309,4.7309,4.7309,4.7309,4.7309,4.7309,4.7309,4.7309,4.7309,4.7309,4.7309,4.7309,4.7309,4.7309,4.7309,4.7309,4.7309,4.7309,4.7309,4.7309,4.7309,4.7309,4.7309,4.7309,4.7309,4.7309,4.7309,4.7309,4.7309,4.7309,4.666,4.5928,4.5824,4.513,4.4219,4.3187,4.2937,4.2671,4.1683,4.1361,4.1286,4.1286,4.1286,4.1286,4.1286,4.1286,4.1286,4.1286,4.1286,4.1286,4.1286,4.1286,4.1186,4.0959,4.0883,4.0795,4.0555,4.0287,4.0236,4.0504,4.0313,4.0287,4.0529,4.0313,4.0147,4.0096,3.9839,3.9697,3.9697,3.9697,3.9697,3.9697,3.9697,3.9697,3.9697,3.9697,3.9697,3.0018,3.1784,3.3441,3.3621,3.5671,3.8073,3.969,4.0499,4.1092,4.1735,4.2384,4.2912,4.3255,4.315,4.309,4.327,4.329,4.329,4.329,4.329,4.3803,4.514,4.5289,4.5828,4.7174,4.7309,4.7309,4.7309,0.0,0.0,4.7309,4.7309,4.7309,4.7309,4.7309,4.7309,4.7309,4.7309,4.7309,0.0,4.7309,4.7309,4.7309,4.7309,4.7309,4.7309,4.7309,4.7309,4.7309,4.7309,4.7309,4.7309,4.7309,4.7309,4.7309,4.7309,4.7309,4.7309,4.7309,4.7309,4.7309,4.7309,4.7309,4.7309,4.7309,4.7142,4.6807,4.6018,4.5644,4.5258,4.4228,4.3984,4.3711,4.2733,4.1868,4.1286,4.1286,4.1286,4.1286,4.1286,4.1286,4.1286,4.1286,4.1286,4.1286,4.1286,4.1122,4.1047,4.1186,4.0858,4.0643,4.0795,4.0567,4.0516,4.0795,4.0757,4.0757,4.082,4.0757,4.0529,4.0121,3.9839,3.9697,3.9697,3.9697,3.9697,3.9697,3.9697,3.9697,3.9697,3.9697,3.9697,3.017,3.1957,3.3948,3.5438,3.7293,3.9136,4.0558,4.1149,4.1628,4.2454,4.2975,4.329,4.329,4.329,4.329,4.329,4.329,4.329,4.329,4.329,4.3683,4.4706,4.5095,4.5708,4.6719,4.7115,4.7309,4.7309,0.0,4.7309,4.7309,4.7309,4.7309,4.7309,4.7309,4.7309,4.7309,4.7309,4.7309,4.7309,4.7309,4.7309,4.7309,4.7309,4.7309,4.7309,4.7309,4.7309,4.7309,4.7309,4.7309,4.7309,4.7309,4.7309,4.7309,4.7309,4.7309,4.7309,4.7309,4.7309,4.7309,4.7309,4.7309,4.7309,4.7309,4.7309,4.7186,4.666,4.6513,4.6292,4.5281,4.5015,4.4762,4.3758,4.2757,4.1893,4.1411,4.1286,4.1286,4.1286,4.1286,4.1286,4.1286,4.1286,4.1286,4.1286,4.1186,4.1122,4.1286,4.106,4.0934,4.1072,4.0846,4.0795,4.1072,4.0959,4.0933,4.1072,4.0972,4.0782,4.0504,4.0109,3.9839,3.9697,3.9697,3.9697,3.9697,3.9697,3.9697,3.9697,3.9697,3.9697,3.0533,3.237,3.4733,3.7659,3.8903,3.975,4.1085,4.1403,4.1762,4.304,4.329,4.329,4.329,4.329,4.329,4.329,4.329,4.329,4.329,4.329,4.3564,4.4222,4.4796,4.5439,4.6226,4.6794,4.7189,0.0,0.0,4.7309,4.7309,4.7309,4.7309,4.7309,4.7309,4.7309,4.7309,4.7309,4.7309,4.7309,4.7309,4.7309,4.7309,4.7309,4.7309,4.7309,4.7309,4.7309,4.7309,4.7309,4.7309,4.7309,4.7309,4.7309,4.7309,4.7309,4.7309,4.7309,4.7309,4.7309,4.7309,4.7309,4.7309,4.7309,4.7309,4.7309,4.7309,4.7309,4.7309,4.7121,4.6277,4.6062,4.5816,4.48,4.3923,4.2985,4.1819,4.1572,4.1498,4.1336,4.1286,4.1286,4.1286,4.1286,4.1286,4.1286,4.1286,4.1286,4.1286,4.1286,4.1286,4.1286,4.1097,4.1047,4.1286,4.1097,4.1047,4.1286,4.1097,4.0933,4.0908,4.0478,4.0083,3.9774,3.9723,3.9697,3.9697,3.9697,3.9697,3.9697,3.9697,3.9697,3.0925,3.3398,3.633,3.8656,3.9334,3.975,4.1085,4.1403,4.1762,4.304,4.329,4.329,4.329,4.329,4.329,4.329,4.329,4.329,4.329,4.329,4.3564,4.4222,4.4371,4.4925,4.6181,4.6375,4.6674,0.0,4.7309,4.7309,4.7309,4.7309,4.7309,4.7309,4.7309,4.7309,4.7309,4.7309,4.7309,4.7309,4.7309,4.7309,4.7309,4.7309,4.7309,4.7309,4.7309,4.7309,4.7309,4.7309,4.7309,4.7309,4.7309,4.7309,4.7309,4.7309,4.7309,4.7309,4.7309,4.7309,4.7309,4.7309,4.7309,4.7309,4.7309,4.7309,4.7309,4.7309,4.7309,4.7287,4.7142,4.7099,4.6851,4.5838,4.5508,4.49,4.3009,4.2598,4.2333,4.1473,4.1286,4.1286,4.1286,4.1286,4.1286,4.1286,4.1286,4.1286,4.1286,4.1286,4.1286,4.1286,4.1261,4.1261,4.1286,4.1261,4.1261,4.1286,4.1261,4.1122,4.0908,4.0833,4.0554,4.0057,3.9813,3.9697,3.9697,3.9697,3.9697,3.9697,3.9697,3.9697,3.2526,3.4573,3.6618,3.885,3.9406,3.975,4.1085,4.1403,4.1762,4.304,4.329,4.329,4.329,4.329,4.329,4.329,4.329,4.329,4.329,4.329,4.3409,4.3698,4.4072,4.4521,4.5119,4.5508,4.5858,0.0,4.6187,4.6352,4.6719,4.6734,4.6899,4.7294,4.7309,4.7309,4.7309,4.7309,4.7309,4.7309,4.7309,4.7309,4.7309,4.7309,4.7309,4.7309,4.7309,4.7309,4.7309,4.7309,4.7309,4.7309,4.7309,4.7309,4.7309,4.7309,4.7309,4.7309,4.7309,4.7309,4.7309,4.7309,4.7309,4.7309,4.7309,4.7309,4.7309,4.7309,4.7309,4.7309,4.7309,4.7309,4.7186,4.6763,4.6638,4.6233,4.4794,4.3616,4.249,4.1498,4.1286,4.1286,4.1286,4.1286,4.1286,4.1286,4.1286,4.1286,4.1286,4.1286,4.1286,4.1286,4.1286,4.1286,4.1286,4.1286,4.1286,4.1286,4.1286,4.1236,4.1135,4.0997,4.0719,4.0338,4.0057,3.9865,3.9697,3.9697,3.9697,3.9697,3.9697,3.9697,3.3626,3.5309,3.6746,3.8624,3.9247,3.975,4.1085,4.1403,4.1762,4.304,4.329,4.329,4.329,4.329,4.329,4.329,4.329,4.329,4.329,4.329,4.329,4.329,4.3743,4.4102,4.4282,4.4751,4.511,0.0,4.5289,4.5529,4.6016,4.6046,4.6345,4.7018,4.7055,4.713,4.7309,4.7309,4.7309,4.7309,4.7309,4.7309,4.7309,4.7309,4.7309,4.7309,4.7309,4.7309,4.7309,4.7309,4.7309,4.7309,4.7309,4.7309,4.7309,4.7309,4.7309,4.7309,4.7309,4.7309,4.7309,4.7309,4.7309,4.7309,4.7309,4.7309,4.7309,4.7309,4.7309,4.7309,4.7309,4.7309,4.7309,4.7309,4.7309,4.6953,4.5689,4.4027,4.249,4.1498,4.1286,4.1286,4.1286,4.1286,4.1286,4.1286,4.1286,4.1286,4.1286,4.1286,4.1286,4.1286,4.1286,4.1286,4.1286,4.1286,4.1286,4.1286,4.1286,4.1286,4.1286,4.1097,4.0871,4.0605,4.0338,4.0032,3.9697,3.9697,3.9697,3.9697,3.9697,3.9697,3.335,3.5217,3.7084,3.8023,3.883,3.975,4.1085,4.1403,4.1762,4.304,4.329,4.329,4.329,4.329,4.329,4.329,4.329,4.329,4.329,4.329,4.329,4.329,4.3319,4.3609,4.4237,4.4326,4.4631,0.0,4.5289,4.5304,4.5349,4.5349,4.5663,4.633,4.6345,4.6659,4.7294,4.7309,4.7309,4.7309,4.7309,4.7309,4.7309,4.7309,4.7309,4.7309,4.7309,4.7309,4.7309,4.7309,4.7309,4.7309,4.7309,4.7309,4.7309,4.7309,4.7309,4.7309,4.7309,4.7309,4.7309,4.7309,4.7309,4.7309,4.7309,4.7309,4.7309,4.7309,4.7309,4.7309,4.7309,4.7309,4.7309,4.7309,4.7309,4.6763,4.48,4.3545,4.249,4.1498,4.1286,4.1286,4.1286,4.1286,4.1286,4.1286,4.1286,4.1286,4.1286,4.1286,4.1286,4.1286,4.1286,4.1286,4.1286,4.1286,4.1286,4.1286,4.1286,4.1286,4.1286,4.1286,4.1147,4.0883,4.0618,4.0224,3.9697,3.9697,3.9697,3.9697,3.9697,3.9697,3.3364,3.5226,3.7107,3.7981,3.8811,3.975,4.1085,4.1403,4.1762,4.304,4.329,4.329,4.329,4.329,4.329,4.329,4.329,4.329,4.329,4.329,4.329,4.329,4.329,4.3379,4.3638,4.3668,4.3758,0.0,0.0,4.4192,4.4646,4.4661,4.4975,4.5648,4.5663,4.5992,4.6644,4.7078,4.7309,4.7309,4.7309,4.7309,4.7309,4.7309,4.7309,4.7309,4.7309,4.7309,4.7309,4.7309,4.7309,4.7309,4.7309,4.7309,4.7309,4.7309,4.7309,4.7309,4.7309,4.7309,4.7309,4.7309,4.7309,4.7309,4.7309,4.7309,4.7309,4.7309,4.7309,4.7309,4.7309,4.7309,4.7309,4.7309,4.7309,4.6931,4.5553,4.4461,4.3654,4.331,4.2709,4.2259,4.2259,4.1733,4.1286,4.1286,4.1286,4.1286,4.1286,4.1286,4.1286,4.1286,4.1286,4.1286,4.1286,4.1286,4.1286,4.1286,4.1286,4.1286,4.1286,4.1286,4.1173,4.0921,4.082,4.0491,3.9955,3.9788,3.9697,3.9697,3.9697,3.9697,3.337,3.5215,3.7049,3.763,3.8579,3.969,4.0801,4.1239,4.1703,4.2776,4.316,4.329,4.329,4.329,4.329,4.329,4.329,4.329,4.329,4.329,4.329,4.329,4.329,4.329,4.329,4.329,4.329,0.0,0.0,0.0,4.3938,4.3967,4.4267,4.4945,4.5185,4.5618,4.6285,4.6734,4.7085,4.7309,4.7309,4.7309,4.7309,4.7309,4.7309,4.7309,4.7309,4.7309,4.7309,4.7309,4.7309,4.7309,4.7309,4.7309,4.7309,4.7309,4.7309,4.7309,4.7309,4.7309,4.7309,4.7309,4.7309,4.7309,4.7309,4.7309,4.7309,4.7309,4.7309,4.7309,4.7309,4.7309,4.7309,4.7309,4.7309,4.7121,4.6447,4.5508,4.4693,4.4382,4.3758,4.3283,4.3283,4.2733,4.2297,4.2297,4.2297,4.2297,4.2297,4.2016,4.1794,4.1794,4.1498,4.1286,4.1286,4.1286,4.1286,4.1286,4.1286,4.1286,4.1286,4.1286,4.1211,4.1047,4.0946,4.0732,4.0377,4.0006,3.989,3.9968,3.9774,3.9697,0.0,0.0,0.0,3.6919,3.8182,3.9571,4.0247,4.0909,4.1568,4.2261,4.2865,4.3275,4.329,4.329,4.329,4.329,4.329,4.329,4.329,4.329,4.329,4.329,4.329,4.329,4.329,4.329,4.329,0.0,4.329,4.329,4.329,4.329,4.3609,4.4252,4.493,4.5589,4.6226,4.6285,4.6629,4.7279,4.7294,4.7309,4.7309,4.7309,4.7309,4.7309,4.7309,4.7309,4.7309,4.7309,4.7309,4.7309,4.7309,4.7309,4.7309,4.7309,4.7309,4.7309,4.7309,4.7309,4.7309,4.7309,4.7309,4.7309,4.7309,4.7309,4.7309,4.7309,4.7309,4.7309,4.7309,4.7309,4.7309,4.7309,4.7309,4.7309,4.7309,4.6535,4.5553,4.4591,4.4359,4.4336,4.4336,4.4312,4.4312,4.4312,4.4312,4.4312,4.4312,4.345,4.284,4.284,4.1929,4.1336,4.1336,4.1311,4.1286,4.1286,4.1286,4.1286,4.1286,4.1286,4.1286,4.1286,4.1047,4.0908,4.0908,4.0377,4.0236,4.0478,3.998,3.9723,3.4226,0.0,0.0,0.0,0.0,0.0,4.0247,4.0531,4.1014,4.2171,4.2526,4.2776,4.322,4.329,4.329,4.329,4.329,4.329,4.329,4.329,4.329,4.329,4.329,4.329,4.329,4.329,0.0,0.0,4.329,4.329,4.329,4.329,4.3379,4.3579,4.4222,4.4676,4.485,4.5822,4.639,4.6585,4.707,4.7309,4.7309,4.7309,4.7309,4.7309,4.7309,4.7309,4.7309,4.7309,4.7309,4.7309,4.7309,4.7309,4.7309,4.7309,4.7309,4.7309,4.7309,4.7309,4.7309,4.7309,4.7309,4.7309,4.7309,4.7309,4.7309,4.7309,4.7309,4.7309,4.7309,4.7309,4.7309,4.7309,4.7309,4.7309,4.7309,4.7084,4.6807,4.6528,4.5883,4.5395,4.5395,4.4776,4.4312,4.4312,4.4312,4.4312,4.4312,4.4055,4.3876,4.3876,4.2985,4.2406,4.2406,4.1733,4.1286,4.1286,4.1286,4.1286,4.1286,4.1286,4.1286,4.1286,4.1236,4.1186,4.1186,4.0466,4.0236,4.0504,4.0351,4.0172,0.0,0.0,3.7558,3.8075,0.0,0.0,3.9903,4.0202,4.0696,4.1747,4.2216,4.2571,4.319,4.329,4.329,4.329,4.329,4.329,4.329,4.329,4.329,4.329,4.329,4.329,4.329,4.329,4.329,4.329,4.329,4.329,4.329,4.329,4.329,4.329,4.3683,4.4012,4.4296,4.5074,4.5747,4.63,4.6689,4.704,4.7309,4.7309,4.7309,4.7309,4.7309,4.7309,4.7309,4.7309,4.7309,4.7309,4.7309,4.7309,4.7309,4.7309,4.7309,4.7309,4.7309,4.7309,4.7309,4.7309,4.7309,4.7309,4.7309,4.7309,4.7309,4.7309,4.7309,4.7309,4.7309,4.7309,4.7309,4.7309,4.7309,4.7309,4.7309,4.7309,4.7309,4.7309,4.6829,4.6425,4.6425,4.5943,4.5545,4.5545,4.5545,4.5545,4.5545,4.519,4.4938,4.4938,4.4017,4.3426,4.3426,4.249,4.1942,4.1942,4.1522,4.1286,4.1286,4.1286,4.1286,4.1286,4.1286,4.1236,4.1135,4.0669,4.0466,4.0504,4.0605,4.0466,0.0,0.0,0.0,3.8296,3.8867,0.0,3.9406,3.9855,4.0472,4.1149,4.1747,4.2361,4.298,4.316,4.3205,4.3205,4.3245,4.329,4.329,4.329,4.329,4.329,4.329,4.329,4.329,4.329,4.329,4.329,4.329,4.329,4.329,4.329,4.329,4.329,4.329,4.3594,4.4177,4.4252,4.4895,4.6076,4.6226,4.6614,4.7189,4.7279,4.7309,4.7309,4.7309,4.7309,4.7309,4.7309,4.7309,4.7309,4.7309,4.7309,4.7309,4.7309,4.7309,4.7309,4.7309,4.7309,4.7309,4.7309,4.7309,4.7309,4.7309,4.7309,4.7309,4.7309,4.7309,4.7309,4.7309,4.7309,4.7309,4.7309,4.7309,4.7309,4.7309,4.7309,4.7309,4.7309,4.7309,4.7309,4.7309,4.7309,4.7309,4.7309,4.7309,4.7309,4.7309,4.6513,4.5973,4.5973,4.5075,4.4475,4.4475,4.3545,4.2985,4.2985,4.2126,4.1572,4.1473,4.1473,4.1411,4.1286,4.1286,4.1186,4.0933,4.0933,4.082,4.0555,4.082,4.0681,0.0,0.0,0.0,0.0,3.9283,0.0,3.9406,3.9496,3.978,4.0457,4.0696,4.098,4.1639,4.2211,4.2571,4.2571,4.2985,4.329,4.329,4.329,4.329,4.329,4.329,4.329,4.329,4.329,4.329,4.329,4.329,4.329,4.329,4.329,4.329,4.329,4.329,4.3349,4.3484,4.4027,4.4431,4.47,4.5777,4.6375,4.651,4.7055,4.7309,4.7309,4.7309,4.7309,4.7309,4.7309,4.7309,4.7309,4.7309,4.7309,4.7309,4.7309,4.7309,4.7309,4.7309,4.7309,4.7309,4.7309,4.7309,4.7309,4.7309,4.7309,4.7309,4.7309,4.7309,4.7309,4.7309,4.7309,4.7309,4.7309,4.7309,4.7309,4.7309,4.7309,4.7309,4.7309,4.7309,4.7309,4.7309,4.7309,4.7309,4.7309,4.7309,4.7309,4.7309,4.7142,4.7019,4.7019,4.6121,4.5508,4.5508,4.4577,4.4008,4.4008,4.3819,4.3344,4.2539,4.2514,4.2126,4.1311,4.1286,4.1261,4.1211,4.1211,4.1072,4.0846,4.111,4.1047,0.0,0.0,0.0,3.9192,0.0,0.0,0.0,3.9406,3.9586,4.0262,4.0397,4.0591,4.1283,4.1673,4.1897,4.1897,4.2451,4.2851,4.2851,4.3115,4.329,4.329,4.329,4.329,4.329,4.329,4.329,4.329,4.329,4.329,4.329,4.329,4.329,4.329,4.329,4.329,4.329,4.3638,4.3967,4.4311,4.4984,4.5657,4.6315,4.6644,4.6973,4.7309,4.7309,4.7309,4.7309,4.7309,4.7309,4.7309,4.7309,4.7309,4.7309,4.7309,4.7309,4.7309,4.7309,4.7309,4.7309,4.7309,4.7309,4.7309,4.7309,4.7309,4.7309,4.7309,4.7309,4.7309,4.7309,4.7309,4.7309,4.7309,4.7309,4.7309,4.7309,4.7309,4.7309,4.7309,4.7309,4.7309,4.7309,4.7309,4.7309,4.7309,4.7309,4.7309,4.7309,4.7309,4.7309,4.7309,4.6851,4.6535,4.6535,4.5636,4.5038,4.5038,4.4591,4.3853,4.284,4.2792,4.2333,4.1311,4.1286,4.1286,4.1286,4.1286,4.1236,4.1097,4.1236,4.1161,0.0,0.0,0.0,0.0,0.0,3.9406,0.0,0.0,0.0,4.0113,4.0217,4.0367,4.0924,4.1134,4.1209,4.1209,4.1762,4.2216,0.0,4.2626,0.0,4.326,4.329,4.329,4.329,4.329,4.329,4.329,4.329,4.329,4.329,4.329,4.329,4.329,4.329,4.329,4.329,4.329,4.3579,4.4102,4.4237,4.4865,4.5927,4.6046,4.6465,4.7115,4.7115,4.7189,4.7309,4.7309,4.7309,4.7309,4.7309,4.7309,4.7309,4.7309,4.7309,4.7309,4.7309,4.7309,4.7309,4.7309,4.7309,4.7309,4.7309,4.7309,4.7309,4.7309,4.7309,4.7309,4.7309,4.7309,4.7309,4.7309,4.7309,4.7309,4.7309,4.7309,4.7309,4.7309,4.7309,4.7309,4.7309,4.7309,4.7309,4.7309,4.7309,4.7309,4.7309,4.7309,4.7309,4.7309,4.7309,4.7309,4.7309,4.6572,4.6084,4.6084,4.5326,4.4415,4.3426,4.3009,4.2333,4.1311,4.1286,4.1286,4.1286,4.1286,4.1286,4.1286,4.1286,4.1186,0.0,0.0,0.0,0.0,3.9406,0.0,0.0,0.0,3.9421,3.9496,0.0,3.9541,3.9616,0.0,0.0,4.0502,4.1089,4.1508,4.1508,4.1568,4.2028,4.3175,4.329,4.329,0.0,4.329,4.329,4.329,4.329,4.329,4.329,4.329,4.329,4.329,4.329,4.329,4.329,4.329,4.3334,4.3409,4.4012,4.4371,4.4551,4.514,4.5783,4.6405,4.6405,4.6749,4.7309,4.7309,4.7309,4.7309,4.7309,4.7309,4.7309,4.7309,4.7309,4.7309,4.7309,4.7309,4.7309,4.7309,4.7309,4.7309,4.7309,4.7309,4.7309,4.7309,4.7309,4.7309,4.7309,4.7309,4.7309,4.7309,4.7309,4.7309,4.7309,4.7309,4.7309,4.7309,4.7309,4.7309,4.7309,4.7309,4.7309,4.7309,4.7309,4.7309,4.7309,4.7309,4.7309,4.7309,4.7309,4.7309,4.7309,4.7207,4.7142,4.7142,4.7019,4.6506,4.5494,4.3744,4.2333,4.1311,4.1286,4.1286,4.1286,4.1286,4.1286,4.1286,4.1286,4.1286,0.0,0.0,0.0,0.0,0.0,0.0,3.9496,0.0,3.9406,0.0,0.0,0.0,0.0,0.0,0.0,0.0,4.0382,4.0816,4.0816,0.0,4.1613,4.2132,0.0,0.0,0.0,0.0,0.0,0.0,4.329,4.329,4.329,4.329,4.329,4.329,4.329,4.329,4.329,4.329,4.329,4.329,4.3594,4.3923,4.4311,4.4601,4.5095,4.5723,4.5723,4.6112,4.6719,4.6719,4.6943,4.7309,4.7309,4.7309,4.7309,4.7309,4.7309,4.7309,4.7309,4.7309,4.7309,4.7309,4.7309,4.7309,4.7309,4.7309,4.7309,4.7309,4.7309,4.7309,4.7309,4.7309,4.7309,4.7309,4.7309,4.7309,4.7309,4.7309,4.7309,4.7309,4.7309,4.7309,4.7309,4.7309,4.7309,4.7309,4.7309,4.7309,4.7309,4.7309,4.7309,4.7309,4.7309,4.7309,4.7309,4.7309,4.7309,4.7309,4.6763,4.5987,4.4984,4.4111,4.3201,4.2186,4.2733,4.2733,4.2161,4.2161,4.1868,4.1286,4.1286,4.1286,4.1403,0.0,0.0,0.0,0.0,0.0,0.0,0.0,0.0,0.0,0.0,0.0,0.0,0.0,0.0,0.0,0.0,4.0127,0.0,4.0546,4.0999,4.1358,0.0,0.0,0.0,0.0,0.0,4.329,4.329,4.329,4.329,4.329,4.329,4.329,4.329,4.329,4.329,4.329,4.329,4.329,4.329,4.3564,4.4027,4.4027,4.4386,4.5035,4.5035,4.5409,4.6016,4.6016,4.642,4.704,4.704,4.7145,4.7309,4.7309,4.7309,4.7309,4.7309,4.7309,4.7309,4.7309,4.7309,4.7309,4.7309,4.7309,4.7309,4.7309,4.7309,4.7309,4.7309,4.7309,4.7309,4.7309,4.7309,4.7309,4.7309,4.7309,4.7309,4.7309,4.7309,4.7309,4.7309,4.7309,4.7309,4.7309,4.7309,4.7309,4.7309,4.7309,4.7309,4.7309,4.7309,4.7309,4.7309,4.7309,4.7309,4.7309,4.6616,4.5771,4.4739,4.4693,4.4228,4.3235,4.3923,4.3805,4.2792,4.2792,4.2284,4.1286,4.1286,4.1286,0.0,0.0,0.0,4.1373,0.0,0.0,0.0,0.0,4.0367,0.0,0.0,0.0,0.0,0.0,0.0,0.0,0.0,0.0,0.0,3.9451,3.9963,4.1254,4.1418,0.0,0.0,4.2425,4.2676,4.3245,4.329,4.329,4.329,4.329,4.329,4.329,4.329,4.329,4.329,4.329,4.329,4.329,4.329,4.3305,4.3319,4.3319,4.3698,4.4326,4.4326,4.4721,4.5334,4.5334,4.5738,4.633,4.633,4.6719,4.7309,4.7309,4.7309,4.7309,4.7309,4.7309,4.7309,4.7309,4.7309,4.7309,4.7309,4.7309,4.7309,4.7309,4.7309,4.7309,4.7309,4.7309,4.7309,4.7309,4.7309,4.7309,4.7309,4.7309,4.7309,4.7309,4.7309,4.7309,4.7309,4.7309,4.7309,4.7309,4.7309,4.7309,4.7309,4.7309,4.7309,4.7309,4.7309,4.7309,4.7309,4.7309,4.7309,4.7309,4.7287,4.6807,4.5779,4.5756,4.5267,4.4266,4.4289,4.3805,4.2792,4.2792,4.2284,4.1286,4.1286,4.1286,0.0,0.0,4.2566,4.2152,0.0,0.0,0.0,0.0,0.0,0.0,0.0,0.0,0.0,0.0,0.0,0.0,0.0,0.0,0.0,3.9406,3.9571,4.0004,4.0472,4.1014,0.0,0.0,0.0,4.269,4.307,4.329,4.329,4.329,4.329,4.329,4.329,4.329,4.329,4.329,4.329,4.329,4.329,4.329,4.329,4.329,4.3409,4.3638,4.3638,4.4012,4.4646,4.4646,4.5284,4.63,4.63,4.6704,4.7309,4.7309,4.7309,4.7309,4.7309,4.7309,4.7309,4.7309,4.7309,4.7309,4.7309,4.7309,4.7309,4.7309,4.7309,4.7309,4.7309,4.7309,4.7309,4.7309,4.7309,4.7309,4.7309,4.7309,4.7309,4.7309,4.7309,4.7309,4.7309,4.7309,4.7309,4.7309,4.7309,4.7309,4.7309,4.7309,4.7309,4.7309,4.7309,4.7309,4.7309,4.7309,4.7309,4.7309,4.7309,4.6851,4.5846,4.6447,4.6314,4.5326,4.5943,4.5793,4.4771,4.4111,4.363,4.3263,4.1931,4.1286,4.329,4.329,0.0,4.2821,4.272,0.0,4.2162,0.0,0.0,0.0,0.0,0.0,0.0,0.0,0.0,0.0,0.0,0.0,0.0,3.8977,3.8977,3.8977,3.9601,4.0397,4.1313,4.1568,4.1972,4.2676,4.288,4.307,0.0,0.0,4.329,4.329,4.329,4.329,4.329,4.329,4.329,4.329,4.329,4.329,4.329,4.329,4.329,4.329,4.329,4.3564,4.3938,4.3938,4.4596,4.5613,4.5852,4.6345,4.6958,4.7219,4.7309,4.7309,4.7309,4.7309,4.7309,4.7309,4.7309,4.7309,4.7309,4.7309,4.7309,4.7309,4.7309,4.7309,4.7309,4.7309,4.7309,4.7309,4.7309,4.7309,4.7309,4.7309,4.7309,4.7309,4.7309,4.7309,4.7309,4.7309,4.7309,4.7309,4.7309,4.7309,4.7309,4.7309,4.7309,4.7309,4.7309,4.7309,4.7309,4.7309,4.7309,4.7309,4.7309,4.7019,4.6358,4.6975,4.6997,4.6344,4.6975,4.6807,4.5801,4.48,4.4312,4.4242,4.2224,4.1498]}]]